<?xml version="1.0" encoding="UTF-8" standalone="no" ?>
<gpx xmlns="http://www.topografix.com/GPX/1/1" xmlns:xsi="http://www.w3.org/2001/XMLSchema-instance" xsi:schemaLocation="http://www.topografix.com/GPX/1/1 http://www.topografix.com/GPX/1/1/gpx.xsd" version="1.1" creator="VisuGPX - https://www.visugpx.com">
  <metadata>
    <name>Rovon-presles-gorges du nan </name>
    <desc><![CDATA[File with points/tracks from Locus Map/3.47.2]]></desc>
  </metadata>
  <trk>
    <name><![CDATA[2020-08-10 09:09:41]]></name>
    <desc><![CDATA[Malleval]]></desc>
    <extensions>
      <line xmlns="http://www.topografix.com/GPX/gpx_style/0/2">
        <color>0000FF</color>
        <opacity>0.59</opacity>
        <width>6.0</width>
      </line>
    </extensions>
    <trkseg>
      <trkpt lat="45.19146" lon="5.44269">
        <ele>246</ele>
        <time>2020-08-10T07:09:41.000Z</time>
      </trkpt>
      <trkpt lat="45.19134" lon="5.44254">
        <ele>245.81</ele>
        <time>2020-08-10T07:09:46.000Z</time>
      </trkpt>
      <trkpt lat="45.19119" lon="5.44241">
        <ele>246.17</ele>
        <time>2020-08-10T07:09:51.000Z</time>
      </trkpt>
      <trkpt lat="45.19101" lon="5.44224">
        <ele>249.35</ele>
        <time>2020-08-10T07:09:56.000Z</time>
      </trkpt>
      <trkpt lat="45.19079" lon="5.44204">
        <ele>253.71</ele>
        <time>2020-08-10T07:10:01.000Z</time>
      </trkpt>
      <trkpt lat="45.19065" lon="5.44188">
        <ele>254.6</ele>
        <time>2020-08-10T07:10:06.000Z</time>
      </trkpt>
      <trkpt lat="45.19044" lon="5.44165">
        <ele>257.64</ele>
        <time>2020-08-10T07:10:11.000Z</time>
      </trkpt>
      <trkpt lat="45.19028" lon="5.44145">
        <ele>258</ele>
        <time>2020-08-10T07:10:16.000Z</time>
      </trkpt>
      <trkpt lat="45.19011" lon="5.44128">
        <ele>259.64</ele>
        <time>2020-08-10T07:10:21.000Z</time>
      </trkpt>
      <trkpt lat="45.18995" lon="5.44114">
        <ele>261.28</ele>
        <time>2020-08-10T07:10:26.000Z</time>
      </trkpt>
      <trkpt lat="45.18977" lon="5.44077">
        <ele>260.72</ele>
        <time>2020-08-10T07:10:31.000Z</time>
      </trkpt>
      <trkpt lat="45.18958" lon="5.44027">
        <ele>262.1</ele>
        <time>2020-08-10T07:10:36.000Z</time>
      </trkpt>
      <trkpt lat="45.18947" lon="5.43967">
        <ele>260.4</ele>
        <time>2020-08-10T07:10:41.000Z</time>
      </trkpt>
      <trkpt lat="45.18928" lon="5.43908">
        <ele>256.13</ele>
        <time>2020-08-10T07:10:46.000Z</time>
      </trkpt>
      <trkpt lat="45.18914" lon="5.43875">
        <ele>253.88</ele>
        <time>2020-08-10T07:10:51.000Z</time>
      </trkpt>
      <trkpt lat="45.18895" lon="5.43845">
        <ele>250.76</ele>
        <time>2020-08-10T07:10:56.000Z</time>
      </trkpt>
      <trkpt lat="45.18863" lon="5.43829">
        <ele>252.7</ele>
        <time>2020-08-10T07:11:01.000Z</time>
      </trkpt>
      <trkpt lat="45.18828" lon="5.43805">
        <ele>261.87</ele>
        <time>2020-08-10T07:11:06.000Z</time>
      </trkpt>
      <trkpt lat="45.18805" lon="5.43779">
        <ele>266.79</ele>
        <time>2020-08-10T07:11:11.000Z</time>
      </trkpt>
      <trkpt lat="45.18791" lon="5.43742">
        <ele>270.27</ele>
        <time>2020-08-10T07:11:16.000Z</time>
      </trkpt>
      <trkpt lat="45.18776" lon="5.43698">
        <ele>264.14</ele>
        <time>2020-08-10T07:11:21.000Z</time>
      </trkpt>
      <trkpt lat="45.18767" lon="5.43654">
        <ele>263.26</ele>
        <time>2020-08-10T07:11:26.000Z</time>
      </trkpt>
      <trkpt lat="45.18756" lon="5.43624">
        <ele>259.31</ele>
        <time>2020-08-10T07:11:31.000Z</time>
      </trkpt>
      <trkpt lat="45.18746" lon="5.43598">
        <ele>256.25</ele>
        <time>2020-08-10T07:11:36.000Z</time>
      </trkpt>
      <trkpt lat="45.18735" lon="5.43558">
        <ele>257.08</ele>
        <time>2020-08-10T07:11:41.000Z</time>
      </trkpt>
      <trkpt lat="45.18718" lon="5.43529">
        <ele>253.67</ele>
        <time>2020-08-10T07:11:46.000Z</time>
      </trkpt>
      <trkpt lat="45.18694" lon="5.43507">
        <ele>254.35</ele>
        <time>2020-08-10T07:11:51.000Z</time>
      </trkpt>
      <trkpt lat="45.18671" lon="5.43493">
        <ele>255.49</ele>
        <time>2020-08-10T07:11:56.000Z</time>
      </trkpt>
      <trkpt lat="45.18647" lon="5.43478">
        <ele>259.17</ele>
        <time>2020-08-10T07:12:01.000Z</time>
      </trkpt>
      <trkpt lat="45.18633" lon="5.43447">
        <ele>254.18</ele>
        <time>2020-08-10T07:12:06.000Z</time>
      </trkpt>
      <trkpt lat="45.18622" lon="5.43415">
        <ele>250.57</ele>
        <time>2020-08-10T07:12:11.000Z</time>
      </trkpt>
      <trkpt lat="45.18619" lon="5.43386">
        <ele>248.34</ele>
        <time>2020-08-10T07:12:16.000Z</time>
      </trkpt>
      <trkpt lat="45.18612" lon="5.43358">
        <ele>248.53</ele>
        <time>2020-08-10T07:12:21.000Z</time>
      </trkpt>
      <trkpt lat="45.18602" lon="5.43323">
        <ele>248.07</ele>
        <time>2020-08-10T07:12:26.000Z</time>
      </trkpt>
      <trkpt lat="45.18598" lon="5.43293">
        <ele>244.33</ele>
        <time>2020-08-10T07:12:31.000Z</time>
      </trkpt>
      <trkpt lat="45.18611" lon="5.43279">
        <ele>248.66</ele>
        <time>2020-08-10T07:12:36.000Z</time>
      </trkpt>
      <trkpt lat="45.18627" lon="5.43268">
        <ele>250.51</ele>
        <time>2020-08-10T07:12:41.000Z</time>
      </trkpt>
      <trkpt lat="45.18642" lon="5.43249">
        <ele>251.72</ele>
        <time>2020-08-10T07:12:46.000Z</time>
      </trkpt>
      <trkpt lat="45.18661" lon="5.43231">
        <ele>252.36</ele>
        <time>2020-08-10T07:12:51.000Z</time>
      </trkpt>
      <trkpt lat="45.18683" lon="5.43206">
        <ele>250.21</ele>
        <time>2020-08-10T07:12:56.000Z</time>
      </trkpt>
      <trkpt lat="45.18696" lon="5.43187">
        <ele>249.1</ele>
        <time>2020-08-10T07:13:01.000Z</time>
      </trkpt>
      <trkpt lat="45.18718" lon="5.43166">
        <ele>249.14</ele>
        <time>2020-08-10T07:13:06.000Z</time>
      </trkpt>
      <trkpt lat="45.18739" lon="5.43143">
        <ele>252.7</ele>
        <time>2020-08-10T07:13:11.000Z</time>
      </trkpt>
      <trkpt lat="45.18762" lon="5.43117">
        <ele>253</ele>
        <time>2020-08-10T07:13:16.000Z</time>
      </trkpt>
      <trkpt lat="45.18781" lon="5.43093">
        <ele>248.89</ele>
        <time>2020-08-10T07:13:21.000Z</time>
      </trkpt>
      <trkpt lat="45.18795" lon="5.43073">
        <ele>248.42</ele>
        <time>2020-08-10T07:13:26.000Z</time>
      </trkpt>
      <trkpt lat="45.18815" lon="5.43064">
        <ele>245.59</ele>
        <time>2020-08-10T07:13:31.000Z</time>
      </trkpt>
      <trkpt lat="45.18847" lon="5.43056">
        <ele>244.65</ele>
        <time>2020-08-10T07:13:36.000Z</time>
      </trkpt>
      <trkpt lat="45.18875" lon="5.43043">
        <ele>243.85</ele>
        <time>2020-08-10T07:13:41.000Z</time>
      </trkpt>
      <trkpt lat="45.189" lon="5.43023">
        <ele>242.26</ele>
        <time>2020-08-10T07:13:46.000Z</time>
      </trkpt>
      <trkpt lat="45.18917" lon="5.43001">
        <ele>243.62</ele>
        <time>2020-08-10T07:13:51.000Z</time>
      </trkpt>
      <trkpt lat="45.18941" lon="5.42977">
        <ele>245.56</ele>
        <time>2020-08-10T07:13:56.000Z</time>
      </trkpt>
      <trkpt lat="45.1897" lon="5.42953">
        <ele>242.71</ele>
        <time>2020-08-10T07:14:01.000Z</time>
      </trkpt>
      <trkpt lat="45.18992" lon="5.42933">
        <ele>242.13</ele>
        <time>2020-08-10T07:14:06.000Z</time>
      </trkpt>
      <trkpt lat="45.19017" lon="5.429">
        <ele>244.46</ele>
        <time>2020-08-10T07:14:11.000Z</time>
      </trkpt>
      <trkpt lat="45.19033" lon="5.42889">
        <ele>242.77</ele>
        <time>2020-08-10T07:14:16.000Z</time>
      </trkpt>
      <trkpt lat="45.19045" lon="5.42875">
        <ele>244.11</ele>
        <time>2020-08-10T07:14:21.000Z</time>
      </trkpt>
      <trkpt lat="45.19064" lon="5.42854">
        <ele>249.64</ele>
        <time>2020-08-10T07:14:26.000Z</time>
      </trkpt>
      <trkpt lat="45.1908" lon="5.4284">
        <ele>249.96</ele>
        <time>2020-08-10T07:14:31.000Z</time>
      </trkpt>
      <trkpt lat="45.19092" lon="5.42824">
        <ele>250.01</ele>
        <time>2020-08-10T07:14:36.000Z</time>
      </trkpt>
      <trkpt lat="45.19101" lon="5.42802">
        <ele>248.77</ele>
        <time>2020-08-10T07:14:41.000Z</time>
      </trkpt>
      <trkpt lat="45.19115" lon="5.42771">
        <ele>245.25</ele>
        <time>2020-08-10T07:14:46.000Z</time>
      </trkpt>
      <trkpt lat="45.19127" lon="5.42736">
        <ele>244.87</ele>
        <time>2020-08-10T07:14:51.000Z</time>
      </trkpt>
      <trkpt lat="45.19143" lon="5.42702">
        <ele>247.46</ele>
        <time>2020-08-10T07:14:56.000Z</time>
      </trkpt>
      <trkpt lat="45.19166" lon="5.42703">
        <ele>249.91</ele>
        <time>2020-08-10T07:15:01.000Z</time>
      </trkpt>
      <trkpt lat="45.19195" lon="5.42703">
        <ele>249.73</ele>
        <time>2020-08-10T07:15:06.000Z</time>
      </trkpt>
      <trkpt lat="45.19214" lon="5.42662">
        <ele>250.95</ele>
        <time>2020-08-10T07:15:11.000Z</time>
      </trkpt>
      <trkpt lat="45.19232" lon="5.42618">
        <ele>243.02</ele>
        <time>2020-08-10T07:15:16.000Z</time>
      </trkpt>
      <trkpt lat="45.19255" lon="5.42608">
        <ele>239.97</ele>
        <time>2020-08-10T07:15:21.000Z</time>
      </trkpt>
      <trkpt lat="45.19278" lon="5.42605">
        <ele>239.84</ele>
        <time>2020-08-10T07:15:26.000Z</time>
      </trkpt>
      <trkpt lat="45.19267" lon="5.426">
        <ele>233.07</ele>
        <time>2020-08-10T07:16:28.000Z</time>
      </trkpt>
      <trkpt lat="45.19251" lon="5.42602">
        <ele>230.94</ele>
        <time>2020-08-10T07:16:33.000Z</time>
      </trkpt>
      <trkpt lat="45.19238" lon="5.42621">
        <ele>226.83</ele>
        <time>2020-08-10T07:16:38.000Z</time>
      </trkpt>
      <trkpt lat="45.19226" lon="5.42625">
        <ele>224.11</ele>
        <time>2020-08-10T07:16:43.000Z</time>
      </trkpt>
      <trkpt lat="45.19208" lon="5.42614">
        <ele>227.15</ele>
        <time>2020-08-10T07:16:48.000Z</time>
      </trkpt>
      <trkpt lat="45.19185" lon="5.42608">
        <ele>230.12</ele>
        <time>2020-08-10T07:16:53.000Z</time>
      </trkpt>
      <trkpt lat="45.19165" lon="5.42598">
        <ele>231.68</ele>
        <time>2020-08-10T07:16:58.000Z</time>
      </trkpt>
      <trkpt lat="45.19148" lon="5.42583">
        <ele>237.09</ele>
        <time>2020-08-10T07:17:03.000Z</time>
      </trkpt>
      <trkpt lat="45.19134" lon="5.42569">
        <ele>235.7</ele>
        <time>2020-08-10T07:17:08.000Z</time>
      </trkpt>
      <trkpt lat="45.19114" lon="5.42545">
        <ele>235.2</ele>
        <time>2020-08-10T07:17:13.000Z</time>
      </trkpt>
      <trkpt lat="45.19093" lon="5.42524">
        <ele>232.45</ele>
        <time>2020-08-10T07:17:18.000Z</time>
      </trkpt>
      <trkpt lat="45.19066" lon="5.42516">
        <ele>232.25</ele>
        <time>2020-08-10T07:17:23.000Z</time>
      </trkpt>
      <trkpt lat="45.19042" lon="5.42502">
        <ele>235.59</ele>
        <time>2020-08-10T07:17:28.000Z</time>
      </trkpt>
      <trkpt lat="45.19026" lon="5.42481">
        <ele>239.34</ele>
        <time>2020-08-10T07:17:33.000Z</time>
      </trkpt>
      <trkpt lat="45.19019" lon="5.42458">
        <ele>241.68</ele>
        <time>2020-08-10T07:17:38.000Z</time>
      </trkpt>
      <trkpt lat="45.19021" lon="5.42437">
        <ele>244.31</ele>
        <time>2020-08-10T07:17:43.000Z</time>
      </trkpt>
      <trkpt lat="45.19018" lon="5.42415">
        <ele>244.18</ele>
        <time>2020-08-10T07:17:48.000Z</time>
      </trkpt>
      <trkpt lat="45.19013" lon="5.42398">
        <ele>242.06</ele>
        <time>2020-08-10T07:17:53.000Z</time>
      </trkpt>
      <trkpt lat="45.19005" lon="5.42387">
        <ele>242.96</ele>
        <time>2020-08-10T07:17:58.000Z</time>
      </trkpt>
      <trkpt lat="45.18997" lon="5.42372">
        <ele>242.05</ele>
        <time>2020-08-10T07:18:03.000Z</time>
      </trkpt>
      <trkpt lat="45.18992" lon="5.42355">
        <ele>239.37</ele>
        <time>2020-08-10T07:18:08.000Z</time>
      </trkpt>
      <trkpt lat="45.18986" lon="5.42332">
        <ele>239.72</ele>
        <time>2020-08-10T07:18:13.000Z</time>
      </trkpt>
      <trkpt lat="45.18977" lon="5.42306">
        <ele>236.18</ele>
        <time>2020-08-10T07:18:18.000Z</time>
      </trkpt>
      <trkpt lat="45.18957" lon="5.42287">
        <ele>237.65</ele>
        <time>2020-08-10T07:18:23.000Z</time>
      </trkpt>
      <trkpt lat="45.18933" lon="5.42263">
        <ele>242.32</ele>
        <time>2020-08-10T07:18:28.000Z</time>
      </trkpt>
      <trkpt lat="45.18908" lon="5.42237">
        <ele>240.23</ele>
        <time>2020-08-10T07:18:33.000Z</time>
      </trkpt>
      <trkpt lat="45.18886" lon="5.4222">
        <ele>239.84</ele>
        <time>2020-08-10T07:18:38.000Z</time>
      </trkpt>
      <trkpt lat="45.18859" lon="5.4221">
        <ele>240.18</ele>
        <time>2020-08-10T07:18:43.000Z</time>
      </trkpt>
      <trkpt lat="45.18824" lon="5.42208">
        <ele>243.65</ele>
        <time>2020-08-10T07:18:48.000Z</time>
      </trkpt>
      <trkpt lat="45.18796" lon="5.42204">
        <ele>241.58</ele>
        <time>2020-08-10T07:18:53.000Z</time>
      </trkpt>
      <trkpt lat="45.1877" lon="5.42198">
        <ele>241.01</ele>
        <time>2020-08-10T07:18:58.000Z</time>
      </trkpt>
      <trkpt lat="45.18744" lon="5.42194">
        <ele>241.42</ele>
        <time>2020-08-10T07:19:03.000Z</time>
      </trkpt>
      <trkpt lat="45.1872" lon="5.42196">
        <ele>240.22</ele>
        <time>2020-08-10T07:19:08.000Z</time>
      </trkpt>
      <trkpt lat="45.18693" lon="5.4219">
        <ele>241.38</ele>
        <time>2020-08-10T07:19:13.000Z</time>
      </trkpt>
      <trkpt lat="45.18672" lon="5.42188">
        <ele>240.36</ele>
        <time>2020-08-10T07:19:18.000Z</time>
      </trkpt>
      <trkpt lat="45.18652" lon="5.42181">
        <ele>240.85</ele>
        <time>2020-08-10T07:19:23.000Z</time>
      </trkpt>
      <trkpt lat="45.18636" lon="5.42162">
        <ele>239.76</ele>
        <time>2020-08-10T07:19:28.000Z</time>
      </trkpt>
      <trkpt lat="45.186" lon="5.4217">
        <ele>234.19</ele>
        <time>2020-08-10T07:19:33.000Z</time>
      </trkpt>
      <trkpt lat="45.18568" lon="5.42153">
        <ele>234.47</ele>
        <time>2020-08-10T07:19:38.000Z</time>
      </trkpt>
      <trkpt lat="45.18533" lon="5.42142">
        <ele>233.11</ele>
        <time>2020-08-10T07:19:43.000Z</time>
      </trkpt>
      <trkpt lat="45.18517" lon="5.42123">
        <ele>229.27</ele>
        <time>2020-08-10T07:19:48.000Z</time>
      </trkpt>
      <trkpt lat="45.18482" lon="5.42107">
        <ele>227.29</ele>
        <time>2020-08-10T07:19:53.000Z</time>
      </trkpt>
      <trkpt lat="45.18456" lon="5.42096">
        <ele>223.33</ele>
        <time>2020-08-10T07:19:58.000Z</time>
      </trkpt>
      <trkpt lat="45.18413" lon="5.42077">
        <ele>219.53</ele>
        <time>2020-08-10T07:20:03.000Z</time>
      </trkpt>
      <trkpt lat="45.18375" lon="5.42061">
        <ele>220.33</ele>
        <time>2020-08-10T07:20:08.000Z</time>
      </trkpt>
      <trkpt lat="45.18337" lon="5.42043">
        <ele>221.51</ele>
        <time>2020-08-10T07:20:13.000Z</time>
      </trkpt>
      <trkpt lat="45.18306" lon="5.42031">
        <ele>218.77</ele>
        <time>2020-08-10T07:20:18.000Z</time>
      </trkpt>
      <trkpt lat="45.1828" lon="5.42016">
        <ele>218.17</ele>
        <time>2020-08-10T07:20:23.000Z</time>
      </trkpt>
      <trkpt lat="45.18253" lon="5.4201">
        <ele>218.41</ele>
        <time>2020-08-10T07:20:28.000Z</time>
      </trkpt>
      <trkpt lat="45.18227" lon="5.42">
        <ele>218.12</ele>
        <time>2020-08-10T07:20:33.000Z</time>
      </trkpt>
      <trkpt lat="45.18203" lon="5.41984">
        <ele>219.6</ele>
        <time>2020-08-10T07:20:38.000Z</time>
      </trkpt>
      <trkpt lat="45.18185" lon="5.41967">
        <ele>224.43</ele>
        <time>2020-08-10T07:20:43.000Z</time>
      </trkpt>
      <trkpt lat="45.18165" lon="5.41961">
        <ele>224.23</ele>
        <time>2020-08-10T07:20:48.000Z</time>
      </trkpt>
      <trkpt lat="45.18145" lon="5.4194">
        <ele>224.67</ele>
        <time>2020-08-10T07:20:53.000Z</time>
      </trkpt>
      <trkpt lat="45.18122" lon="5.4192">
        <ele>229.63</ele>
        <time>2020-08-10T07:20:58.000Z</time>
      </trkpt>
      <trkpt lat="45.18099" lon="5.41892">
        <ele>229.32</ele>
        <time>2020-08-10T07:21:03.000Z</time>
      </trkpt>
      <trkpt lat="45.18072" lon="5.41864">
        <ele>231.61</ele>
        <time>2020-08-10T07:21:08.000Z</time>
      </trkpt>
      <trkpt lat="45.18043" lon="5.41842">
        <ele>238.64</ele>
        <time>2020-08-10T07:21:13.000Z</time>
      </trkpt>
      <trkpt lat="45.18025" lon="5.41806">
        <ele>238.96</ele>
        <time>2020-08-10T07:21:18.000Z</time>
      </trkpt>
      <trkpt lat="45.18011" lon="5.41774">
        <ele>237.83</ele>
        <time>2020-08-10T07:21:23.000Z</time>
      </trkpt>
      <trkpt lat="45.1799" lon="5.41729">
        <ele>233.54</ele>
        <time>2020-08-10T07:21:28.000Z</time>
      </trkpt>
      <trkpt lat="45.17967" lon="5.41704">
        <ele>233.36</ele>
        <time>2020-08-10T07:21:33.000Z</time>
      </trkpt>
      <trkpt lat="45.17946" lon="5.41674">
        <ele>235.01</ele>
        <time>2020-08-10T07:21:38.000Z</time>
      </trkpt>
      <trkpt lat="45.17918" lon="5.41626">
        <ele>231.53</ele>
        <time>2020-08-10T07:21:43.000Z</time>
      </trkpt>
      <trkpt lat="45.17905" lon="5.41575">
        <ele>233.98</ele>
        <time>2020-08-10T07:21:48.000Z</time>
      </trkpt>
      <trkpt lat="45.1791" lon="5.41527">
        <ele>231.06</ele>
        <time>2020-08-10T07:21:53.000Z</time>
      </trkpt>
      <trkpt lat="45.17917" lon="5.41479">
        <ele>227.69</ele>
        <time>2020-08-10T07:21:58.000Z</time>
      </trkpt>
      <trkpt lat="45.17926" lon="5.41429">
        <ele>229.2</ele>
        <time>2020-08-10T07:22:03.000Z</time>
      </trkpt>
      <trkpt lat="45.17925" lon="5.41387">
        <ele>232.21</ele>
        <time>2020-08-10T07:22:08.000Z</time>
      </trkpt>
      <trkpt lat="45.17925" lon="5.41339">
        <ele>231.5</ele>
        <time>2020-08-10T07:22:13.000Z</time>
      </trkpt>
      <trkpt lat="45.17918" lon="5.41293">
        <ele>231.3</ele>
        <time>2020-08-10T07:22:18.000Z</time>
      </trkpt>
      <trkpt lat="45.17904" lon="5.41255">
        <ele>228.11</ele>
        <time>2020-08-10T07:22:23.000Z</time>
      </trkpt>
      <trkpt lat="45.17889" lon="5.41201">
        <ele>225.43</ele>
        <time>2020-08-10T07:22:28.000Z</time>
      </trkpt>
      <trkpt lat="45.17875" lon="5.41151">
        <ele>225.77</ele>
        <time>2020-08-10T07:22:33.000Z</time>
      </trkpt>
      <trkpt lat="45.17862" lon="5.41104">
        <ele>227.55</ele>
        <time>2020-08-10T07:22:38.000Z</time>
      </trkpt>
      <trkpt lat="45.17842" lon="5.4105">
        <ele>226.23</ele>
        <time>2020-08-10T07:22:43.000Z</time>
      </trkpt>
      <trkpt lat="45.17824" lon="5.41006">
        <ele>223.3</ele>
        <time>2020-08-10T07:22:48.000Z</time>
      </trkpt>
      <trkpt lat="45.17806" lon="5.40966">
        <ele>218.62</ele>
        <time>2020-08-10T07:22:53.000Z</time>
      </trkpt>
      <trkpt lat="45.17786" lon="5.40924">
        <ele>214.33</ele>
        <time>2020-08-10T07:22:58.000Z</time>
      </trkpt>
      <trkpt lat="45.17773" lon="5.40899">
        <ele>213.91</ele>
        <time>2020-08-10T07:23:03.000Z</time>
      </trkpt>
      <trkpt lat="45.17757" lon="5.40863">
        <ele>211.32</ele>
        <time>2020-08-10T07:23:08.000Z</time>
      </trkpt>
      <trkpt lat="45.17743" lon="5.4084">
        <ele>215.65</ele>
        <time>2020-08-10T07:23:13.000Z</time>
      </trkpt>
      <trkpt lat="45.17729" lon="5.40808">
        <ele>213.43</ele>
        <time>2020-08-10T07:23:18.000Z</time>
      </trkpt>
      <trkpt lat="45.17721" lon="5.40769">
        <ele>217.61</ele>
        <time>2020-08-10T07:23:23.000Z</time>
      </trkpt>
      <trkpt lat="45.17715" lon="5.40734">
        <ele>216.74</ele>
        <time>2020-08-10T07:23:28.000Z</time>
      </trkpt>
      <trkpt lat="45.17714" lon="5.4069">
        <ele>218.1</ele>
        <time>2020-08-10T07:23:33.000Z</time>
      </trkpt>
      <trkpt lat="45.17719" lon="5.40648">
        <ele>218.87</ele>
        <time>2020-08-10T07:23:38.000Z</time>
      </trkpt>
      <trkpt lat="45.17717" lon="5.40601">
        <ele>219.54</ele>
        <time>2020-08-10T07:23:43.000Z</time>
      </trkpt>
      <trkpt lat="45.1771" lon="5.40562">
        <ele>218.91</ele>
        <time>2020-08-10T07:23:48.000Z</time>
      </trkpt>
      <trkpt lat="45.17722" lon="5.40518">
        <ele>217.81</ele>
        <time>2020-08-10T07:23:53.000Z</time>
      </trkpt>
      <trkpt lat="45.17721" lon="5.40477">
        <ele>216.71</ele>
        <time>2020-08-10T07:23:58.000Z</time>
      </trkpt>
      <trkpt lat="45.17715" lon="5.40424">
        <ele>215.45</ele>
        <time>2020-08-10T07:24:03.000Z</time>
      </trkpt>
      <trkpt lat="45.17691" lon="5.40394">
        <ele>214</ele>
        <time>2020-08-10T07:24:08.000Z</time>
      </trkpt>
      <trkpt lat="45.17669" lon="5.40356">
        <ele>213.1</ele>
        <time>2020-08-10T07:24:13.000Z</time>
      </trkpt>
      <trkpt lat="45.17658" lon="5.4031">
        <ele>213.93</ele>
        <time>2020-08-10T07:24:18.000Z</time>
      </trkpt>
      <trkpt lat="45.17644" lon="5.40275">
        <ele>216.06</ele>
        <time>2020-08-10T07:24:23.000Z</time>
      </trkpt>
      <trkpt lat="45.17633" lon="5.40238">
        <ele>214.32</ele>
        <time>2020-08-10T07:24:28.000Z</time>
      </trkpt>
      <trkpt lat="45.17626" lon="5.40182">
        <ele>216.68</ele>
        <time>2020-08-10T07:24:33.000Z</time>
      </trkpt>
      <trkpt lat="45.17629" lon="5.40133">
        <ele>219.27</ele>
        <time>2020-08-10T07:24:38.000Z</time>
      </trkpt>
      <trkpt lat="45.17617" lon="5.40094">
        <ele>220.86</ele>
        <time>2020-08-10T07:24:43.000Z</time>
      </trkpt>
      <trkpt lat="45.176" lon="5.40062">
        <ele>217.29</ele>
        <time>2020-08-10T07:24:48.000Z</time>
      </trkpt>
      <trkpt lat="45.17592" lon="5.40039">
        <ele>215.85</ele>
        <time>2020-08-10T07:24:53.000Z</time>
      </trkpt>
      <trkpt lat="45.17579" lon="5.39998">
        <ele>218.77</ele>
        <time>2020-08-10T07:24:58.000Z</time>
      </trkpt>
      <trkpt lat="45.17563" lon="5.39959">
        <ele>216.59</ele>
        <time>2020-08-10T07:25:03.000Z</time>
      </trkpt>
      <trkpt lat="45.17541" lon="5.39935">
        <ele>213.51</ele>
        <time>2020-08-10T07:25:08.000Z</time>
      </trkpt>
      <trkpt lat="45.17518" lon="5.39914">
        <ele>216.98</ele>
        <time>2020-08-10T07:25:13.000Z</time>
      </trkpt>
      <trkpt lat="45.17501" lon="5.39886">
        <ele>216</ele>
        <time>2020-08-10T07:25:18.000Z</time>
      </trkpt>
      <trkpt lat="45.17488" lon="5.39854">
        <ele>214.84</ele>
        <time>2020-08-10T07:25:23.000Z</time>
      </trkpt>
      <trkpt lat="45.17487" lon="5.39831">
        <ele>218.9</ele>
        <time>2020-08-10T07:25:28.000Z</time>
      </trkpt>
      <trkpt lat="45.1749" lon="5.39811">
        <ele>219.36</ele>
        <time>2020-08-10T07:25:34.000Z</time>
      </trkpt>
      <trkpt lat="45.17502" lon="5.39788">
        <ele>219.22</ele>
        <time>2020-08-10T07:25:39.000Z</time>
      </trkpt>
      <trkpt lat="45.1751" lon="5.39764">
        <ele>216.13</ele>
        <time>2020-08-10T07:25:44.000Z</time>
      </trkpt>
      <trkpt lat="45.17513" lon="5.39734">
        <ele>220.87</ele>
        <time>2020-08-10T07:25:49.000Z</time>
      </trkpt>
      <trkpt lat="45.17508" lon="5.39704">
        <ele>220.06</ele>
        <time>2020-08-10T07:25:54.000Z</time>
      </trkpt>
      <trkpt lat="45.17502" lon="5.39677">
        <ele>217.96</ele>
        <time>2020-08-10T07:25:59.000Z</time>
      </trkpt>
      <trkpt lat="45.17495" lon="5.39653">
        <ele>218.83</ele>
        <time>2020-08-10T07:26:04.000Z</time>
      </trkpt>
      <trkpt lat="45.17485" lon="5.39628">
        <ele>222.51</ele>
        <time>2020-08-10T07:26:09.000Z</time>
      </trkpt>
      <trkpt lat="45.17472" lon="5.39607">
        <ele>223.74</ele>
        <time>2020-08-10T07:26:14.000Z</time>
      </trkpt>
      <trkpt lat="45.17455" lon="5.39584">
        <ele>225.13</ele>
        <time>2020-08-10T07:26:19.000Z</time>
      </trkpt>
      <trkpt lat="45.17439" lon="5.39564">
        <ele>223.98</ele>
        <time>2020-08-10T07:26:24.000Z</time>
      </trkpt>
      <trkpt lat="45.17424" lon="5.39547">
        <ele>217.23</ele>
        <time>2020-08-10T07:26:29.000Z</time>
      </trkpt>
      <trkpt lat="45.17403" lon="5.39529">
        <ele>219.84</ele>
        <time>2020-08-10T07:26:34.000Z</time>
      </trkpt>
      <trkpt lat="45.17381" lon="5.3952">
        <ele>216.85</ele>
        <time>2020-08-10T07:26:39.000Z</time>
      </trkpt>
      <trkpt lat="45.17358" lon="5.3951">
        <ele>214.27</ele>
        <time>2020-08-10T07:26:44.000Z</time>
      </trkpt>
      <trkpt lat="45.17348" lon="5.39491">
        <ele>215.18</ele>
        <time>2020-08-10T07:26:49.000Z</time>
      </trkpt>
      <trkpt lat="45.17329" lon="5.39476">
        <ele>217.01</ele>
        <time>2020-08-10T07:26:54.000Z</time>
      </trkpt>
      <trkpt lat="45.17321" lon="5.3946">
        <ele>216.95</ele>
        <time>2020-08-10T07:26:59.000Z</time>
      </trkpt>
      <trkpt lat="45.17296" lon="5.39442">
        <ele>221.03</ele>
        <time>2020-08-10T07:27:04.000Z</time>
      </trkpt>
      <trkpt lat="45.17277" lon="5.39422">
        <ele>221.1</ele>
        <time>2020-08-10T07:27:09.000Z</time>
      </trkpt>
      <trkpt lat="45.1726" lon="5.39399">
        <ele>223.78</ele>
        <time>2020-08-10T07:27:14.000Z</time>
      </trkpt>
      <trkpt lat="45.17243" lon="5.39379">
        <ele>226.06</ele>
        <time>2020-08-10T07:27:19.000Z</time>
      </trkpt>
      <trkpt lat="45.17225" lon="5.39352">
        <ele>222.46</ele>
        <time>2020-08-10T07:27:24.000Z</time>
      </trkpt>
      <trkpt lat="45.17217" lon="5.39322">
        <ele>225.68</ele>
        <time>2020-08-10T07:27:29.000Z</time>
      </trkpt>
      <trkpt lat="45.17204" lon="5.39293">
        <ele>226.97</ele>
        <time>2020-08-10T07:27:34.000Z</time>
      </trkpt>
      <trkpt lat="45.17189" lon="5.39268">
        <ele>227.12</ele>
        <time>2020-08-10T07:27:39.000Z</time>
      </trkpt>
      <trkpt lat="45.17176" lon="5.3924">
        <ele>226.45</ele>
        <time>2020-08-10T07:27:44.000Z</time>
      </trkpt>
      <trkpt lat="45.1716" lon="5.39206">
        <ele>225.72</ele>
        <time>2020-08-10T07:27:49.000Z</time>
      </trkpt>
      <trkpt lat="45.17144" lon="5.39177">
        <ele>225.13</ele>
        <time>2020-08-10T07:27:54.000Z</time>
      </trkpt>
      <trkpt lat="45.17135" lon="5.39169">
        <ele>224.47</ele>
        <time>2020-08-10T07:27:59.000Z</time>
      </trkpt>
      <trkpt lat="45.1712" lon="5.39145">
        <ele>223.52</ele>
        <time>2020-08-10T07:28:04.000Z</time>
      </trkpt>
      <trkpt lat="45.17103" lon="5.39124">
        <ele>224.59</ele>
        <time>2020-08-10T07:28:09.000Z</time>
      </trkpt>
      <trkpt lat="45.17084" lon="5.39082">
        <ele>223.37</ele>
        <time>2020-08-10T07:28:14.000Z</time>
      </trkpt>
      <trkpt lat="45.17064" lon="5.39064">
        <ele>227.62</ele>
        <time>2020-08-10T07:28:19.000Z</time>
      </trkpt>
      <trkpt lat="45.17053" lon="5.39042">
        <ele>231.77</ele>
        <time>2020-08-10T07:28:24.000Z</time>
      </trkpt>
      <trkpt lat="45.17034" lon="5.3903">
        <ele>230.15</ele>
        <time>2020-08-10T07:28:29.000Z</time>
      </trkpt>
      <trkpt lat="45.17022" lon="5.39007">
        <ele>230.26</ele>
        <time>2020-08-10T07:28:34.000Z</time>
      </trkpt>
      <trkpt lat="45.17004" lon="5.38983">
        <ele>236.85</ele>
        <time>2020-08-10T07:28:39.000Z</time>
      </trkpt>
      <trkpt lat="45.16983" lon="5.38961">
        <ele>237.1</ele>
        <time>2020-08-10T07:28:44.000Z</time>
      </trkpt>
      <trkpt lat="45.16975" lon="5.38938">
        <ele>227.13</ele>
        <time>2020-08-10T07:28:49.000Z</time>
      </trkpt>
      <trkpt lat="45.16959" lon="5.38919">
        <ele>228.6</ele>
        <time>2020-08-10T07:28:54.000Z</time>
      </trkpt>
      <trkpt lat="45.16953" lon="5.3889">
        <ele>226.27</ele>
        <time>2020-08-10T07:28:59.000Z</time>
      </trkpt>
      <trkpt lat="45.16938" lon="5.38869">
        <ele>228.72</ele>
        <time>2020-08-10T07:29:04.000Z</time>
      </trkpt>
      <trkpt lat="45.16918" lon="5.38843">
        <ele>229.26</ele>
        <time>2020-08-10T07:29:09.000Z</time>
      </trkpt>
      <trkpt lat="45.16896" lon="5.38823">
        <ele>228.98</ele>
        <time>2020-08-10T07:29:14.000Z</time>
      </trkpt>
      <trkpt lat="45.16876" lon="5.38797">
        <ele>226.61</ele>
        <time>2020-08-10T07:29:19.000Z</time>
      </trkpt>
      <trkpt lat="45.16853" lon="5.38784">
        <ele>229.06</ele>
        <time>2020-08-10T07:29:24.000Z</time>
      </trkpt>
      <trkpt lat="45.16833" lon="5.38774">
        <ele>226.84</ele>
        <time>2020-08-10T07:29:29.000Z</time>
      </trkpt>
      <trkpt lat="45.16815" lon="5.38759">
        <ele>227.65</ele>
        <time>2020-08-10T07:29:34.000Z</time>
      </trkpt>
      <trkpt lat="45.16789" lon="5.38749">
        <ele>227.3</ele>
        <time>2020-08-10T07:29:39.000Z</time>
      </trkpt>
      <trkpt lat="45.16771" lon="5.38739">
        <ele>227.6</ele>
        <time>2020-08-10T07:29:44.000Z</time>
      </trkpt>
      <trkpt lat="45.16759" lon="5.38729">
        <ele>226.67</ele>
        <time>2020-08-10T07:29:49.000Z</time>
      </trkpt>
      <trkpt lat="45.16747" lon="5.38725">
        <ele>226.01</ele>
        <time>2020-08-10T07:29:54.000Z</time>
      </trkpt>
      <trkpt lat="45.16732" lon="5.38713">
        <ele>229.32</ele>
        <time>2020-08-10T07:29:59.000Z</time>
      </trkpt>
      <trkpt lat="45.16692" lon="5.38709">
        <ele>228.14</ele>
        <time>2020-08-10T07:30:04.000Z</time>
      </trkpt>
      <trkpt lat="45.16679" lon="5.38692">
        <ele>226.54</ele>
        <time>2020-08-10T07:30:09.000Z</time>
      </trkpt>
      <trkpt lat="45.16662" lon="5.38676">
        <ele>229.86</ele>
        <time>2020-08-10T07:30:14.000Z</time>
      </trkpt>
      <trkpt lat="45.16641" lon="5.38661">
        <ele>231.55</ele>
        <time>2020-08-10T07:30:19.000Z</time>
      </trkpt>
      <trkpt lat="45.16622" lon="5.38653">
        <ele>235.32</ele>
        <time>2020-08-10T07:30:24.000Z</time>
      </trkpt>
      <trkpt lat="45.16597" lon="5.38641">
        <ele>240.7</ele>
        <time>2020-08-10T07:30:29.000Z</time>
      </trkpt>
      <trkpt lat="45.16571" lon="5.38631">
        <ele>237.35</ele>
        <time>2020-08-10T07:30:34.000Z</time>
      </trkpt>
      <trkpt lat="45.16551" lon="5.38622">
        <ele>238.07</ele>
        <time>2020-08-10T07:30:39.000Z</time>
      </trkpt>
      <trkpt lat="45.16528" lon="5.38611">
        <ele>235</ele>
        <time>2020-08-10T07:30:44.000Z</time>
      </trkpt>
      <trkpt lat="45.16505" lon="5.38603">
        <ele>231.59</ele>
        <time>2020-08-10T07:30:49.000Z</time>
      </trkpt>
      <trkpt lat="45.16485" lon="5.38591">
        <ele>234.41</ele>
        <time>2020-08-10T07:30:54.000Z</time>
      </trkpt>
      <trkpt lat="45.16463" lon="5.38577">
        <ele>234.17</ele>
        <time>2020-08-10T07:30:59.000Z</time>
      </trkpt>
      <trkpt lat="45.1644" lon="5.3856">
        <ele>232.32</ele>
        <time>2020-08-10T07:31:04.000Z</time>
      </trkpt>
      <trkpt lat="45.16416" lon="5.38549">
        <ele>233.63</ele>
        <time>2020-08-10T07:31:09.000Z</time>
      </trkpt>
      <trkpt lat="45.16396" lon="5.38529">
        <ele>234.78</ele>
        <time>2020-08-10T07:31:14.000Z</time>
      </trkpt>
      <trkpt lat="45.16372" lon="5.38516">
        <ele>237.93</ele>
        <time>2020-08-10T07:31:19.000Z</time>
      </trkpt>
      <trkpt lat="45.16351" lon="5.38505">
        <ele>238.32</ele>
        <time>2020-08-10T07:31:24.000Z</time>
      </trkpt>
      <trkpt lat="45.16326" lon="5.38496">
        <ele>238.52</ele>
        <time>2020-08-10T07:31:29.000Z</time>
      </trkpt>
      <trkpt lat="45.16303" lon="5.38485">
        <ele>238.39</ele>
        <time>2020-08-10T07:31:34.000Z</time>
      </trkpt>
      <trkpt lat="45.16279" lon="5.38473">
        <ele>240.44</ele>
        <time>2020-08-10T07:31:39.000Z</time>
      </trkpt>
      <trkpt lat="45.16257" lon="5.38454">
        <ele>242.68</ele>
        <time>2020-08-10T07:31:44.000Z</time>
      </trkpt>
      <trkpt lat="45.16237" lon="5.38444">
        <ele>245.55</ele>
        <time>2020-08-10T07:31:49.000Z</time>
      </trkpt>
      <trkpt lat="45.16213" lon="5.38433">
        <ele>244.89</ele>
        <time>2020-08-10T07:31:54.000Z</time>
      </trkpt>
      <trkpt lat="45.16193" lon="5.38419">
        <ele>243.86</ele>
        <time>2020-08-10T07:31:59.000Z</time>
      </trkpt>
      <trkpt lat="45.16164" lon="5.38408">
        <ele>246.65</ele>
        <time>2020-08-10T07:32:04.000Z</time>
      </trkpt>
      <trkpt lat="45.16142" lon="5.38394">
        <ele>249.25</ele>
        <time>2020-08-10T07:32:09.000Z</time>
      </trkpt>
      <trkpt lat="45.16118" lon="5.38377">
        <ele>253.2</ele>
        <time>2020-08-10T07:32:14.000Z</time>
      </trkpt>
      <trkpt lat="45.16097" lon="5.38364">
        <ele>254.5</ele>
        <time>2020-08-10T07:32:19.000Z</time>
      </trkpt>
      <trkpt lat="45.16074" lon="5.38347">
        <ele>258.55</ele>
        <time>2020-08-10T07:32:24.000Z</time>
      </trkpt>
      <trkpt lat="45.16044" lon="5.38339">
        <ele>259.27</ele>
        <time>2020-08-10T07:32:29.000Z</time>
      </trkpt>
      <trkpt lat="45.16026" lon="5.38328">
        <ele>256.25</ele>
        <time>2020-08-10T07:32:34.000Z</time>
      </trkpt>
      <trkpt lat="45.15997" lon="5.38326">
        <ele>255.75</ele>
        <time>2020-08-10T07:32:39.000Z</time>
      </trkpt>
      <trkpt lat="45.15977" lon="5.38311">
        <ele>251.8</ele>
        <time>2020-08-10T07:32:44.000Z</time>
      </trkpt>
      <trkpt lat="45.15954" lon="5.38295">
        <ele>257.21</ele>
        <time>2020-08-10T07:32:49.000Z</time>
      </trkpt>
      <trkpt lat="45.15931" lon="5.38282">
        <ele>257.26</ele>
        <time>2020-08-10T07:32:54.000Z</time>
      </trkpt>
      <trkpt lat="45.15908" lon="5.38266">
        <ele>261.76</ele>
        <time>2020-08-10T07:32:59.000Z</time>
      </trkpt>
      <trkpt lat="45.15883" lon="5.38253">
        <ele>265.17</ele>
        <time>2020-08-10T07:33:04.000Z</time>
      </trkpt>
      <trkpt lat="45.15859" lon="5.38243">
        <ele>264.14</ele>
        <time>2020-08-10T07:33:09.000Z</time>
      </trkpt>
      <trkpt lat="45.15832" lon="5.38229">
        <ele>263.54</ele>
        <time>2020-08-10T07:33:14.000Z</time>
      </trkpt>
      <trkpt lat="45.15814" lon="5.38216">
        <ele>263.31</ele>
        <time>2020-08-10T07:33:19.000Z</time>
      </trkpt>
      <trkpt lat="45.15787" lon="5.38205">
        <ele>262.32</ele>
        <time>2020-08-10T07:33:24.000Z</time>
      </trkpt>
      <trkpt lat="45.15763" lon="5.3819">
        <ele>258.83</ele>
        <time>2020-08-10T07:33:29.000Z</time>
      </trkpt>
      <trkpt lat="45.1574" lon="5.38179">
        <ele>260.36</ele>
        <time>2020-08-10T07:33:34.000Z</time>
      </trkpt>
      <trkpt lat="45.15716" lon="5.3816">
        <ele>259.29</ele>
        <time>2020-08-10T07:33:39.000Z</time>
      </trkpt>
      <trkpt lat="45.15689" lon="5.38153">
        <ele>257.67</ele>
        <time>2020-08-10T07:33:44.000Z</time>
      </trkpt>
      <trkpt lat="45.15666" lon="5.38139">
        <ele>255.82</ele>
        <time>2020-08-10T07:33:49.000Z</time>
      </trkpt>
      <trkpt lat="45.15642" lon="5.38125">
        <ele>254.44</ele>
        <time>2020-08-10T07:33:54.000Z</time>
      </trkpt>
      <trkpt lat="45.15621" lon="5.3811">
        <ele>253.06</ele>
        <time>2020-08-10T07:33:59.000Z</time>
      </trkpt>
      <trkpt lat="45.15599" lon="5.38093">
        <ele>252.58</ele>
        <time>2020-08-10T07:34:04.000Z</time>
      </trkpt>
      <trkpt lat="45.15572" lon="5.38084">
        <ele>253.6</ele>
        <time>2020-08-10T07:34:09.000Z</time>
      </trkpt>
      <trkpt lat="45.15544" lon="5.3807">
        <ele>253.26</ele>
        <time>2020-08-10T07:34:14.000Z</time>
      </trkpt>
      <trkpt lat="45.15518" lon="5.38058">
        <ele>261.64</ele>
        <time>2020-08-10T07:34:19.000Z</time>
      </trkpt>
      <trkpt lat="45.15493" lon="5.38045">
        <ele>260.62</ele>
        <time>2020-08-10T07:34:24.000Z</time>
      </trkpt>
      <trkpt lat="45.15471" lon="5.3803">
        <ele>257.87</ele>
        <time>2020-08-10T07:34:29.000Z</time>
      </trkpt>
      <trkpt lat="45.15452" lon="5.3802">
        <ele>259.26</ele>
        <time>2020-08-10T07:34:34.000Z</time>
      </trkpt>
      <trkpt lat="45.15428" lon="5.38008">
        <ele>260.67</ele>
        <time>2020-08-10T07:34:39.000Z</time>
      </trkpt>
      <trkpt lat="45.15411" lon="5.37998">
        <ele>263.88</ele>
        <time>2020-08-10T07:34:44.000Z</time>
      </trkpt>
      <trkpt lat="45.15401" lon="5.37993">
        <ele>260.61</ele>
        <time>2020-08-10T07:34:50.000Z</time>
      </trkpt>
      <trkpt lat="45.15386" lon="5.37994">
        <ele>257.18</ele>
        <time>2020-08-10T07:34:55.000Z</time>
      </trkpt>
      <trkpt lat="45.15371" lon="5.37983">
        <ele>255.22</ele>
        <time>2020-08-10T07:35:00.000Z</time>
      </trkpt>
      <trkpt lat="45.15352" lon="5.37967">
        <ele>257.41</ele>
        <time>2020-08-10T07:35:05.000Z</time>
      </trkpt>
      <trkpt lat="45.15332" lon="5.3795">
        <ele>256.44</ele>
        <time>2020-08-10T07:35:10.000Z</time>
      </trkpt>
      <trkpt lat="45.15308" lon="5.37939">
        <ele>257.58</ele>
        <time>2020-08-10T07:35:15.000Z</time>
      </trkpt>
      <trkpt lat="45.1528" lon="5.37922">
        <ele>257.11</ele>
        <time>2020-08-10T07:35:20.000Z</time>
      </trkpt>
      <trkpt lat="45.15253" lon="5.37909">
        <ele>255.18</ele>
        <time>2020-08-10T07:35:25.000Z</time>
      </trkpt>
      <trkpt lat="45.15224" lon="5.37889">
        <ele>256.7</ele>
        <time>2020-08-10T07:35:30.000Z</time>
      </trkpt>
      <trkpt lat="45.15198" lon="5.3787">
        <ele>254.9</ele>
        <time>2020-08-10T07:35:35.000Z</time>
      </trkpt>
      <trkpt lat="45.15166" lon="5.37855">
        <ele>259.26</ele>
        <time>2020-08-10T07:35:40.000Z</time>
      </trkpt>
      <trkpt lat="45.15137" lon="5.37832">
        <ele>256.58</ele>
        <time>2020-08-10T07:35:45.000Z</time>
      </trkpt>
      <trkpt lat="45.1511" lon="5.37816">
        <ele>257.28</ele>
        <time>2020-08-10T07:35:50.000Z</time>
      </trkpt>
      <trkpt lat="45.15081" lon="5.37798">
        <ele>256.23</ele>
        <time>2020-08-10T07:35:55.000Z</time>
      </trkpt>
      <trkpt lat="45.15047" lon="5.37781">
        <ele>258.18</ele>
        <time>2020-08-10T07:36:00.000Z</time>
      </trkpt>
      <trkpt lat="45.15019" lon="5.37759">
        <ele>258.28</ele>
        <time>2020-08-10T07:36:05.000Z</time>
      </trkpt>
      <trkpt lat="45.14995" lon="5.37734">
        <ele>255.19</ele>
        <time>2020-08-10T07:36:10.000Z</time>
      </trkpt>
      <trkpt lat="45.14968" lon="5.37714">
        <ele>255.15</ele>
        <time>2020-08-10T07:36:15.000Z</time>
      </trkpt>
      <trkpt lat="45.14943" lon="5.37687">
        <ele>257.27</ele>
        <time>2020-08-10T07:36:20.000Z</time>
      </trkpt>
      <trkpt lat="45.14917" lon="5.37661">
        <ele>257.07</ele>
        <time>2020-08-10T07:36:25.000Z</time>
      </trkpt>
      <trkpt lat="45.14894" lon="5.37637">
        <ele>257.43</ele>
        <time>2020-08-10T07:36:30.000Z</time>
      </trkpt>
      <trkpt lat="45.14872" lon="5.37622">
        <ele>259.91</ele>
        <time>2020-08-10T07:36:35.000Z</time>
      </trkpt>
      <trkpt lat="45.14845" lon="5.37616">
        <ele>261.39</ele>
        <time>2020-08-10T07:36:40.000Z</time>
      </trkpt>
      <trkpt lat="45.1483" lon="5.37635">
        <ele>261.57</ele>
        <time>2020-08-10T07:36:45.000Z</time>
      </trkpt>
      <trkpt lat="45.14817" lon="5.37661">
        <ele>261.11</ele>
        <time>2020-08-10T07:36:50.000Z</time>
      </trkpt>
      <trkpt lat="45.14805" lon="5.37684">
        <ele>259.82</ele>
        <time>2020-08-10T07:36:55.000Z</time>
      </trkpt>
      <trkpt lat="45.14795" lon="5.37703">
        <ele>258.85</ele>
        <time>2020-08-10T07:37:00.000Z</time>
      </trkpt>
      <trkpt lat="45.14794" lon="5.37718">
        <ele>254.86</ele>
        <time>2020-08-10T07:37:05.000Z</time>
      </trkpt>
      <trkpt lat="45.14793" lon="5.37732">
        <ele>252.5</ele>
        <time>2020-08-10T07:37:31.000Z</time>
      </trkpt>
      <trkpt lat="45.14782" lon="5.37728">
        <ele>256.78</ele>
        <time>2020-08-10T07:38:26.000Z</time>
      </trkpt>
      <trkpt lat="45.14764" lon="5.37709">
        <ele>260.53</ele>
        <time>2020-08-10T07:38:31.000Z</time>
      </trkpt>
      <trkpt lat="45.14735" lon="5.37715">
        <ele>258.93</ele>
        <time>2020-08-10T07:38:36.000Z</time>
      </trkpt>
      <trkpt lat="45.14717" lon="5.37728">
        <ele>257.86</ele>
        <time>2020-08-10T07:38:41.000Z</time>
      </trkpt>
      <trkpt lat="45.14707" lon="5.37731">
        <ele>263.04</ele>
        <time>2020-08-10T07:38:47.000Z</time>
      </trkpt>
      <trkpt lat="45.14698" lon="5.37724">
        <ele>259.34</ele>
        <time>2020-08-10T07:38:52.000Z</time>
      </trkpt>
      <trkpt lat="45.14689" lon="5.3772">
        <ele>256.51</ele>
        <time>2020-08-10T07:38:58.000Z</time>
      </trkpt>
      <trkpt lat="45.14676" lon="5.37707">
        <ele>258.63</ele>
        <time>2020-08-10T07:39:03.000Z</time>
      </trkpt>
      <trkpt lat="45.14658" lon="5.37697">
        <ele>260.25</ele>
        <time>2020-08-10T07:39:08.000Z</time>
      </trkpt>
      <trkpt lat="45.14642" lon="5.37685">
        <ele>262.24</ele>
        <time>2020-08-10T07:39:13.000Z</time>
      </trkpt>
      <trkpt lat="45.14626" lon="5.37676">
        <ele>260.57</ele>
        <time>2020-08-10T07:39:18.000Z</time>
      </trkpt>
      <trkpt lat="45.14609" lon="5.37671">
        <ele>260.04</ele>
        <time>2020-08-10T07:39:23.000Z</time>
      </trkpt>
      <trkpt lat="45.14593" lon="5.37663">
        <ele>263.74</ele>
        <time>2020-08-10T07:39:28.000Z</time>
      </trkpt>
      <trkpt lat="45.14572" lon="5.37655">
        <ele>261.31</ele>
        <time>2020-08-10T07:39:33.000Z</time>
      </trkpt>
      <trkpt lat="45.14552" lon="5.37643">
        <ele>262.72</ele>
        <time>2020-08-10T07:39:38.000Z</time>
      </trkpt>
      <trkpt lat="45.14534" lon="5.37632">
        <ele>260.41</ele>
        <time>2020-08-10T07:39:43.000Z</time>
      </trkpt>
      <trkpt lat="45.14517" lon="5.37625">
        <ele>259.7</ele>
        <time>2020-08-10T07:39:48.000Z</time>
      </trkpt>
      <trkpt lat="45.14502" lon="5.37619">
        <ele>257.94</ele>
        <time>2020-08-10T07:39:53.000Z</time>
      </trkpt>
      <trkpt lat="45.14484" lon="5.37612">
        <ele>258.42</ele>
        <time>2020-08-10T07:39:58.000Z</time>
      </trkpt>
      <trkpt lat="45.14463" lon="5.37603">
        <ele>256.56</ele>
        <time>2020-08-10T07:40:03.000Z</time>
      </trkpt>
      <trkpt lat="45.14449" lon="5.37611">
        <ele>258.82</ele>
        <time>2020-08-10T07:40:08.000Z</time>
      </trkpt>
      <trkpt lat="45.14441" lon="5.37628">
        <ele>260.99</ele>
        <time>2020-08-10T07:40:13.000Z</time>
      </trkpt>
      <trkpt lat="45.14433" lon="5.37645">
        <ele>262.32</ele>
        <time>2020-08-10T07:40:18.000Z</time>
      </trkpt>
      <trkpt lat="45.14423" lon="5.37645">
        <ele>260.9</ele>
        <time>2020-08-10T07:40:23.000Z</time>
      </trkpt>
      <trkpt lat="45.14406" lon="5.37629">
        <ele>264</ele>
        <time>2020-08-10T07:40:28.000Z</time>
      </trkpt>
      <trkpt lat="45.14394" lon="5.37604">
        <ele>265.3</ele>
        <time>2020-08-10T07:40:33.000Z</time>
      </trkpt>
      <trkpt lat="45.14381" lon="5.37582">
        <ele>266.23</ele>
        <time>2020-08-10T07:40:38.000Z</time>
      </trkpt>
      <trkpt lat="45.14368" lon="5.37569">
        <ele>265.91</ele>
        <time>2020-08-10T07:40:43.000Z</time>
      </trkpt>
      <trkpt lat="45.14356" lon="5.37555">
        <ele>265.27</ele>
        <time>2020-08-10T07:40:48.000Z</time>
      </trkpt>
      <trkpt lat="45.14341" lon="5.37536">
        <ele>267.18</ele>
        <time>2020-08-10T07:40:53.000Z</time>
      </trkpt>
      <trkpt lat="45.14333" lon="5.37514">
        <ele>266.26</ele>
        <time>2020-08-10T07:40:58.000Z</time>
      </trkpt>
      <trkpt lat="45.14329" lon="5.37492">
        <ele>268.2</ele>
        <time>2020-08-10T07:41:03.000Z</time>
      </trkpt>
      <trkpt lat="45.14327" lon="5.3747">
        <ele>270.35</ele>
        <time>2020-08-10T07:41:08.000Z</time>
      </trkpt>
      <trkpt lat="45.1432" lon="5.37452">
        <ele>272.15</ele>
        <time>2020-08-10T07:41:13.000Z</time>
      </trkpt>
      <trkpt lat="45.14309" lon="5.37438">
        <ele>271.21</ele>
        <time>2020-08-10T07:41:18.000Z</time>
      </trkpt>
      <trkpt lat="45.14293" lon="5.37434">
        <ele>272.65</ele>
        <time>2020-08-10T07:41:23.000Z</time>
      </trkpt>
      <trkpt lat="45.14273" lon="5.37423">
        <ele>273.23</ele>
        <time>2020-08-10T07:41:28.000Z</time>
      </trkpt>
      <trkpt lat="45.14252" lon="5.37411">
        <ele>272.22</ele>
        <time>2020-08-10T07:41:33.000Z</time>
      </trkpt>
      <trkpt lat="45.14243" lon="5.37396">
        <ele>269.81</ele>
        <time>2020-08-10T07:41:38.000Z</time>
      </trkpt>
      <trkpt lat="45.14241" lon="5.37371">
        <ele>268.73</ele>
        <time>2020-08-10T07:41:43.000Z</time>
      </trkpt>
      <trkpt lat="45.14232" lon="5.37345">
        <ele>267.89</ele>
        <time>2020-08-10T07:41:48.000Z</time>
      </trkpt>
      <trkpt lat="45.14216" lon="5.37316">
        <ele>266.53</ele>
        <time>2020-08-10T07:41:53.000Z</time>
      </trkpt>
      <trkpt lat="45.14203" lon="5.37312">
        <ele>267.53</ele>
        <time>2020-08-10T07:41:58.000Z</time>
      </trkpt>
      <trkpt lat="45.14197" lon="5.37301">
        <ele>268.53</ele>
        <time>2020-08-10T07:42:03.000Z</time>
      </trkpt>
      <trkpt lat="45.14196" lon="5.37258">
        <ele>268.6</ele>
        <time>2020-08-10T07:42:08.000Z</time>
      </trkpt>
      <trkpt lat="45.14184" lon="5.37247">
        <ele>269.61</ele>
        <time>2020-08-10T07:42:13.000Z</time>
      </trkpt>
      <trkpt lat="45.14174" lon="5.37227">
        <ele>270.02</ele>
        <time>2020-08-10T07:42:18.000Z</time>
      </trkpt>
      <trkpt lat="45.14159" lon="5.37211">
        <ele>270.45</ele>
        <time>2020-08-10T07:42:23.000Z</time>
      </trkpt>
      <trkpt lat="45.14148" lon="5.37197">
        <ele>273.23</ele>
        <time>2020-08-10T07:42:28.000Z</time>
      </trkpt>
      <trkpt lat="45.14135" lon="5.37183">
        <ele>270</ele>
        <time>2020-08-10T07:42:33.000Z</time>
      </trkpt>
      <trkpt lat="45.14121" lon="5.37167">
        <ele>271.33</ele>
        <time>2020-08-10T07:42:38.000Z</time>
      </trkpt>
      <trkpt lat="45.14103" lon="5.37153">
        <ele>274.38</ele>
        <time>2020-08-10T07:42:43.000Z</time>
      </trkpt>
      <trkpt lat="45.14082" lon="5.37137">
        <ele>283.59</ele>
        <time>2020-08-10T07:42:48.000Z</time>
      </trkpt>
      <trkpt lat="45.14068" lon="5.37115">
        <ele>290.38</ele>
        <time>2020-08-10T07:42:53.000Z</time>
      </trkpt>
      <trkpt lat="45.14058" lon="5.37106">
        <ele>289.24</ele>
        <time>2020-08-10T07:42:58.000Z</time>
      </trkpt>
      <trkpt lat="45.14046" lon="5.371">
        <ele>291.46</ele>
        <time>2020-08-10T07:43:03.000Z</time>
      </trkpt>
      <trkpt lat="45.14028" lon="5.371">
        <ele>292.31</ele>
        <time>2020-08-10T07:43:08.000Z</time>
      </trkpt>
      <trkpt lat="45.14008" lon="5.37105">
        <ele>293.64</ele>
        <time>2020-08-10T07:43:13.000Z</time>
      </trkpt>
      <trkpt lat="45.13989" lon="5.37124">
        <ele>293.86</ele>
        <time>2020-08-10T07:43:18.000Z</time>
      </trkpt>
      <trkpt lat="45.13976" lon="5.37144">
        <ele>295.13</ele>
        <time>2020-08-10T07:43:23.000Z</time>
      </trkpt>
      <trkpt lat="45.13966" lon="5.37159">
        <ele>295.15</ele>
        <time>2020-08-10T07:43:28.000Z</time>
      </trkpt>
      <trkpt lat="45.13951" lon="5.37182">
        <ele>293.24</ele>
        <time>2020-08-10T07:43:33.000Z</time>
      </trkpt>
      <trkpt lat="45.13937" lon="5.372">
        <ele>291.64</ele>
        <time>2020-08-10T07:43:38.000Z</time>
      </trkpt>
      <trkpt lat="45.13926" lon="5.37217">
        <ele>291.51</ele>
        <time>2020-08-10T07:43:43.000Z</time>
      </trkpt>
      <trkpt lat="45.13922" lon="5.37241">
        <ele>294.03</ele>
        <time>2020-08-10T07:43:48.000Z</time>
      </trkpt>
      <trkpt lat="45.13914" lon="5.37263">
        <ele>291.33</ele>
        <time>2020-08-10T07:43:53.000Z</time>
      </trkpt>
      <trkpt lat="45.13909" lon="5.37281">
        <ele>286.94</ele>
        <time>2020-08-10T07:43:58.000Z</time>
      </trkpt>
      <trkpt lat="45.13901" lon="5.37304">
        <ele>286.61</ele>
        <time>2020-08-10T07:44:03.000Z</time>
      </trkpt>
      <trkpt lat="45.13895" lon="5.37328">
        <ele>289.96</ele>
        <time>2020-08-10T07:44:08.000Z</time>
      </trkpt>
      <trkpt lat="45.1389" lon="5.37349">
        <ele>296.3</ele>
        <time>2020-08-10T07:44:13.000Z</time>
      </trkpt>
      <trkpt lat="45.13886" lon="5.37368">
        <ele>300.65</ele>
        <time>2020-08-10T07:44:18.000Z</time>
      </trkpt>
      <trkpt lat="45.13877" lon="5.37382">
        <ele>304.08</ele>
        <time>2020-08-10T07:44:23.000Z</time>
      </trkpt>
      <trkpt lat="45.13861" lon="5.37392">
        <ele>307.89</ele>
        <time>2020-08-10T07:44:28.000Z</time>
      </trkpt>
      <trkpt lat="45.13844" lon="5.37398">
        <ele>310.99</ele>
        <time>2020-08-10T07:44:33.000Z</time>
      </trkpt>
      <trkpt lat="45.13828" lon="5.374">
        <ele>317.17</ele>
        <time>2020-08-10T07:44:38.000Z</time>
      </trkpt>
      <trkpt lat="45.13809" lon="5.374">
        <ele>319.88</ele>
        <time>2020-08-10T07:44:43.000Z</time>
      </trkpt>
      <trkpt lat="45.13792" lon="5.37406">
        <ele>320.95</ele>
        <time>2020-08-10T07:44:48.000Z</time>
      </trkpt>
      <trkpt lat="45.13777" lon="5.37414">
        <ele>321.65</ele>
        <time>2020-08-10T07:44:53.000Z</time>
      </trkpt>
      <trkpt lat="45.13768" lon="5.37436">
        <ele>321.67</ele>
        <time>2020-08-10T07:44:58.000Z</time>
      </trkpt>
      <trkpt lat="45.13759" lon="5.37455">
        <ele>323.02</ele>
        <time>2020-08-10T07:45:03.000Z</time>
      </trkpt>
      <trkpt lat="45.13751" lon="5.37471">
        <ele>321.66</ele>
        <time>2020-08-10T07:45:08.000Z</time>
      </trkpt>
      <trkpt lat="45.13747" lon="5.37484">
        <ele>321.74</ele>
        <time>2020-08-10T07:45:13.000Z</time>
      </trkpt>
      <trkpt lat="45.13732" lon="5.37498">
        <ele>323</ele>
        <time>2020-08-10T07:45:18.000Z</time>
      </trkpt>
      <trkpt lat="45.13715" lon="5.37505">
        <ele>325.15</ele>
        <time>2020-08-10T07:45:23.000Z</time>
      </trkpt>
      <trkpt lat="45.13695" lon="5.37505">
        <ele>326.06</ele>
        <time>2020-08-10T07:45:28.000Z</time>
      </trkpt>
      <trkpt lat="45.13673" lon="5.37496">
        <ele>331.26</ele>
        <time>2020-08-10T07:45:33.000Z</time>
      </trkpt>
      <trkpt lat="45.13653" lon="5.37487">
        <ele>332.39</ele>
        <time>2020-08-10T07:45:38.000Z</time>
      </trkpt>
      <trkpt lat="45.13631" lon="5.37483">
        <ele>333.58</ele>
        <time>2020-08-10T07:45:43.000Z</time>
      </trkpt>
      <trkpt lat="45.1361" lon="5.3748">
        <ele>329.6</ele>
        <time>2020-08-10T07:45:48.000Z</time>
      </trkpt>
      <trkpt lat="45.13586" lon="5.3748">
        <ele>335.55</ele>
        <time>2020-08-10T07:45:53.000Z</time>
      </trkpt>
      <trkpt lat="45.13565" lon="5.3748">
        <ele>336.49</ele>
        <time>2020-08-10T07:45:58.000Z</time>
      </trkpt>
      <trkpt lat="45.13548" lon="5.37477">
        <ele>337.35</ele>
        <time>2020-08-10T07:46:03.000Z</time>
      </trkpt>
      <trkpt lat="45.13529" lon="5.37473">
        <ele>337.67</ele>
        <time>2020-08-10T07:46:08.000Z</time>
      </trkpt>
      <trkpt lat="45.13512" lon="5.3746">
        <ele>339.26</ele>
        <time>2020-08-10T07:46:13.000Z</time>
      </trkpt>
      <trkpt lat="45.13493" lon="5.37445">
        <ele>336.79</ele>
        <time>2020-08-10T07:46:18.000Z</time>
      </trkpt>
      <trkpt lat="45.13475" lon="5.37435">
        <ele>339.03</ele>
        <time>2020-08-10T07:46:23.000Z</time>
      </trkpt>
      <trkpt lat="45.13457" lon="5.37424">
        <ele>336.29</ele>
        <time>2020-08-10T07:46:28.000Z</time>
      </trkpt>
      <trkpt lat="45.13442" lon="5.37412">
        <ele>337.18</ele>
        <time>2020-08-10T07:46:33.000Z</time>
      </trkpt>
      <trkpt lat="45.13423" lon="5.37405">
        <ele>336.8</ele>
        <time>2020-08-10T07:46:38.000Z</time>
      </trkpt>
      <trkpt lat="45.13407" lon="5.37394">
        <ele>337.67</ele>
        <time>2020-08-10T07:46:43.000Z</time>
      </trkpt>
      <trkpt lat="45.13392" lon="5.37384">
        <ele>335.13</ele>
        <time>2020-08-10T07:46:48.000Z</time>
      </trkpt>
      <trkpt lat="45.13374" lon="5.37377">
        <ele>336.67</ele>
        <time>2020-08-10T07:46:53.000Z</time>
      </trkpt>
      <trkpt lat="45.13359" lon="5.3737">
        <ele>335.31</ele>
        <time>2020-08-10T07:46:58.000Z</time>
      </trkpt>
      <trkpt lat="45.13345" lon="5.37368">
        <ele>335.69</ele>
        <time>2020-08-10T07:47:03.000Z</time>
      </trkpt>
      <trkpt lat="45.13325" lon="5.3736">
        <ele>334.86</ele>
        <time>2020-08-10T07:47:08.000Z</time>
      </trkpt>
      <trkpt lat="45.133" lon="5.37339">
        <ele>335.35</ele>
        <time>2020-08-10T07:47:13.000Z</time>
      </trkpt>
      <trkpt lat="45.13275" lon="5.37345">
        <ele>336.22</ele>
        <time>2020-08-10T07:47:18.000Z</time>
      </trkpt>
      <trkpt lat="45.13256" lon="5.37369">
        <ele>335.58</ele>
        <time>2020-08-10T07:47:23.000Z</time>
      </trkpt>
      <trkpt lat="45.13233" lon="5.37411">
        <ele>335.09</ele>
        <time>2020-08-10T07:47:28.000Z</time>
      </trkpt>
      <trkpt lat="45.13208" lon="5.37442">
        <ele>333.17</ele>
        <time>2020-08-10T07:47:33.000Z</time>
      </trkpt>
      <trkpt lat="45.13184" lon="5.3742">
        <ele>329.09</ele>
        <time>2020-08-10T07:47:38.000Z</time>
      </trkpt>
      <trkpt lat="45.1318" lon="5.37393">
        <ele>328.46</ele>
        <time>2020-08-10T07:47:43.000Z</time>
      </trkpt>
      <trkpt lat="45.13192" lon="5.3736">
        <ele>326.67</ele>
        <time>2020-08-10T07:47:48.000Z</time>
      </trkpt>
      <trkpt lat="45.13184" lon="5.37331">
        <ele>326.34</ele>
        <time>2020-08-10T07:47:53.000Z</time>
      </trkpt>
      <trkpt lat="45.1319" lon="5.37291">
        <ele>325.15</ele>
        <time>2020-08-10T07:47:58.000Z</time>
      </trkpt>
      <trkpt lat="45.132" lon="5.37273">
        <ele>323.3</ele>
        <time>2020-08-10T07:48:03.000Z</time>
      </trkpt>
      <trkpt lat="45.13226" lon="5.37259">
        <ele>320.46</ele>
        <time>2020-08-10T07:48:08.000Z</time>
      </trkpt>
      <trkpt lat="45.13245" lon="5.3725">
        <ele>321.1</ele>
        <time>2020-08-10T07:48:13.000Z</time>
      </trkpt>
      <trkpt lat="45.1326" lon="5.37236">
        <ele>322.35</ele>
        <time>2020-08-10T07:48:18.000Z</time>
      </trkpt>
      <trkpt lat="45.13269" lon="5.372">
        <ele>332.48</ele>
        <time>2020-08-10T07:48:23.000Z</time>
      </trkpt>
      <trkpt lat="45.13253" lon="5.37169">
        <ele>336.37</ele>
        <time>2020-08-10T07:48:28.000Z</time>
      </trkpt>
      <trkpt lat="45.13231" lon="5.37151">
        <ele>338.6</ele>
        <time>2020-08-10T07:48:33.000Z</time>
      </trkpt>
      <trkpt lat="45.13215" lon="5.37127">
        <ele>336.08</ele>
        <time>2020-08-10T07:48:38.000Z</time>
      </trkpt>
      <trkpt lat="45.13198" lon="5.37097">
        <ele>334.46</ele>
        <time>2020-08-10T07:48:43.000Z</time>
      </trkpt>
      <trkpt lat="45.13176" lon="5.37075">
        <ele>335.07</ele>
        <time>2020-08-10T07:48:48.000Z</time>
      </trkpt>
      <trkpt lat="45.13163" lon="5.37063">
        <ele>334.68</ele>
        <time>2020-08-10T07:48:53.000Z</time>
      </trkpt>
      <trkpt lat="45.13147" lon="5.37036">
        <ele>335.12</ele>
        <time>2020-08-10T07:48:58.000Z</time>
      </trkpt>
      <trkpt lat="45.13123" lon="5.37022">
        <ele>335.26</ele>
        <time>2020-08-10T07:49:03.000Z</time>
      </trkpt>
      <trkpt lat="45.13108" lon="5.37004">
        <ele>342.68</ele>
        <time>2020-08-10T07:49:08.000Z</time>
      </trkpt>
      <trkpt lat="45.13091" lon="5.36976">
        <ele>343.86</ele>
        <time>2020-08-10T07:49:13.000Z</time>
      </trkpt>
      <trkpt lat="45.13076" lon="5.36952">
        <ele>339.61</ele>
        <time>2020-08-10T07:49:18.000Z</time>
      </trkpt>
      <trkpt lat="45.13057" lon="5.36922">
        <ele>338.55</ele>
        <time>2020-08-10T07:49:23.000Z</time>
      </trkpt>
      <trkpt lat="45.13033" lon="5.36894">
        <ele>338.26</ele>
        <time>2020-08-10T07:49:28.000Z</time>
      </trkpt>
      <trkpt lat="45.13012" lon="5.36871">
        <ele>339.24</ele>
        <time>2020-08-10T07:49:33.000Z</time>
      </trkpt>
      <trkpt lat="45.1299" lon="5.36839">
        <ele>340.97</ele>
        <time>2020-08-10T07:49:38.000Z</time>
      </trkpt>
      <trkpt lat="45.12963" lon="5.36811">
        <ele>345.47</ele>
        <time>2020-08-10T07:49:43.000Z</time>
      </trkpt>
      <trkpt lat="45.12938" lon="5.36789">
        <ele>346.94</ele>
        <time>2020-08-10T07:49:48.000Z</time>
      </trkpt>
      <trkpt lat="45.12915" lon="5.36765">
        <ele>348.26</ele>
        <time>2020-08-10T07:49:53.000Z</time>
      </trkpt>
      <trkpt lat="45.12898" lon="5.36743">
        <ele>347.21</ele>
        <time>2020-08-10T07:49:58.000Z</time>
      </trkpt>
      <trkpt lat="45.12869" lon="5.36729">
        <ele>346.3</ele>
        <time>2020-08-10T07:50:03.000Z</time>
      </trkpt>
      <trkpt lat="45.12843" lon="5.36715">
        <ele>346.16</ele>
        <time>2020-08-10T07:50:08.000Z</time>
      </trkpt>
      <trkpt lat="45.1282" lon="5.36696">
        <ele>339.05</ele>
        <time>2020-08-10T07:50:13.000Z</time>
      </trkpt>
      <trkpt lat="45.12794" lon="5.3668">
        <ele>337.44</ele>
        <time>2020-08-10T07:50:18.000Z</time>
      </trkpt>
      <trkpt lat="45.12772" lon="5.36666">
        <ele>336.2</ele>
        <time>2020-08-10T07:50:23.000Z</time>
      </trkpt>
      <trkpt lat="45.12749" lon="5.36649">
        <ele>334.4</ele>
        <time>2020-08-10T07:50:28.000Z</time>
      </trkpt>
      <trkpt lat="45.12724" lon="5.36637">
        <ele>330.85</ele>
        <time>2020-08-10T07:50:33.000Z</time>
      </trkpt>
      <trkpt lat="45.12696" lon="5.36633">
        <ele>332.76</ele>
        <time>2020-08-10T07:50:38.000Z</time>
      </trkpt>
      <trkpt lat="45.12672" lon="5.36621">
        <ele>334.52</ele>
        <time>2020-08-10T07:50:43.000Z</time>
      </trkpt>
      <trkpt lat="45.12652" lon="5.36606">
        <ele>332.68</ele>
        <time>2020-08-10T07:50:48.000Z</time>
      </trkpt>
      <trkpt lat="45.12633" lon="5.36599">
        <ele>339.26</ele>
        <time>2020-08-10T07:50:53.000Z</time>
      </trkpt>
      <trkpt lat="45.12619" lon="5.36591">
        <ele>339.15</ele>
        <time>2020-08-10T07:50:58.000Z</time>
      </trkpt>
      <trkpt lat="45.12605" lon="5.36587">
        <ele>337.12</ele>
        <time>2020-08-10T07:51:03.000Z</time>
      </trkpt>
      <trkpt lat="45.12595" lon="5.36581">
        <ele>331.51</ele>
        <time>2020-08-10T07:53:32.000Z</time>
      </trkpt>
      <trkpt lat="45.12574" lon="5.36578">
        <ele>340.34</ele>
        <time>2020-08-10T07:53:37.000Z</time>
      </trkpt>
      <trkpt lat="45.12554" lon="5.36577">
        <ele>344.63</ele>
        <time>2020-08-10T07:53:42.000Z</time>
      </trkpt>
      <trkpt lat="45.12534" lon="5.36577">
        <ele>345.68</ele>
        <time>2020-08-10T07:53:47.000Z</time>
      </trkpt>
      <trkpt lat="45.12516" lon="5.36575">
        <ele>346.92</ele>
        <time>2020-08-10T07:53:52.000Z</time>
      </trkpt>
      <trkpt lat="45.12495" lon="5.36574">
        <ele>345.39</ele>
        <time>2020-08-10T07:53:57.000Z</time>
      </trkpt>
      <trkpt lat="45.12473" lon="5.36576">
        <ele>344.64</ele>
        <time>2020-08-10T07:54:02.000Z</time>
      </trkpt>
      <trkpt lat="45.12454" lon="5.36572">
        <ele>346.9</ele>
        <time>2020-08-10T07:54:07.000Z</time>
      </trkpt>
      <trkpt lat="45.12434" lon="5.36572">
        <ele>347.87</ele>
        <time>2020-08-10T07:54:12.000Z</time>
      </trkpt>
      <trkpt lat="45.12415" lon="5.36569">
        <ele>346.82</ele>
        <time>2020-08-10T07:54:17.000Z</time>
      </trkpt>
      <trkpt lat="45.12398" lon="5.36564">
        <ele>349.16</ele>
        <time>2020-08-10T07:54:22.000Z</time>
      </trkpt>
      <trkpt lat="45.12384" lon="5.36556">
        <ele>353.51</ele>
        <time>2020-08-10T07:54:27.000Z</time>
      </trkpt>
      <trkpt lat="45.12366" lon="5.36541">
        <ele>353.38</ele>
        <time>2020-08-10T07:54:32.000Z</time>
      </trkpt>
      <trkpt lat="45.12348" lon="5.36522">
        <ele>352.84</ele>
        <time>2020-08-10T07:54:37.000Z</time>
      </trkpt>
      <trkpt lat="45.12341" lon="5.36492">
        <ele>352.98</ele>
        <time>2020-08-10T07:54:42.000Z</time>
      </trkpt>
      <trkpt lat="45.12332" lon="5.36464">
        <ele>352.6</ele>
        <time>2020-08-10T07:54:47.000Z</time>
      </trkpt>
      <trkpt lat="45.12317" lon="5.36445">
        <ele>353.15</ele>
        <time>2020-08-10T07:54:52.000Z</time>
      </trkpt>
      <trkpt lat="45.12307" lon="5.36425">
        <ele>353.07</ele>
        <time>2020-08-10T07:54:57.000Z</time>
      </trkpt>
      <trkpt lat="45.12295" lon="5.36418">
        <ele>353.62</ele>
        <time>2020-08-10T07:55:02.000Z</time>
      </trkpt>
      <trkpt lat="45.12278" lon="5.36409">
        <ele>351.12</ele>
        <time>2020-08-10T07:55:07.000Z</time>
      </trkpt>
      <trkpt lat="45.12265" lon="5.36398">
        <ele>352.03</ele>
        <time>2020-08-10T07:55:12.000Z</time>
      </trkpt>
      <trkpt lat="45.12252" lon="5.36385">
        <ele>352.1</ele>
        <time>2020-08-10T07:55:17.000Z</time>
      </trkpt>
      <trkpt lat="45.12238" lon="5.36376">
        <ele>355.79</ele>
        <time>2020-08-10T07:55:22.000Z</time>
      </trkpt>
      <trkpt lat="45.12228" lon="5.36364">
        <ele>361.8</ele>
        <time>2020-08-10T07:55:27.000Z</time>
      </trkpt>
      <trkpt lat="45.12221" lon="5.36338">
        <ele>359.77</ele>
        <time>2020-08-10T07:55:32.000Z</time>
      </trkpt>
      <trkpt lat="45.12213" lon="5.36315">
        <ele>359.36</ele>
        <time>2020-08-10T07:55:37.000Z</time>
      </trkpt>
      <trkpt lat="45.12202" lon="5.36294">
        <ele>362.38</ele>
        <time>2020-08-10T07:55:42.000Z</time>
      </trkpt>
      <trkpt lat="45.12185" lon="5.36272">
        <ele>366.5</ele>
        <time>2020-08-10T07:55:47.000Z</time>
      </trkpt>
      <trkpt lat="45.12167" lon="5.36245">
        <ele>366.87</ele>
        <time>2020-08-10T07:55:52.000Z</time>
      </trkpt>
      <trkpt lat="45.12157" lon="5.36229">
        <ele>367.95</ele>
        <time>2020-08-10T07:55:57.000Z</time>
      </trkpt>
      <trkpt lat="45.12147" lon="5.36213">
        <ele>368.25</ele>
        <time>2020-08-10T07:56:02.000Z</time>
      </trkpt>
      <trkpt lat="45.12139" lon="5.36192">
        <ele>367.03</ele>
        <time>2020-08-10T07:56:07.000Z</time>
      </trkpt>
      <trkpt lat="45.12125" lon="5.36173">
        <ele>371.15</ele>
        <time>2020-08-10T07:56:12.000Z</time>
      </trkpt>
      <trkpt lat="45.12111" lon="5.36157">
        <ele>372.4</ele>
        <time>2020-08-10T07:56:17.000Z</time>
      </trkpt>
      <trkpt lat="45.12101" lon="5.36159">
        <ele>370.34</ele>
        <time>2020-08-10T07:56:23.000Z</time>
      </trkpt>
      <trkpt lat="45.1209" lon="5.36171">
        <ele>370.42</ele>
        <time>2020-08-10T07:56:28.000Z</time>
      </trkpt>
      <trkpt lat="45.12079" lon="5.36176">
        <ele>375.39</ele>
        <time>2020-08-10T07:56:33.000Z</time>
      </trkpt>
      <trkpt lat="45.12066" lon="5.36188">
        <ele>372.53</ele>
        <time>2020-08-10T07:56:38.000Z</time>
      </trkpt>
      <trkpt lat="45.1206" lon="5.36213">
        <ele>375.85</ele>
        <time>2020-08-10T07:56:43.000Z</time>
      </trkpt>
      <trkpt lat="45.12059" lon="5.36232">
        <ele>379.01</ele>
        <time>2020-08-10T07:56:48.000Z</time>
      </trkpt>
      <trkpt lat="45.1206" lon="5.36217">
        <ele>381.02</ele>
        <time>2020-08-10T07:56:55.000Z</time>
      </trkpt>
      <trkpt lat="45.12057" lon="5.36231">
        <ele>377.13</ele>
        <time>2020-08-10T07:58:28.000Z</time>
      </trkpt>
      <trkpt lat="45.12056" lon="5.36256">
        <ele>375.85</ele>
        <time>2020-08-10T07:58:33.000Z</time>
      </trkpt>
      <trkpt lat="45.12053" lon="5.36279">
        <ele>370.44</ele>
        <time>2020-08-10T07:58:38.000Z</time>
      </trkpt>
      <trkpt lat="45.12057" lon="5.36303">
        <ele>373.95</ele>
        <time>2020-08-10T07:58:43.000Z</time>
      </trkpt>
      <trkpt lat="45.12061" lon="5.36325">
        <ele>374.56</ele>
        <time>2020-08-10T07:58:48.000Z</time>
      </trkpt>
      <trkpt lat="45.12064" lon="5.36339">
        <ele>381.67</ele>
        <time>2020-08-10T07:58:53.000Z</time>
      </trkpt>
      <trkpt lat="45.12058" lon="5.36349">
        <ele>384.19</ele>
        <time>2020-08-10T07:59:03.000Z</time>
      </trkpt>
      <trkpt lat="45.12057" lon="5.36366">
        <ele>379.97</ele>
        <time>2020-08-10T08:02:11.000Z</time>
      </trkpt>
      <trkpt lat="45.12059" lon="5.3639">
        <ele>380.97</ele>
        <time>2020-08-10T08:02:16.000Z</time>
      </trkpt>
      <trkpt lat="45.12059" lon="5.36414">
        <ele>380.06</ele>
        <time>2020-08-10T08:02:21.000Z</time>
      </trkpt>
      <trkpt lat="45.12056" lon="5.36436">
        <ele>382.23</ele>
        <time>2020-08-10T08:02:26.000Z</time>
      </trkpt>
      <trkpt lat="45.12049" lon="5.36458">
        <ele>384.89</ele>
        <time>2020-08-10T08:02:31.000Z</time>
      </trkpt>
      <trkpt lat="45.12042" lon="5.3648">
        <ele>383.21</ele>
        <time>2020-08-10T08:02:36.000Z</time>
      </trkpt>
      <trkpt lat="45.12039" lon="5.36506">
        <ele>385.37</ele>
        <time>2020-08-10T08:02:41.000Z</time>
      </trkpt>
      <trkpt lat="45.12039" lon="5.3653">
        <ele>384.87</ele>
        <time>2020-08-10T08:02:46.000Z</time>
      </trkpt>
      <trkpt lat="45.12042" lon="5.36555">
        <ele>384.22</ele>
        <time>2020-08-10T08:02:51.000Z</time>
      </trkpt>
      <trkpt lat="45.12042" lon="5.36578">
        <ele>387.87</ele>
        <time>2020-08-10T08:02:56.000Z</time>
      </trkpt>
      <trkpt lat="45.12031" lon="5.36577">
        <ele>391.03</ele>
        <time>2020-08-10T08:03:01.000Z</time>
      </trkpt>
      <trkpt lat="45.12022" lon="5.36564">
        <ele>391.44</ele>
        <time>2020-08-10T08:03:06.000Z</time>
      </trkpt>
      <trkpt lat="45.12012" lon="5.3655">
        <ele>389.29</ele>
        <time>2020-08-10T08:03:11.000Z</time>
      </trkpt>
      <trkpt lat="45.12001" lon="5.36535">
        <ele>391.46</ele>
        <time>2020-08-10T08:03:16.000Z</time>
      </trkpt>
      <trkpt lat="45.11989" lon="5.36519">
        <ele>391.31</ele>
        <time>2020-08-10T08:03:21.000Z</time>
      </trkpt>
      <trkpt lat="45.11981" lon="5.36506">
        <ele>392.04</ele>
        <time>2020-08-10T08:03:26.000Z</time>
      </trkpt>
      <trkpt lat="45.11969" lon="5.36488">
        <ele>391.46</ele>
        <time>2020-08-10T08:03:31.000Z</time>
      </trkpt>
      <trkpt lat="45.11958" lon="5.36473">
        <ele>393.62</ele>
        <time>2020-08-10T08:03:36.000Z</time>
      </trkpt>
      <trkpt lat="45.11944" lon="5.36456">
        <ele>396.23</ele>
        <time>2020-08-10T08:03:41.000Z</time>
      </trkpt>
      <trkpt lat="45.11924" lon="5.3645">
        <ele>400.46</ele>
        <time>2020-08-10T08:03:46.000Z</time>
      </trkpt>
      <trkpt lat="45.11905" lon="5.36444">
        <ele>402.36</ele>
        <time>2020-08-10T08:03:51.000Z</time>
      </trkpt>
      <trkpt lat="45.11887" lon="5.36442">
        <ele>402.63</ele>
        <time>2020-08-10T08:03:56.000Z</time>
      </trkpt>
      <trkpt lat="45.11872" lon="5.36436">
        <ele>404.73</ele>
        <time>2020-08-10T08:04:01.000Z</time>
      </trkpt>
      <trkpt lat="45.11857" lon="5.36427">
        <ele>406.33</ele>
        <time>2020-08-10T08:04:06.000Z</time>
      </trkpt>
      <trkpt lat="45.1184" lon="5.36421">
        <ele>410.64</ele>
        <time>2020-08-10T08:04:11.000Z</time>
      </trkpt>
      <trkpt lat="45.11825" lon="5.36417">
        <ele>409.54</ele>
        <time>2020-08-10T08:04:16.000Z</time>
      </trkpt>
      <trkpt lat="45.11811" lon="5.36413">
        <ele>409.94</ele>
        <time>2020-08-10T08:04:21.000Z</time>
      </trkpt>
      <trkpt lat="45.11796" lon="5.36407">
        <ele>411.12</ele>
        <time>2020-08-10T08:04:26.000Z</time>
      </trkpt>
      <trkpt lat="45.11781" lon="5.36401">
        <ele>411.47</ele>
        <time>2020-08-10T08:04:31.000Z</time>
      </trkpt>
      <trkpt lat="45.11765" lon="5.36397">
        <ele>413.06</ele>
        <time>2020-08-10T08:04:36.000Z</time>
      </trkpt>
      <trkpt lat="45.11747" lon="5.36394">
        <ele>413.87</ele>
        <time>2020-08-10T08:04:41.000Z</time>
      </trkpt>
      <trkpt lat="45.11727" lon="5.36394">
        <ele>414.18</ele>
        <time>2020-08-10T08:04:46.000Z</time>
      </trkpt>
      <trkpt lat="45.11711" lon="5.36391">
        <ele>414.61</ele>
        <time>2020-08-10T08:04:51.000Z</time>
      </trkpt>
      <trkpt lat="45.11697" lon="5.3639">
        <ele>418.52</ele>
        <time>2020-08-10T08:04:56.000Z</time>
      </trkpt>
      <trkpt lat="45.11679" lon="5.36391">
        <ele>418.37</ele>
        <time>2020-08-10T08:05:01.000Z</time>
      </trkpt>
      <trkpt lat="45.11664" lon="5.36389">
        <ele>416.43</ele>
        <time>2020-08-10T08:05:06.000Z</time>
      </trkpt>
      <trkpt lat="45.11653" lon="5.36384">
        <ele>418.31</ele>
        <time>2020-08-10T08:05:11.000Z</time>
      </trkpt>
      <trkpt lat="45.11639" lon="5.3638">
        <ele>418.12</ele>
        <time>2020-08-10T08:05:16.000Z</time>
      </trkpt>
      <trkpt lat="45.11621" lon="5.36377">
        <ele>421.96</ele>
        <time>2020-08-10T08:05:21.000Z</time>
      </trkpt>
      <trkpt lat="45.11606" lon="5.36385">
        <ele>421.92</ele>
        <time>2020-08-10T08:05:26.000Z</time>
      </trkpt>
      <trkpt lat="45.11595" lon="5.36399">
        <ele>423.17</ele>
        <time>2020-08-10T08:05:31.000Z</time>
      </trkpt>
      <trkpt lat="45.11581" lon="5.36414">
        <ele>425.23</ele>
        <time>2020-08-10T08:05:36.000Z</time>
      </trkpt>
      <trkpt lat="45.1157" lon="5.36431">
        <ele>427.24</ele>
        <time>2020-08-10T08:05:41.000Z</time>
      </trkpt>
      <trkpt lat="45.11561" lon="5.3645">
        <ele>426.66</ele>
        <time>2020-08-10T08:05:46.000Z</time>
      </trkpt>
      <trkpt lat="45.11553" lon="5.36465">
        <ele>428.29</ele>
        <time>2020-08-10T08:05:51.000Z</time>
      </trkpt>
      <trkpt lat="45.11541" lon="5.3648">
        <ele>430.66</ele>
        <time>2020-08-10T08:05:56.000Z</time>
      </trkpt>
      <trkpt lat="45.11527" lon="5.36494">
        <ele>433.08</ele>
        <time>2020-08-10T08:06:01.000Z</time>
      </trkpt>
      <trkpt lat="45.11512" lon="5.36502">
        <ele>434.72</ele>
        <time>2020-08-10T08:06:06.000Z</time>
      </trkpt>
      <trkpt lat="45.115" lon="5.36507">
        <ele>434.84</ele>
        <time>2020-08-10T08:06:11.000Z</time>
      </trkpt>
      <trkpt lat="45.11487" lon="5.36521">
        <ele>438.95</ele>
        <time>2020-08-10T08:06:16.000Z</time>
      </trkpt>
      <trkpt lat="45.11472" lon="5.36533">
        <ele>440.66</ele>
        <time>2020-08-10T08:06:21.000Z</time>
      </trkpt>
      <trkpt lat="45.11458" lon="5.36539">
        <ele>442.42</ele>
        <time>2020-08-10T08:06:26.000Z</time>
      </trkpt>
      <trkpt lat="45.11444" lon="5.36547">
        <ele>441.61</ele>
        <time>2020-08-10T08:06:31.000Z</time>
      </trkpt>
      <trkpt lat="45.11426" lon="5.36551">
        <ele>443.04</ele>
        <time>2020-08-10T08:06:36.000Z</time>
      </trkpt>
      <trkpt lat="45.1141" lon="5.36549">
        <ele>441.07</ele>
        <time>2020-08-10T08:06:41.000Z</time>
      </trkpt>
      <trkpt lat="45.11393" lon="5.3655">
        <ele>441.57</ele>
        <time>2020-08-10T08:06:46.000Z</time>
      </trkpt>
      <trkpt lat="45.11394" lon="5.36566">
        <ele>444.96</ele>
        <time>2020-08-10T08:06:51.000Z</time>
      </trkpt>
      <trkpt lat="45.11409" lon="5.36579">
        <ele>450.26</ele>
        <time>2020-08-10T08:06:56.000Z</time>
      </trkpt>
      <trkpt lat="45.11428" lon="5.36586">
        <ele>454.95</ele>
        <time>2020-08-10T08:07:01.000Z</time>
      </trkpt>
      <trkpt lat="45.11444" lon="5.3659">
        <ele>455.91</ele>
        <time>2020-08-10T08:07:06.000Z</time>
      </trkpt>
      <trkpt lat="45.11456" lon="5.36591">
        <ele>454.13</ele>
        <time>2020-08-10T08:07:11.000Z</time>
      </trkpt>
      <trkpt lat="45.11467" lon="5.36597">
        <ele>453.18</ele>
        <time>2020-08-10T08:07:16.000Z</time>
      </trkpt>
      <trkpt lat="45.11481" lon="5.36602">
        <ele>453.09</ele>
        <time>2020-08-10T08:07:21.000Z</time>
      </trkpt>
      <trkpt lat="45.11496" lon="5.36603">
        <ele>452.96</ele>
        <time>2020-08-10T08:07:26.000Z</time>
      </trkpt>
      <trkpt lat="45.11511" lon="5.36599">
        <ele>456.13</ele>
        <time>2020-08-10T08:07:31.000Z</time>
      </trkpt>
      <trkpt lat="45.11526" lon="5.36589">
        <ele>462.29</ele>
        <time>2020-08-10T08:07:36.000Z</time>
      </trkpt>
      <trkpt lat="45.11539" lon="5.36576">
        <ele>461.48</ele>
        <time>2020-08-10T08:07:41.000Z</time>
      </trkpt>
      <trkpt lat="45.11555" lon="5.36565">
        <ele>464.03</ele>
        <time>2020-08-10T08:07:46.000Z</time>
      </trkpt>
      <trkpt lat="45.11571" lon="5.3656">
        <ele>461.44</ele>
        <time>2020-08-10T08:07:51.000Z</time>
      </trkpt>
      <trkpt lat="45.11587" lon="5.36561">
        <ele>462.94</ele>
        <time>2020-08-10T08:07:56.000Z</time>
      </trkpt>
      <trkpt lat="45.11607" lon="5.36572">
        <ele>465.28</ele>
        <time>2020-08-10T08:08:01.000Z</time>
      </trkpt>
      <trkpt lat="45.11623" lon="5.36587">
        <ele>469.37</ele>
        <time>2020-08-10T08:08:06.000Z</time>
      </trkpt>
      <trkpt lat="45.11634" lon="5.36603">
        <ele>473.97</ele>
        <time>2020-08-10T08:08:11.000Z</time>
      </trkpt>
      <trkpt lat="45.11646" lon="5.3662">
        <ele>476.34</ele>
        <time>2020-08-10T08:08:16.000Z</time>
      </trkpt>
      <trkpt lat="45.11657" lon="5.36631">
        <ele>477.15</ele>
        <time>2020-08-10T08:08:21.000Z</time>
      </trkpt>
      <trkpt lat="45.11673" lon="5.36641">
        <ele>479.54</ele>
        <time>2020-08-10T08:08:26.000Z</time>
      </trkpt>
      <trkpt lat="45.11688" lon="5.36651">
        <ele>483.82</ele>
        <time>2020-08-10T08:08:31.000Z</time>
      </trkpt>
      <trkpt lat="45.11699" lon="5.36666">
        <ele>483.78</ele>
        <time>2020-08-10T08:08:36.000Z</time>
      </trkpt>
      <trkpt lat="45.11708" lon="5.36686">
        <ele>487.32</ele>
        <time>2020-08-10T08:08:41.000Z</time>
      </trkpt>
      <trkpt lat="45.11709" lon="5.36708">
        <ele>488.04</ele>
        <time>2020-08-10T08:08:46.000Z</time>
      </trkpt>
      <trkpt lat="45.11711" lon="5.36729">
        <ele>489.19</ele>
        <time>2020-08-10T08:08:51.000Z</time>
      </trkpt>
      <trkpt lat="45.11713" lon="5.36744">
        <ele>493.09</ele>
        <time>2020-08-10T08:08:56.000Z</time>
      </trkpt>
      <trkpt lat="45.11716" lon="5.36762">
        <ele>494.97</ele>
        <time>2020-08-10T08:09:01.000Z</time>
      </trkpt>
      <trkpt lat="45.11724" lon="5.36785">
        <ele>496.97</ele>
        <time>2020-08-10T08:09:06.000Z</time>
      </trkpt>
      <trkpt lat="45.11714" lon="5.36777">
        <ele>499.63</ele>
        <time>2020-08-10T08:10:15.000Z</time>
      </trkpt>
      <trkpt lat="45.11699" lon="5.36761">
        <ele>492.57</ele>
        <time>2020-08-10T08:10:20.000Z</time>
      </trkpt>
      <trkpt lat="45.11682" lon="5.36745">
        <ele>493.73</ele>
        <time>2020-08-10T08:10:25.000Z</time>
      </trkpt>
      <trkpt lat="45.11667" lon="5.36732">
        <ele>493.26</ele>
        <time>2020-08-10T08:10:30.000Z</time>
      </trkpt>
      <trkpt lat="45.11654" lon="5.36723">
        <ele>490.54</ele>
        <time>2020-08-10T08:10:35.000Z</time>
      </trkpt>
      <trkpt lat="45.11636" lon="5.36716">
        <ele>489.05</ele>
        <time>2020-08-10T08:10:40.000Z</time>
      </trkpt>
      <trkpt lat="45.1162" lon="5.3671">
        <ele>487.95</ele>
        <time>2020-08-10T08:10:45.000Z</time>
      </trkpt>
      <trkpt lat="45.11605" lon="5.36702">
        <ele>491.59</ele>
        <time>2020-08-10T08:10:50.000Z</time>
      </trkpt>
      <trkpt lat="45.11586" lon="5.36696">
        <ele>488.41</ele>
        <time>2020-08-10T08:10:55.000Z</time>
      </trkpt>
      <trkpt lat="45.11572" lon="5.36691">
        <ele>495.11</ele>
        <time>2020-08-10T08:11:00.000Z</time>
      </trkpt>
      <trkpt lat="45.11556" lon="5.36686">
        <ele>495.43</ele>
        <time>2020-08-10T08:11:05.000Z</time>
      </trkpt>
      <trkpt lat="45.1154" lon="5.3668">
        <ele>502.69</ele>
        <time>2020-08-10T08:11:10.000Z</time>
      </trkpt>
      <trkpt lat="45.11524" lon="5.36678">
        <ele>505.29</ele>
        <time>2020-08-10T08:11:15.000Z</time>
      </trkpt>
      <trkpt lat="45.11511" lon="5.36677">
        <ele>508.53</ele>
        <time>2020-08-10T08:11:20.000Z</time>
      </trkpt>
      <trkpt lat="45.11496" lon="5.36676">
        <ele>516.25</ele>
        <time>2020-08-10T08:11:25.000Z</time>
      </trkpt>
      <trkpt lat="45.11479" lon="5.36676">
        <ele>524.9</ele>
        <time>2020-08-10T08:11:30.000Z</time>
      </trkpt>
      <trkpt lat="45.11465" lon="5.36683">
        <ele>528.1</ele>
        <time>2020-08-10T08:11:35.000Z</time>
      </trkpt>
      <trkpt lat="45.11447" lon="5.36675">
        <ele>531.98</ele>
        <time>2020-08-10T08:11:40.000Z</time>
      </trkpt>
      <trkpt lat="45.11431" lon="5.36677">
        <ele>535.63</ele>
        <time>2020-08-10T08:11:45.000Z</time>
      </trkpt>
      <trkpt lat="45.11419" lon="5.36694">
        <ele>538.19</ele>
        <time>2020-08-10T08:11:50.000Z</time>
      </trkpt>
      <trkpt lat="45.11412" lon="5.36716">
        <ele>541.88</ele>
        <time>2020-08-10T08:11:55.000Z</time>
      </trkpt>
      <trkpt lat="45.11404" lon="5.36737">
        <ele>543.11</ele>
        <time>2020-08-10T08:12:00.000Z</time>
      </trkpt>
      <trkpt lat="45.11391" lon="5.36753">
        <ele>543.11</ele>
        <time>2020-08-10T08:12:05.000Z</time>
      </trkpt>
      <trkpt lat="45.11371" lon="5.36768">
        <ele>542.57</ele>
        <time>2020-08-10T08:12:10.000Z</time>
      </trkpt>
      <trkpt lat="45.11365" lon="5.36789">
        <ele>540.2</ele>
        <time>2020-08-10T08:12:15.000Z</time>
      </trkpt>
      <trkpt lat="45.11344" lon="5.3677">
        <ele>541.69</ele>
        <time>2020-08-10T08:12:20.000Z</time>
      </trkpt>
      <trkpt lat="45.1133" lon="5.36778">
        <ele>538.45</ele>
        <time>2020-08-10T08:12:25.000Z</time>
      </trkpt>
      <trkpt lat="45.11311" lon="5.36779">
        <ele>539.2</ele>
        <time>2020-08-10T08:12:30.000Z</time>
      </trkpt>
      <trkpt lat="45.11293" lon="5.36788">
        <ele>545.93</ele>
        <time>2020-08-10T08:12:35.000Z</time>
      </trkpt>
      <trkpt lat="45.11287" lon="5.36813">
        <ele>549.09</ele>
        <time>2020-08-10T08:12:40.000Z</time>
      </trkpt>
      <trkpt lat="45.11287" lon="5.36838">
        <ele>552.37</ele>
        <time>2020-08-10T08:12:45.000Z</time>
      </trkpt>
      <trkpt lat="45.11288" lon="5.36861">
        <ele>551.25</ele>
        <time>2020-08-10T08:12:50.000Z</time>
      </trkpt>
      <trkpt lat="45.11288" lon="5.36884">
        <ele>554.4</ele>
        <time>2020-08-10T08:12:55.000Z</time>
      </trkpt>
      <trkpt lat="45.11289" lon="5.36906">
        <ele>553.51</ele>
        <time>2020-08-10T08:13:00.000Z</time>
      </trkpt>
      <trkpt lat="45.1129" lon="5.36928">
        <ele>552.75</ele>
        <time>2020-08-10T08:13:05.000Z</time>
      </trkpt>
      <trkpt lat="45.11291" lon="5.36949">
        <ele>553.05</ele>
        <time>2020-08-10T08:13:10.000Z</time>
      </trkpt>
      <trkpt lat="45.1129" lon="5.36972">
        <ele>552.69</ele>
        <time>2020-08-10T08:13:15.000Z</time>
      </trkpt>
      <trkpt lat="45.1129" lon="5.36992">
        <ele>552.42</ele>
        <time>2020-08-10T08:13:20.000Z</time>
      </trkpt>
      <trkpt lat="45.11288" lon="5.37015">
        <ele>554.88</ele>
        <time>2020-08-10T08:13:25.000Z</time>
      </trkpt>
      <trkpt lat="45.11286" lon="5.37037">
        <ele>559.38</ele>
        <time>2020-08-10T08:13:30.000Z</time>
      </trkpt>
      <trkpt lat="45.11289" lon="5.37049">
        <ele>561.16</ele>
        <time>2020-08-10T08:13:39.000Z</time>
      </trkpt>
      <trkpt lat="45.1129" lon="5.37062">
        <ele>564.4</ele>
        <time>2020-08-10T08:13:47.000Z</time>
      </trkpt>
      <trkpt lat="45.11288" lon="5.37078">
        <ele>564.24</ele>
        <time>2020-08-10T08:15:23.000Z</time>
      </trkpt>
      <trkpt lat="45.11288" lon="5.37105">
        <ele>563.87</ele>
        <time>2020-08-10T08:15:28.000Z</time>
      </trkpt>
      <trkpt lat="45.11281" lon="5.37131">
        <ele>566.81</ele>
        <time>2020-08-10T08:15:33.000Z</time>
      </trkpt>
      <trkpt lat="45.11274" lon="5.37154">
        <ele>566.56</ele>
        <time>2020-08-10T08:15:38.000Z</time>
      </trkpt>
      <trkpt lat="45.11269" lon="5.37178">
        <ele>568.79</ele>
        <time>2020-08-10T08:15:43.000Z</time>
      </trkpt>
      <trkpt lat="45.11266" lon="5.37203">
        <ele>566.09</ele>
        <time>2020-08-10T08:15:48.000Z</time>
      </trkpt>
      <trkpt lat="45.11264" lon="5.37227">
        <ele>566.68</ele>
        <time>2020-08-10T08:15:53.000Z</time>
      </trkpt>
      <trkpt lat="45.1126" lon="5.37249">
        <ele>564.56</ele>
        <time>2020-08-10T08:15:58.000Z</time>
      </trkpt>
      <trkpt lat="45.11256" lon="5.37271">
        <ele>567.81</ele>
        <time>2020-08-10T08:16:03.000Z</time>
      </trkpt>
      <trkpt lat="45.11266" lon="5.37268">
        <ele>574.6</ele>
        <time>2020-08-10T08:16:10.000Z</time>
      </trkpt>
      <trkpt lat="45.11269" lon="5.37242">
        <ele>581.46</ele>
        <time>2020-08-10T08:16:15.000Z</time>
      </trkpt>
      <trkpt lat="45.11271" lon="5.37216">
        <ele>587.5</ele>
        <time>2020-08-10T08:16:20.000Z</time>
      </trkpt>
      <trkpt lat="45.11278" lon="5.37192">
        <ele>590.07</ele>
        <time>2020-08-10T08:16:25.000Z</time>
      </trkpt>
      <trkpt lat="45.11289" lon="5.3717">
        <ele>590.49</ele>
        <time>2020-08-10T08:16:30.000Z</time>
      </trkpt>
      <trkpt lat="45.113" lon="5.37149">
        <ele>592.37</ele>
        <time>2020-08-10T08:16:35.000Z</time>
      </trkpt>
      <trkpt lat="45.11313" lon="5.37131">
        <ele>597.79</ele>
        <time>2020-08-10T08:16:40.000Z</time>
      </trkpt>
      <trkpt lat="45.11323" lon="5.3711">
        <ele>600.16</ele>
        <time>2020-08-10T08:16:45.000Z</time>
      </trkpt>
      <trkpt lat="45.11321" lon="5.37077">
        <ele>601.92</ele>
        <time>2020-08-10T08:16:50.000Z</time>
      </trkpt>
      <trkpt lat="45.11325" lon="5.37049">
        <ele>603.22</ele>
        <time>2020-08-10T08:16:55.000Z</time>
      </trkpt>
      <trkpt lat="45.11332" lon="5.37025">
        <ele>603.68</ele>
        <time>2020-08-10T08:17:00.000Z</time>
      </trkpt>
      <trkpt lat="45.11336" lon="5.36997">
        <ele>602.19</ele>
        <time>2020-08-10T08:17:05.000Z</time>
      </trkpt>
      <trkpt lat="45.1134" lon="5.36978">
        <ele>604.15</ele>
        <time>2020-08-10T08:17:10.000Z</time>
      </trkpt>
      <trkpt lat="45.11338" lon="5.37004">
        <ele>603.93</ele>
        <time>2020-08-10T08:17:15.000Z</time>
      </trkpt>
      <trkpt lat="45.11332" lon="5.37035">
        <ele>605.04</ele>
        <time>2020-08-10T08:17:20.000Z</time>
      </trkpt>
      <trkpt lat="45.11329" lon="5.37061">
        <ele>605.16</ele>
        <time>2020-08-10T08:17:25.000Z</time>
      </trkpt>
      <trkpt lat="45.11332" lon="5.37084">
        <ele>602.72</ele>
        <time>2020-08-10T08:17:30.000Z</time>
      </trkpt>
      <trkpt lat="45.11338" lon="5.37107">
        <ele>602.57</ele>
        <time>2020-08-10T08:17:35.000Z</time>
      </trkpt>
      <trkpt lat="45.11336" lon="5.37126">
        <ele>602.67</ele>
        <time>2020-08-10T08:17:40.000Z</time>
      </trkpt>
      <trkpt lat="45.11326" lon="5.37145">
        <ele>607.14</ele>
        <time>2020-08-10T08:17:45.000Z</time>
      </trkpt>
      <trkpt lat="45.11318" lon="5.37168">
        <ele>608.03</ele>
        <time>2020-08-10T08:17:50.000Z</time>
      </trkpt>
      <trkpt lat="45.11312" lon="5.37197">
        <ele>609.27</ele>
        <time>2020-08-10T08:17:55.000Z</time>
      </trkpt>
      <trkpt lat="45.11312" lon="5.37222">
        <ele>606.45</ele>
        <time>2020-08-10T08:18:00.000Z</time>
      </trkpt>
      <trkpt lat="45.11313" lon="5.37242">
        <ele>606.44</ele>
        <time>2020-08-10T08:18:05.000Z</time>
      </trkpt>
      <trkpt lat="45.11314" lon="5.37263">
        <ele>609.06</ele>
        <time>2020-08-10T08:18:10.000Z</time>
      </trkpt>
      <trkpt lat="45.11315" lon="5.37285">
        <ele>612.21</ele>
        <time>2020-08-10T08:18:15.000Z</time>
      </trkpt>
      <trkpt lat="45.11315" lon="5.37314">
        <ele>614.01</ele>
        <time>2020-08-10T08:18:20.000Z</time>
      </trkpt>
      <trkpt lat="45.11316" lon="5.37339">
        <ele>614.07</ele>
        <time>2020-08-10T08:18:25.000Z</time>
      </trkpt>
      <trkpt lat="45.1132" lon="5.37361">
        <ele>613.35</ele>
        <time>2020-08-10T08:18:30.000Z</time>
      </trkpt>
      <trkpt lat="45.11328" lon="5.37384">
        <ele>615.37</ele>
        <time>2020-08-10T08:18:35.000Z</time>
      </trkpt>
      <trkpt lat="45.11335" lon="5.37406">
        <ele>616.68</ele>
        <time>2020-08-10T08:18:40.000Z</time>
      </trkpt>
      <trkpt lat="45.1134" lon="5.37431">
        <ele>616.22</ele>
        <time>2020-08-10T08:18:45.000Z</time>
      </trkpt>
      <trkpt lat="45.11344" lon="5.37454">
        <ele>621.26</ele>
        <time>2020-08-10T08:18:50.000Z</time>
      </trkpt>
      <trkpt lat="45.11349" lon="5.37474">
        <ele>615.25</ele>
        <time>2020-08-10T08:18:55.000Z</time>
      </trkpt>
      <trkpt lat="45.11356" lon="5.37495">
        <ele>615.67</ele>
        <time>2020-08-10T08:19:00.000Z</time>
      </trkpt>
      <trkpt lat="45.11364" lon="5.37519">
        <ele>616.86</ele>
        <time>2020-08-10T08:19:05.000Z</time>
      </trkpt>
      <trkpt lat="45.1137" lon="5.37543">
        <ele>622.42</ele>
        <time>2020-08-10T08:19:10.000Z</time>
      </trkpt>
      <trkpt lat="45.11374" lon="5.37563">
        <ele>624.87</ele>
        <time>2020-08-10T08:19:15.000Z</time>
      </trkpt>
      <trkpt lat="45.11377" lon="5.37581">
        <ele>625.29</ele>
        <time>2020-08-10T08:19:20.000Z</time>
      </trkpt>
      <trkpt lat="45.11383" lon="5.37603">
        <ele>626.07</ele>
        <time>2020-08-10T08:19:25.000Z</time>
      </trkpt>
      <trkpt lat="45.11386" lon="5.37629">
        <ele>627.95</ele>
        <time>2020-08-10T08:19:30.000Z</time>
      </trkpt>
      <trkpt lat="45.11385" lon="5.37652">
        <ele>629.75</ele>
        <time>2020-08-10T08:19:35.000Z</time>
      </trkpt>
      <trkpt lat="45.11378" lon="5.37673">
        <ele>634.96</ele>
        <time>2020-08-10T08:19:40.000Z</time>
      </trkpt>
      <trkpt lat="45.11371" lon="5.37694">
        <ele>639.27</ele>
        <time>2020-08-10T08:19:45.000Z</time>
      </trkpt>
      <trkpt lat="45.11356" lon="5.37702">
        <ele>644.8</ele>
        <time>2020-08-10T08:19:50.000Z</time>
      </trkpt>
      <trkpt lat="45.1134" lon="5.37714">
        <ele>648.6</ele>
        <time>2020-08-10T08:19:55.000Z</time>
      </trkpt>
      <trkpt lat="45.11326" lon="5.37731">
        <ele>654.94</ele>
        <time>2020-08-10T08:20:00.000Z</time>
      </trkpt>
      <trkpt lat="45.11309" lon="5.37742">
        <ele>661.58</ele>
        <time>2020-08-10T08:20:05.000Z</time>
      </trkpt>
      <trkpt lat="45.11294" lon="5.37746">
        <ele>662.15</ele>
        <time>2020-08-10T08:20:10.000Z</time>
      </trkpt>
      <trkpt lat="45.1128" lon="5.37749">
        <ele>659.37</ele>
        <time>2020-08-10T08:20:15.000Z</time>
      </trkpt>
      <trkpt lat="45.11262" lon="5.3775">
        <ele>659.92</ele>
        <time>2020-08-10T08:20:20.000Z</time>
      </trkpt>
      <trkpt lat="45.11245" lon="5.37755">
        <ele>661.59</ele>
        <time>2020-08-10T08:20:25.000Z</time>
      </trkpt>
      <trkpt lat="45.11228" lon="5.3776">
        <ele>659.85</ele>
        <time>2020-08-10T08:20:30.000Z</time>
      </trkpt>
      <trkpt lat="45.11209" lon="5.37766">
        <ele>663.21</ele>
        <time>2020-08-10T08:20:35.000Z</time>
      </trkpt>
      <trkpt lat="45.1119" lon="5.37771">
        <ele>667.49</ele>
        <time>2020-08-10T08:20:40.000Z</time>
      </trkpt>
      <trkpt lat="45.11176" lon="5.3778">
        <ele>667.04</ele>
        <time>2020-08-10T08:20:45.000Z</time>
      </trkpt>
      <trkpt lat="45.11159" lon="5.37785">
        <ele>671.91</ele>
        <time>2020-08-10T08:20:50.000Z</time>
      </trkpt>
      <trkpt lat="45.11146" lon="5.37803">
        <ele>674.07</ele>
        <time>2020-08-10T08:20:55.000Z</time>
      </trkpt>
      <trkpt lat="45.11143" lon="5.37824">
        <ele>676.04</ele>
        <time>2020-08-10T08:21:00.000Z</time>
      </trkpt>
      <trkpt lat="45.11136" lon="5.37843">
        <ele>680.9</ele>
        <time>2020-08-10T08:21:05.000Z</time>
      </trkpt>
      <trkpt lat="45.11123" lon="5.3786">
        <ele>682.06</ele>
        <time>2020-08-10T08:21:10.000Z</time>
      </trkpt>
      <trkpt lat="45.11113" lon="5.37876">
        <ele>682.54</ele>
        <time>2020-08-10T08:21:15.000Z</time>
      </trkpt>
      <trkpt lat="45.11119" lon="5.37894">
        <ele>683.42</ele>
        <time>2020-08-10T08:21:20.000Z</time>
      </trkpt>
      <trkpt lat="45.11124" lon="5.37905">
        <ele>680.85</ele>
        <time>2020-08-10T08:22:31.000Z</time>
      </trkpt>
      <trkpt lat="45.11141" lon="5.37915">
        <ele>679.08</ele>
        <time>2020-08-10T08:22:36.000Z</time>
      </trkpt>
      <trkpt lat="45.1116" lon="5.3793">
        <ele>676.1</ele>
        <time>2020-08-10T08:22:41.000Z</time>
      </trkpt>
      <trkpt lat="45.11181" lon="5.37931">
        <ele>673.68</ele>
        <time>2020-08-10T08:22:46.000Z</time>
      </trkpt>
      <trkpt lat="45.11192" lon="5.3794">
        <ele>673.38</ele>
        <time>2020-08-10T08:22:51.000Z</time>
      </trkpt>
      <trkpt lat="45.11198" lon="5.37966">
        <ele>674.32</ele>
        <time>2020-08-10T08:22:56.000Z</time>
      </trkpt>
      <trkpt lat="45.11195" lon="5.37996">
        <ele>675.47</ele>
        <time>2020-08-10T08:23:01.000Z</time>
      </trkpt>
      <trkpt lat="45.11193" lon="5.38019">
        <ele>675.09</ele>
        <time>2020-08-10T08:23:06.000Z</time>
      </trkpt>
      <trkpt lat="45.11192" lon="5.38033">
        <ele>675.19</ele>
        <time>2020-08-10T08:23:11.000Z</time>
      </trkpt>
      <trkpt lat="45.11182" lon="5.38046">
        <ele>675.73</ele>
        <time>2020-08-10T08:23:16.000Z</time>
      </trkpt>
      <trkpt lat="45.11171" lon="5.38065">
        <ele>674.5</ele>
        <time>2020-08-10T08:23:21.000Z</time>
      </trkpt>
      <trkpt lat="45.11158" lon="5.38087">
        <ele>674.63</ele>
        <time>2020-08-10T08:23:26.000Z</time>
      </trkpt>
      <trkpt lat="45.11145" lon="5.38101">
        <ele>675.21</ele>
        <time>2020-08-10T08:23:31.000Z</time>
      </trkpt>
      <trkpt lat="45.11129" lon="5.38111">
        <ele>676.11</ele>
        <time>2020-08-10T08:23:36.000Z</time>
      </trkpt>
      <trkpt lat="45.11111" lon="5.38125">
        <ele>676.31</ele>
        <time>2020-08-10T08:23:41.000Z</time>
      </trkpt>
      <trkpt lat="45.111" lon="5.38144">
        <ele>678.15</ele>
        <time>2020-08-10T08:23:46.000Z</time>
      </trkpt>
      <trkpt lat="45.11098" lon="5.38172">
        <ele>678.49</ele>
        <time>2020-08-10T08:23:51.000Z</time>
      </trkpt>
      <trkpt lat="45.11102" lon="5.38202">
        <ele>679.72</ele>
        <time>2020-08-10T08:23:56.000Z</time>
      </trkpt>
      <trkpt lat="45.11102" lon="5.38231">
        <ele>682.95</ele>
        <time>2020-08-10T08:24:01.000Z</time>
      </trkpt>
      <trkpt lat="45.11095" lon="5.38242">
        <ele>684.39</ele>
        <time>2020-08-10T08:24:06.000Z</time>
      </trkpt>
      <trkpt lat="45.11085" lon="5.38249">
        <ele>685.11</ele>
        <time>2020-08-10T08:24:11.000Z</time>
      </trkpt>
      <trkpt lat="45.11072" lon="5.38257">
        <ele>687.79</ele>
        <time>2020-08-10T08:24:16.000Z</time>
      </trkpt>
      <trkpt lat="45.11058" lon="5.38266">
        <ele>689.52</ele>
        <time>2020-08-10T08:24:21.000Z</time>
      </trkpt>
      <trkpt lat="45.11049" lon="5.38269">
        <ele>693.22</ele>
        <time>2020-08-10T08:24:27.000Z</time>
      </trkpt>
      <trkpt lat="45.11028" lon="5.38244">
        <ele>695.61</ele>
        <time>2020-08-10T08:24:32.000Z</time>
      </trkpt>
      <trkpt lat="45.11042" lon="5.38236">
        <ele>697.91</ele>
        <time>2020-08-10T08:24:37.000Z</time>
      </trkpt>
      <trkpt lat="45.11051" lon="5.38214">
        <ele>698.01</ele>
        <time>2020-08-10T08:24:42.000Z</time>
      </trkpt>
      <trkpt lat="45.11053" lon="5.38193">
        <ele>693.11</ele>
        <time>2020-08-10T08:24:47.000Z</time>
      </trkpt>
      <trkpt lat="45.11057" lon="5.38176">
        <ele>695.06</ele>
        <time>2020-08-10T08:24:52.000Z</time>
      </trkpt>
      <trkpt lat="45.11057" lon="5.38159">
        <ele>697.04</ele>
        <time>2020-08-10T08:24:57.000Z</time>
      </trkpt>
      <trkpt lat="45.11059" lon="5.38138">
        <ele>700.7</ele>
        <time>2020-08-10T08:25:02.000Z</time>
      </trkpt>
      <trkpt lat="45.11062" lon="5.38116">
        <ele>704.61</ele>
        <time>2020-08-10T08:25:07.000Z</time>
      </trkpt>
      <trkpt lat="45.11063" lon="5.38089">
        <ele>707.37</ele>
        <time>2020-08-10T08:25:12.000Z</time>
      </trkpt>
      <trkpt lat="45.11063" lon="5.38067">
        <ele>707.25</ele>
        <time>2020-08-10T08:25:17.000Z</time>
      </trkpt>
      <trkpt lat="45.11053" lon="5.38053">
        <ele>709.57</ele>
        <time>2020-08-10T08:25:22.000Z</time>
      </trkpt>
      <trkpt lat="45.11039" lon="5.38034">
        <ele>708.43</ele>
        <time>2020-08-10T08:25:27.000Z</time>
      </trkpt>
      <trkpt lat="45.11022" lon="5.38024">
        <ele>708.6</ele>
        <time>2020-08-10T08:25:32.000Z</time>
      </trkpt>
      <trkpt lat="45.11005" lon="5.38022">
        <ele>712.45</ele>
        <time>2020-08-10T08:25:37.000Z</time>
      </trkpt>
      <trkpt lat="45.10986" lon="5.38027">
        <ele>708.3</ele>
        <time>2020-08-10T08:25:42.000Z</time>
      </trkpt>
      <trkpt lat="45.10971" lon="5.38028">
        <ele>709.84</ele>
        <time>2020-08-10T08:25:47.000Z</time>
      </trkpt>
      <trkpt lat="45.10958" lon="5.38026">
        <ele>711.32</ele>
        <time>2020-08-10T08:25:52.000Z</time>
      </trkpt>
      <trkpt lat="45.10948" lon="5.38008">
        <ele>712.38</ele>
        <time>2020-08-10T08:25:57.000Z</time>
      </trkpt>
      <trkpt lat="45.10934" lon="5.37978">
        <ele>711.99</ele>
        <time>2020-08-10T08:26:02.000Z</time>
      </trkpt>
      <trkpt lat="45.1092" lon="5.37959">
        <ele>710.97</ele>
        <time>2020-08-10T08:26:07.000Z</time>
      </trkpt>
      <trkpt lat="45.10906" lon="5.37949">
        <ele>712.62</ele>
        <time>2020-08-10T08:26:12.000Z</time>
      </trkpt>
      <trkpt lat="45.10886" lon="5.3794">
        <ele>716.35</ele>
        <time>2020-08-10T08:26:17.000Z</time>
      </trkpt>
      <trkpt lat="45.10871" lon="5.37937">
        <ele>720.44</ele>
        <time>2020-08-10T08:26:22.000Z</time>
      </trkpt>
      <trkpt lat="45.10853" lon="5.37941">
        <ele>723.48</ele>
        <time>2020-08-10T08:26:27.000Z</time>
      </trkpt>
      <trkpt lat="45.10836" lon="5.37953">
        <ele>723.96</ele>
        <time>2020-08-10T08:26:32.000Z</time>
      </trkpt>
      <trkpt lat="45.10816" lon="5.37956">
        <ele>728.7</ele>
        <time>2020-08-10T08:26:37.000Z</time>
      </trkpt>
      <trkpt lat="45.10801" lon="5.37943">
        <ele>730.77</ele>
        <time>2020-08-10T08:26:42.000Z</time>
      </trkpt>
      <trkpt lat="45.10788" lon="5.37932">
        <ele>732.11</ele>
        <time>2020-08-10T08:26:47.000Z</time>
      </trkpt>
      <trkpt lat="45.10774" lon="5.37928">
        <ele>735.77</ele>
        <time>2020-08-10T08:26:52.000Z</time>
      </trkpt>
      <trkpt lat="45.10757" lon="5.37923">
        <ele>735.95</ele>
        <time>2020-08-10T08:26:57.000Z</time>
      </trkpt>
      <trkpt lat="45.10738" lon="5.37917">
        <ele>741.7</ele>
        <time>2020-08-10T08:27:02.000Z</time>
      </trkpt>
      <trkpt lat="45.10718" lon="5.37919">
        <ele>742.59</ele>
        <time>2020-08-10T08:27:07.000Z</time>
      </trkpt>
      <trkpt lat="45.107" lon="5.37922">
        <ele>742.15</ele>
        <time>2020-08-10T08:27:12.000Z</time>
      </trkpt>
      <trkpt lat="45.10688" lon="5.37903">
        <ele>737.55</ele>
        <time>2020-08-10T08:27:17.000Z</time>
      </trkpt>
      <trkpt lat="45.10661" lon="5.37873">
        <ele>742.47</ele>
        <time>2020-08-10T08:27:27.000Z</time>
      </trkpt>
      <trkpt lat="45.10646" lon="5.3787">
        <ele>743.95</ele>
        <time>2020-08-10T08:27:32.000Z</time>
      </trkpt>
      <trkpt lat="45.10628" lon="5.37869">
        <ele>745.49</ele>
        <time>2020-08-10T08:27:37.000Z</time>
      </trkpt>
      <trkpt lat="45.10614" lon="5.37862">
        <ele>745.41</ele>
        <time>2020-08-10T08:27:42.000Z</time>
      </trkpt>
      <trkpt lat="45.10603" lon="5.37822">
        <ele>745.32</ele>
        <time>2020-08-10T08:27:56.000Z</time>
      </trkpt>
      <trkpt lat="45.10609" lon="5.37806">
        <ele>745.57</ele>
        <time>2020-08-10T08:28:01.000Z</time>
      </trkpt>
      <trkpt lat="45.10604" lon="5.37787">
        <ele>744.85</ele>
        <time>2020-08-10T08:28:06.000Z</time>
      </trkpt>
      <trkpt lat="45.10601" lon="5.37764">
        <ele>750.68</ele>
        <time>2020-08-10T08:28:11.000Z</time>
      </trkpt>
      <trkpt lat="45.10604" lon="5.37735">
        <ele>753.25</ele>
        <time>2020-08-10T08:28:16.000Z</time>
      </trkpt>
      <trkpt lat="45.10606" lon="5.37712">
        <ele>762.18</ele>
        <time>2020-08-10T08:28:21.000Z</time>
      </trkpt>
      <trkpt lat="45.10599" lon="5.37687">
        <ele>766.53</ele>
        <time>2020-08-10T08:28:26.000Z</time>
      </trkpt>
      <trkpt lat="45.10588" lon="5.37666">
        <ele>769.61</ele>
        <time>2020-08-10T08:28:31.000Z</time>
      </trkpt>
      <trkpt lat="45.1058" lon="5.37642">
        <ele>771.82</ele>
        <time>2020-08-10T08:28:36.000Z</time>
      </trkpt>
      <trkpt lat="45.10569" lon="5.37619">
        <ele>771.03</ele>
        <time>2020-08-10T08:28:41.000Z</time>
      </trkpt>
      <trkpt lat="45.10556" lon="5.37605">
        <ele>773.03</ele>
        <time>2020-08-10T08:28:46.000Z</time>
      </trkpt>
      <trkpt lat="45.1054" lon="5.37592">
        <ele>773.92</ele>
        <time>2020-08-10T08:28:51.000Z</time>
      </trkpt>
      <trkpt lat="45.1052" lon="5.37573">
        <ele>773.02</ele>
        <time>2020-08-10T08:28:56.000Z</time>
      </trkpt>
      <trkpt lat="45.10507" lon="5.3755">
        <ele>776.31</ele>
        <time>2020-08-10T08:29:01.000Z</time>
      </trkpt>
      <trkpt lat="45.10494" lon="5.37527">
        <ele>777.82</ele>
        <time>2020-08-10T08:29:06.000Z</time>
      </trkpt>
      <trkpt lat="45.10481" lon="5.37506">
        <ele>779.3</ele>
        <time>2020-08-10T08:29:11.000Z</time>
      </trkpt>
      <trkpt lat="45.10467" lon="5.37495">
        <ele>780.42</ele>
        <time>2020-08-10T08:29:16.000Z</time>
      </trkpt>
      <trkpt lat="45.10454" lon="5.37488">
        <ele>783.25</ele>
        <time>2020-08-10T08:29:21.000Z</time>
      </trkpt>
      <trkpt lat="45.10438" lon="5.37479">
        <ele>781.47</ele>
        <time>2020-08-10T08:29:26.000Z</time>
      </trkpt>
      <trkpt lat="45.10427" lon="5.37461">
        <ele>785.79</ele>
        <time>2020-08-10T08:29:31.000Z</time>
      </trkpt>
      <trkpt lat="45.10421" lon="5.3744">
        <ele>784.53</ele>
        <time>2020-08-10T08:29:36.000Z</time>
      </trkpt>
      <trkpt lat="45.1041" lon="5.37419">
        <ele>783.04</ele>
        <time>2020-08-10T08:29:41.000Z</time>
      </trkpt>
      <trkpt lat="45.10402" lon="5.37398">
        <ele>780.18</ele>
        <time>2020-08-10T08:29:46.000Z</time>
      </trkpt>
      <trkpt lat="45.10393" lon="5.37379">
        <ele>782.62</ele>
        <time>2020-08-10T08:29:51.000Z</time>
      </trkpt>
      <trkpt lat="45.10383" lon="5.3736">
        <ele>782.01</ele>
        <time>2020-08-10T08:29:56.000Z</time>
      </trkpt>
      <trkpt lat="45.10372" lon="5.37336">
        <ele>786.55</ele>
        <time>2020-08-10T08:30:01.000Z</time>
      </trkpt>
      <trkpt lat="45.10369" lon="5.3731">
        <ele>791.42</ele>
        <time>2020-08-10T08:30:06.000Z</time>
      </trkpt>
      <trkpt lat="45.10359" lon="5.37292">
        <ele>792.05</ele>
        <time>2020-08-10T08:30:11.000Z</time>
      </trkpt>
      <trkpt lat="45.10338" lon="5.37302">
        <ele>793.95</ele>
        <time>2020-08-10T08:30:16.000Z</time>
      </trkpt>
      <trkpt lat="45.10319" lon="5.37317">
        <ele>794.06</ele>
        <time>2020-08-10T08:30:21.000Z</time>
      </trkpt>
      <trkpt lat="45.10302" lon="5.37331">
        <ele>795.11</ele>
        <time>2020-08-10T08:30:26.000Z</time>
      </trkpt>
      <trkpt lat="45.10285" lon="5.37344">
        <ele>794.87</ele>
        <time>2020-08-10T08:30:31.000Z</time>
      </trkpt>
      <trkpt lat="45.1027" lon="5.37358">
        <ele>797.19</ele>
        <time>2020-08-10T08:30:36.000Z</time>
      </trkpt>
      <trkpt lat="45.10254" lon="5.37371">
        <ele>799.01</ele>
        <time>2020-08-10T08:30:41.000Z</time>
      </trkpt>
      <trkpt lat="45.10239" lon="5.37383">
        <ele>797.48</ele>
        <time>2020-08-10T08:30:46.000Z</time>
      </trkpt>
      <trkpt lat="45.10222" lon="5.37395">
        <ele>797.34</ele>
        <time>2020-08-10T08:30:51.000Z</time>
      </trkpt>
      <trkpt lat="45.10199" lon="5.37402">
        <ele>797.2</ele>
        <time>2020-08-10T08:30:56.000Z</time>
      </trkpt>
      <trkpt lat="45.10176" lon="5.37404">
        <ele>797.76</ele>
        <time>2020-08-10T08:31:01.000Z</time>
      </trkpt>
      <trkpt lat="45.10155" lon="5.37404">
        <ele>799.58</ele>
        <time>2020-08-10T08:31:06.000Z</time>
      </trkpt>
      <trkpt lat="45.10135" lon="5.37398">
        <ele>805.03</ele>
        <time>2020-08-10T08:31:11.000Z</time>
      </trkpt>
      <trkpt lat="45.1012" lon="5.37386">
        <ele>811.58</ele>
        <time>2020-08-10T08:31:16.000Z</time>
      </trkpt>
      <trkpt lat="45.10113" lon="5.37364">
        <ele>817.25</ele>
        <time>2020-08-10T08:31:21.000Z</time>
      </trkpt>
      <trkpt lat="45.10113" lon="5.37334">
        <ele>826.59</ele>
        <time>2020-08-10T08:31:26.000Z</time>
      </trkpt>
      <trkpt lat="45.10115" lon="5.37306">
        <ele>825.76</ele>
        <time>2020-08-10T08:31:31.000Z</time>
      </trkpt>
      <trkpt lat="45.10111" lon="5.37288">
        <ele>824.7</ele>
        <time>2020-08-10T08:31:36.000Z</time>
      </trkpt>
      <trkpt lat="45.10102" lon="5.37285">
        <ele>818.04</ele>
        <time>2020-08-10T08:40:00.000Z</time>
      </trkpt>
      <trkpt lat="45.10084" lon="5.37282">
        <ele>822.77</ele>
        <time>2020-08-10T08:40:05.000Z</time>
      </trkpt>
      <trkpt lat="45.10069" lon="5.37282">
        <ele>825.34</ele>
        <time>2020-08-10T08:40:10.000Z</time>
      </trkpt>
      <trkpt lat="45.10053" lon="5.3728">
        <ele>826.97</ele>
        <time>2020-08-10T08:40:15.000Z</time>
      </trkpt>
      <trkpt lat="45.10035" lon="5.37276">
        <ele>828.59</ele>
        <time>2020-08-10T08:40:20.000Z</time>
      </trkpt>
      <trkpt lat="45.10023" lon="5.37292">
        <ele>833.71</ele>
        <time>2020-08-10T08:40:25.000Z</time>
      </trkpt>
      <trkpt lat="45.1001" lon="5.3731">
        <ele>836.93</ele>
        <time>2020-08-10T08:40:30.000Z</time>
      </trkpt>
      <trkpt lat="45.09994" lon="5.37319">
        <ele>837.04</ele>
        <time>2020-08-10T08:40:35.000Z</time>
      </trkpt>
      <trkpt lat="45.09981" lon="5.37319">
        <ele>836.65</ele>
        <time>2020-08-10T08:40:40.000Z</time>
      </trkpt>
      <trkpt lat="45.09968" lon="5.37301">
        <ele>835.96</ele>
        <time>2020-08-10T08:40:45.000Z</time>
      </trkpt>
      <trkpt lat="45.09961" lon="5.37281">
        <ele>837.03</ele>
        <time>2020-08-10T08:40:50.000Z</time>
      </trkpt>
      <trkpt lat="45.09957" lon="5.37265">
        <ele>840.73</ele>
        <time>2020-08-10T08:40:55.000Z</time>
      </trkpt>
      <trkpt lat="45.09944" lon="5.37251">
        <ele>841.2</ele>
        <time>2020-08-10T08:41:00.000Z</time>
      </trkpt>
      <trkpt lat="45.09928" lon="5.3725">
        <ele>842.33</ele>
        <time>2020-08-10T08:41:05.000Z</time>
      </trkpt>
      <trkpt lat="45.09908" lon="5.37253">
        <ele>840.75</ele>
        <time>2020-08-10T08:41:10.000Z</time>
      </trkpt>
      <trkpt lat="45.09896" lon="5.37255">
        <ele>840.18</ele>
        <time>2020-08-10T08:41:15.000Z</time>
      </trkpt>
      <trkpt lat="45.09882" lon="5.37261">
        <ele>840.67</ele>
        <time>2020-08-10T08:41:20.000Z</time>
      </trkpt>
      <trkpt lat="45.09867" lon="5.37266">
        <ele>841.3</ele>
        <time>2020-08-10T08:41:25.000Z</time>
      </trkpt>
      <trkpt lat="45.09854" lon="5.37273">
        <ele>844.75</ele>
        <time>2020-08-10T08:41:30.000Z</time>
      </trkpt>
      <trkpt lat="45.09838" lon="5.3728">
        <ele>844.58</ele>
        <time>2020-08-10T08:41:35.000Z</time>
      </trkpt>
      <trkpt lat="45.09825" lon="5.37294">
        <ele>844.93</ele>
        <time>2020-08-10T08:41:40.000Z</time>
      </trkpt>
      <trkpt lat="45.09814" lon="5.37296">
        <ele>845.41</ele>
        <time>2020-08-10T08:41:45.000Z</time>
      </trkpt>
      <trkpt lat="45.09807" lon="5.37278">
        <ele>850.93</ele>
        <time>2020-08-10T08:41:50.000Z</time>
      </trkpt>
      <trkpt lat="45.09807" lon="5.37257">
        <ele>858.3</ele>
        <time>2020-08-10T08:41:55.000Z</time>
      </trkpt>
      <trkpt lat="45.0981" lon="5.37235">
        <ele>855.58</ele>
        <time>2020-08-10T08:42:00.000Z</time>
      </trkpt>
      <trkpt lat="45.09813" lon="5.37223">
        <ele>858.6</ele>
        <time>2020-08-10T08:42:05.000Z</time>
      </trkpt>
      <trkpt lat="45.09815" lon="5.37205">
        <ele>857.29</ele>
        <time>2020-08-10T08:42:10.000Z</time>
      </trkpt>
      <trkpt lat="45.09817" lon="5.37181">
        <ele>859.59</ele>
        <time>2020-08-10T08:42:15.000Z</time>
      </trkpt>
      <trkpt lat="45.09823" lon="5.37156">
        <ele>860.6</ele>
        <time>2020-08-10T08:42:20.000Z</time>
      </trkpt>
      <trkpt lat="45.09825" lon="5.37136">
        <ele>864.25</ele>
        <time>2020-08-10T08:42:25.000Z</time>
      </trkpt>
      <trkpt lat="45.09821" lon="5.37108">
        <ele>870.06</ele>
        <time>2020-08-10T08:42:30.000Z</time>
      </trkpt>
      <trkpt lat="45.09816" lon="5.37084">
        <ele>875.3</ele>
        <time>2020-08-10T08:42:35.000Z</time>
      </trkpt>
      <trkpt lat="45.09809" lon="5.37057">
        <ele>876.58</ele>
        <time>2020-08-10T08:42:40.000Z</time>
      </trkpt>
      <trkpt lat="45.09802" lon="5.37036">
        <ele>876.64</ele>
        <time>2020-08-10T08:42:45.000Z</time>
      </trkpt>
      <trkpt lat="45.09786" lon="5.37022">
        <ele>872.83</ele>
        <time>2020-08-10T08:42:50.000Z</time>
      </trkpt>
      <trkpt lat="45.0977" lon="5.37015">
        <ele>869.32</ele>
        <time>2020-08-10T08:42:55.000Z</time>
      </trkpt>
      <trkpt lat="45.09758" lon="5.36998">
        <ele>873.2</ele>
        <time>2020-08-10T08:43:00.000Z</time>
      </trkpt>
      <trkpt lat="45.09756" lon="5.36983">
        <ele>873.88</ele>
        <time>2020-08-10T08:43:05.000Z</time>
      </trkpt>
      <trkpt lat="45.09743" lon="5.36979">
        <ele>866.48</ele>
        <time>2020-08-10T08:48:25.000Z</time>
      </trkpt>
      <trkpt lat="45.09727" lon="5.36968">
        <ele>868.59</ele>
        <time>2020-08-10T08:48:30.000Z</time>
      </trkpt>
      <trkpt lat="45.09714" lon="5.36953">
        <ele>876.13</ele>
        <time>2020-08-10T08:48:35.000Z</time>
      </trkpt>
      <trkpt lat="45.09701" lon="5.36941">
        <ele>872.58</ele>
        <time>2020-08-10T08:48:40.000Z</time>
      </trkpt>
      <trkpt lat="45.09688" lon="5.36947">
        <ele>874.6</ele>
        <time>2020-08-10T08:48:45.000Z</time>
      </trkpt>
      <trkpt lat="45.09697" lon="5.36964">
        <ele>876.11</ele>
        <time>2020-08-10T08:48:50.000Z</time>
      </trkpt>
      <trkpt lat="45.09709" lon="5.36971">
        <ele>880.93</ele>
        <time>2020-08-10T08:48:55.000Z</time>
      </trkpt>
      <trkpt lat="45.09701" lon="5.36979">
        <ele>886.22</ele>
        <time>2020-08-10T08:49:22.000Z</time>
      </trkpt>
      <trkpt lat="45.09709" lon="5.36989">
        <ele>891.18</ele>
        <time>2020-08-10T08:51:14.000Z</time>
      </trkpt>
      <trkpt lat="45.09712" lon="5.37016">
        <ele>891.6</ele>
        <time>2020-08-10T08:51:19.000Z</time>
      </trkpt>
      <trkpt lat="45.09713" lon="5.37039">
        <ele>890.31</ele>
        <time>2020-08-10T08:51:24.000Z</time>
      </trkpt>
      <trkpt lat="45.09719" lon="5.37063">
        <ele>890.23</ele>
        <time>2020-08-10T08:51:29.000Z</time>
      </trkpt>
      <trkpt lat="45.0972" lon="5.37089">
        <ele>887.51</ele>
        <time>2020-08-10T08:51:34.000Z</time>
      </trkpt>
      <trkpt lat="45.09717" lon="5.37111">
        <ele>887.84</ele>
        <time>2020-08-10T08:51:39.000Z</time>
      </trkpt>
      <trkpt lat="45.0971" lon="5.3713">
        <ele>888.49</ele>
        <time>2020-08-10T08:51:44.000Z</time>
      </trkpt>
      <trkpt lat="45.09699" lon="5.37148">
        <ele>890.52</ele>
        <time>2020-08-10T08:51:49.000Z</time>
      </trkpt>
      <trkpt lat="45.09693" lon="5.37163">
        <ele>892.04</ele>
        <time>2020-08-10T08:51:54.000Z</time>
      </trkpt>
      <trkpt lat="45.09689" lon="5.37177">
        <ele>893.16</ele>
        <time>2020-08-10T08:52:00.000Z</time>
      </trkpt>
      <trkpt lat="45.09682" lon="5.37195">
        <ele>893.87</ele>
        <time>2020-08-10T08:52:05.000Z</time>
      </trkpt>
      <trkpt lat="45.09681" lon="5.37212">
        <ele>893.99</ele>
        <time>2020-08-10T08:52:10.000Z</time>
      </trkpt>
      <trkpt lat="45.09679" lon="5.37242">
        <ele>893.23</ele>
        <time>2020-08-10T08:52:15.000Z</time>
      </trkpt>
      <trkpt lat="45.09679" lon="5.37268">
        <ele>896.03</ele>
        <time>2020-08-10T08:52:20.000Z</time>
      </trkpt>
      <trkpt lat="45.09673" lon="5.37293">
        <ele>892.77</ele>
        <time>2020-08-10T08:52:25.000Z</time>
      </trkpt>
      <trkpt lat="45.09666" lon="5.37316">
        <ele>892.39</ele>
        <time>2020-08-10T08:52:30.000Z</time>
      </trkpt>
      <trkpt lat="45.09666" lon="5.37342">
        <ele>894.34</ele>
        <time>2020-08-10T08:52:35.000Z</time>
      </trkpt>
      <trkpt lat="45.09667" lon="5.37367">
        <ele>895.78</ele>
        <time>2020-08-10T08:52:40.000Z</time>
      </trkpt>
      <trkpt lat="45.09696" lon="5.37389">
        <ele>902.78</ele>
        <time>2020-08-10T08:52:45.000Z</time>
      </trkpt>
      <trkpt lat="45.09686" lon="5.37414">
        <ele>903</ele>
        <time>2020-08-10T08:52:50.000Z</time>
      </trkpt>
      <trkpt lat="45.09685" lon="5.37436">
        <ele>903.42</ele>
        <time>2020-08-10T08:52:55.000Z</time>
      </trkpt>
      <trkpt lat="45.09693" lon="5.37449">
        <ele>905.88</ele>
        <time>2020-08-10T08:53:00.000Z</time>
      </trkpt>
      <trkpt lat="45.09716" lon="5.3746">
        <ele>909.99</ele>
        <time>2020-08-10T08:53:05.000Z</time>
      </trkpt>
      <trkpt lat="45.09734" lon="5.37473">
        <ele>913.74</ele>
        <time>2020-08-10T08:53:10.000Z</time>
      </trkpt>
      <trkpt lat="45.09755" lon="5.37482">
        <ele>914.47</ele>
        <time>2020-08-10T08:53:15.000Z</time>
      </trkpt>
      <trkpt lat="45.09777" lon="5.37489">
        <ele>917.24</ele>
        <time>2020-08-10T08:53:20.000Z</time>
      </trkpt>
      <trkpt lat="45.098" lon="5.37492">
        <ele>917.65</ele>
        <time>2020-08-10T08:53:25.000Z</time>
      </trkpt>
      <trkpt lat="45.09813" lon="5.37495">
        <ele>918.31</ele>
        <time>2020-08-10T08:53:30.000Z</time>
      </trkpt>
      <trkpt lat="45.09825" lon="5.375">
        <ele>925.12</ele>
        <time>2020-08-10T08:53:35.000Z</time>
      </trkpt>
      <trkpt lat="45.09835" lon="5.37512">
        <ele>927.07</ele>
        <time>2020-08-10T08:53:40.000Z</time>
      </trkpt>
      <trkpt lat="45.09847" lon="5.37528">
        <ele>927.42</ele>
        <time>2020-08-10T08:53:45.000Z</time>
      </trkpt>
      <trkpt lat="45.09859" lon="5.37544">
        <ele>929.96</ele>
        <time>2020-08-10T08:53:50.000Z</time>
      </trkpt>
      <trkpt lat="45.09869" lon="5.37562">
        <ele>934.66</ele>
        <time>2020-08-10T08:53:55.000Z</time>
      </trkpt>
      <trkpt lat="45.09881" lon="5.37585">
        <ele>931.37</ele>
        <time>2020-08-10T08:54:00.000Z</time>
      </trkpt>
      <trkpt lat="45.09896" lon="5.37595">
        <ele>932.62</ele>
        <time>2020-08-10T08:54:05.000Z</time>
      </trkpt>
      <trkpt lat="45.09908" lon="5.37604">
        <ele>936.74</ele>
        <time>2020-08-10T08:54:10.000Z</time>
      </trkpt>
      <trkpt lat="45.09917" lon="5.37613">
        <ele>940.83</ele>
        <time>2020-08-10T08:56:51.000Z</time>
      </trkpt>
      <trkpt lat="45.09932" lon="5.37642">
        <ele>939.73</ele>
        <time>2020-08-10T08:56:56.000Z</time>
      </trkpt>
      <trkpt lat="45.09942" lon="5.3768">
        <ele>936.49</ele>
        <time>2020-08-10T08:57:01.000Z</time>
      </trkpt>
      <trkpt lat="45.09947" lon="5.377">
        <ele>934.91</ele>
        <time>2020-08-10T08:57:06.000Z</time>
      </trkpt>
      <trkpt lat="45.09955" lon="5.37714">
        <ele>933.02</ele>
        <time>2020-08-10T08:57:11.000Z</time>
      </trkpt>
      <trkpt lat="45.09963" lon="5.37725">
        <ele>933.33</ele>
        <time>2020-08-10T08:58:20.000Z</time>
      </trkpt>
      <trkpt lat="45.09982" lon="5.37743">
        <ele>933.29</ele>
        <time>2020-08-10T08:58:25.000Z</time>
      </trkpt>
      <trkpt lat="45.1" lon="5.37758">
        <ele>935.06</ele>
        <time>2020-08-10T08:58:30.000Z</time>
      </trkpt>
      <trkpt lat="45.10018" lon="5.37771">
        <ele>931.81</ele>
        <time>2020-08-10T08:58:35.000Z</time>
      </trkpt>
      <trkpt lat="45.10037" lon="5.37788">
        <ele>931.53</ele>
        <time>2020-08-10T08:58:40.000Z</time>
      </trkpt>
      <trkpt lat="45.10046" lon="5.37828">
        <ele>931.24</ele>
        <time>2020-08-10T08:58:45.000Z</time>
      </trkpt>
      <trkpt lat="45.1004" lon="5.37871">
        <ele>926.06</ele>
        <time>2020-08-10T08:58:50.000Z</time>
      </trkpt>
      <trkpt lat="45.10009" lon="5.37893">
        <ele>927.06</ele>
        <time>2020-08-10T08:58:55.000Z</time>
      </trkpt>
      <trkpt lat="45.0997" lon="5.37901">
        <ele>923.82</ele>
        <time>2020-08-10T08:59:00.000Z</time>
      </trkpt>
      <trkpt lat="45.09935" lon="5.37931">
        <ele>922.13</ele>
        <time>2020-08-10T08:59:05.000Z</time>
      </trkpt>
      <trkpt lat="45.09908" lon="5.3797">
        <ele>917.09</ele>
        <time>2020-08-10T08:59:10.000Z</time>
      </trkpt>
      <trkpt lat="45.09867" lon="5.37979">
        <ele>914.87</ele>
        <time>2020-08-10T08:59:15.000Z</time>
      </trkpt>
      <trkpt lat="45.09826" lon="5.37999">
        <ele>915.14</ele>
        <time>2020-08-10T08:59:20.000Z</time>
      </trkpt>
      <trkpt lat="45.09785" lon="5.38028">
        <ele>911.67</ele>
        <time>2020-08-10T08:59:25.000Z</time>
      </trkpt>
      <trkpt lat="45.09744" lon="5.38054">
        <ele>912.57</ele>
        <time>2020-08-10T08:59:30.000Z</time>
      </trkpt>
      <trkpt lat="45.09703" lon="5.38087">
        <ele>909.37</ele>
        <time>2020-08-10T08:59:35.000Z</time>
      </trkpt>
      <trkpt lat="45.09662" lon="5.38112">
        <ele>909.35</ele>
        <time>2020-08-10T08:59:40.000Z</time>
      </trkpt>
      <trkpt lat="45.09626" lon="5.38134">
        <ele>908.71</ele>
        <time>2020-08-10T08:59:45.000Z</time>
      </trkpt>
      <trkpt lat="45.09595" lon="5.3815">
        <ele>903.47</ele>
        <time>2020-08-10T08:59:50.000Z</time>
      </trkpt>
      <trkpt lat="45.09564" lon="5.38169">
        <ele>899.96</ele>
        <time>2020-08-10T08:59:55.000Z</time>
      </trkpt>
      <trkpt lat="45.09528" lon="5.3818">
        <ele>899.01</ele>
        <time>2020-08-10T09:00:00.000Z</time>
      </trkpt>
      <trkpt lat="45.09491" lon="5.38181">
        <ele>897.91</ele>
        <time>2020-08-10T09:00:05.000Z</time>
      </trkpt>
      <trkpt lat="45.09444" lon="5.38183">
        <ele>892.4</ele>
        <time>2020-08-10T09:00:10.000Z</time>
      </trkpt>
      <trkpt lat="45.09391" lon="5.38178">
        <ele>890.14</ele>
        <time>2020-08-10T09:00:15.000Z</time>
      </trkpt>
      <trkpt lat="45.09345" lon="5.38189">
        <ele>887.12</ele>
        <time>2020-08-10T09:00:20.000Z</time>
      </trkpt>
      <trkpt lat="45.09307" lon="5.38202">
        <ele>883.96</ele>
        <time>2020-08-10T09:00:25.000Z</time>
      </trkpt>
      <trkpt lat="45.09289" lon="5.38209">
        <ele>882.9</ele>
        <time>2020-08-10T09:00:30.000Z</time>
      </trkpt>
      <trkpt lat="45.0928" lon="5.38215">
        <ele>875.7</ele>
        <time>2020-08-10T09:01:01.000Z</time>
      </trkpt>
      <trkpt lat="45.09271" lon="5.38216">
        <ele>870.5</ele>
        <time>2020-08-10T09:01:07.000Z</time>
      </trkpt>
      <trkpt lat="45.09261" lon="5.38221">
        <ele>869.23</ele>
        <time>2020-08-10T09:01:13.000Z</time>
      </trkpt>
      <trkpt lat="45.09242" lon="5.38227">
        <ele>866.51</ele>
        <time>2020-08-10T09:01:18.000Z</time>
      </trkpt>
      <trkpt lat="45.09226" lon="5.38243">
        <ele>861.03</ele>
        <time>2020-08-10T09:01:23.000Z</time>
      </trkpt>
      <trkpt lat="45.09218" lon="5.38262">
        <ele>861.76</ele>
        <time>2020-08-10T09:01:28.000Z</time>
      </trkpt>
      <trkpt lat="45.09216" lon="5.38276">
        <ele>859.12</ele>
        <time>2020-08-10T09:01:33.000Z</time>
      </trkpt>
      <trkpt lat="45.09223" lon="5.38291">
        <ele>859.69</ele>
        <time>2020-08-10T09:01:38.000Z</time>
      </trkpt>
      <trkpt lat="45.09234" lon="5.38304">
        <ele>859.68</ele>
        <time>2020-08-10T09:01:43.000Z</time>
      </trkpt>
      <trkpt lat="45.09244" lon="5.38313">
        <ele>860.29</ele>
        <time>2020-08-10T09:01:48.000Z</time>
      </trkpt>
      <trkpt lat="45.09251" lon="5.38323">
        <ele>860.51</ele>
        <time>2020-08-10T09:01:53.000Z</time>
      </trkpt>
      <trkpt lat="45.09261" lon="5.38336">
        <ele>861.83</ele>
        <time>2020-08-10T09:01:58.000Z</time>
      </trkpt>
      <trkpt lat="45.09274" lon="5.38352">
        <ele>860.52</ele>
        <time>2020-08-10T09:02:03.000Z</time>
      </trkpt>
      <trkpt lat="45.09291" lon="5.3837">
        <ele>862.13</ele>
        <time>2020-08-10T09:02:08.000Z</time>
      </trkpt>
      <trkpt lat="45.09309" lon="5.38398">
        <ele>858.75</ele>
        <time>2020-08-10T09:02:13.000Z</time>
      </trkpt>
      <trkpt lat="45.09324" lon="5.3843">
        <ele>857.61</ele>
        <time>2020-08-10T09:02:18.000Z</time>
      </trkpt>
      <trkpt lat="45.09341" lon="5.38453">
        <ele>857.89</ele>
        <time>2020-08-10T09:02:23.000Z</time>
      </trkpt>
      <trkpt lat="45.09358" lon="5.38481">
        <ele>857.54</ele>
        <time>2020-08-10T09:02:28.000Z</time>
      </trkpt>
      <trkpt lat="45.09367" lon="5.38513">
        <ele>859.22</ele>
        <time>2020-08-10T09:02:33.000Z</time>
      </trkpt>
      <trkpt lat="45.09387" lon="5.38534">
        <ele>859.68</ele>
        <time>2020-08-10T09:02:38.000Z</time>
      </trkpt>
      <trkpt lat="45.094" lon="5.38545">
        <ele>859.28</ele>
        <time>2020-08-10T09:02:43.000Z</time>
      </trkpt>
      <trkpt lat="45.09422" lon="5.38557">
        <ele>859.28</ele>
        <time>2020-08-10T09:02:48.000Z</time>
      </trkpt>
      <trkpt lat="45.09444" lon="5.38563">
        <ele>859.28</ele>
        <time>2020-08-10T09:02:53.000Z</time>
      </trkpt>
      <trkpt lat="45.09461" lon="5.38571">
        <ele>859.27</ele>
        <time>2020-08-10T09:02:58.000Z</time>
      </trkpt>
      <trkpt lat="45.0948" lon="5.3858">
        <ele>856.98</ele>
        <time>2020-08-10T09:03:03.000Z</time>
      </trkpt>
      <trkpt lat="45.09495" lon="5.3859">
        <ele>855.08</ele>
        <time>2020-08-10T09:03:08.000Z</time>
      </trkpt>
      <trkpt lat="45.0951" lon="5.38606">
        <ele>853.22</ele>
        <time>2020-08-10T09:03:13.000Z</time>
      </trkpt>
      <trkpt lat="45.09532" lon="5.38619">
        <ele>855.6</ele>
        <time>2020-08-10T09:03:18.000Z</time>
      </trkpt>
      <trkpt lat="45.09554" lon="5.38636">
        <ele>856.55</ele>
        <time>2020-08-10T09:03:23.000Z</time>
      </trkpt>
      <trkpt lat="45.09566" lon="5.38662">
        <ele>852.41</ele>
        <time>2020-08-10T09:03:28.000Z</time>
      </trkpt>
      <trkpt lat="45.09562" lon="5.3869">
        <ele>853.21</ele>
        <time>2020-08-10T09:03:33.000Z</time>
      </trkpt>
      <trkpt lat="45.09556" lon="5.38719">
        <ele>858.14</ele>
        <time>2020-08-10T09:03:38.000Z</time>
      </trkpt>
      <trkpt lat="45.09571" lon="5.38745">
        <ele>863.69</ele>
        <time>2020-08-10T09:03:43.000Z</time>
      </trkpt>
      <trkpt lat="45.09586" lon="5.38745">
        <ele>860.04</ele>
        <time>2020-08-10T09:03:48.000Z</time>
      </trkpt>
      <trkpt lat="45.09606" lon="5.38739">
        <ele>860.18</ele>
        <time>2020-08-10T09:03:53.000Z</time>
      </trkpt>
      <trkpt lat="45.09633" lon="5.38741">
        <ele>865.46</ele>
        <time>2020-08-10T09:03:58.000Z</time>
      </trkpt>
      <trkpt lat="45.09647" lon="5.38764">
        <ele>862.45</ele>
        <time>2020-08-10T09:04:03.000Z</time>
      </trkpt>
      <trkpt lat="45.09657" lon="5.38792">
        <ele>863.96</ele>
        <time>2020-08-10T09:04:08.000Z</time>
      </trkpt>
      <trkpt lat="45.09655" lon="5.38818">
        <ele>863.01</ele>
        <time>2020-08-10T09:04:13.000Z</time>
      </trkpt>
      <trkpt lat="45.09645" lon="5.38848">
        <ele>862.67</ele>
        <time>2020-08-10T09:04:18.000Z</time>
      </trkpt>
      <trkpt lat="45.09663" lon="5.38859">
        <ele>868.17</ele>
        <time>2020-08-10T09:04:23.000Z</time>
      </trkpt>
      <trkpt lat="45.09681" lon="5.3887">
        <ele>867.77</ele>
        <time>2020-08-10T09:04:28.000Z</time>
      </trkpt>
      <trkpt lat="45.09698" lon="5.38878">
        <ele>864.97</ele>
        <time>2020-08-10T09:04:33.000Z</time>
      </trkpt>
      <trkpt lat="45.09717" lon="5.38887">
        <ele>868.79</ele>
        <time>2020-08-10T09:04:38.000Z</time>
      </trkpt>
      <trkpt lat="45.09738" lon="5.38903">
        <ele>867.77</ele>
        <time>2020-08-10T09:04:43.000Z</time>
      </trkpt>
      <trkpt lat="45.09757" lon="5.38923">
        <ele>866.54</ele>
        <time>2020-08-10T09:04:48.000Z</time>
      </trkpt>
      <trkpt lat="45.09782" lon="5.38933">
        <ele>869.15</ele>
        <time>2020-08-10T09:04:53.000Z</time>
      </trkpt>
      <trkpt lat="45.09808" lon="5.38925">
        <ele>874.98</ele>
        <time>2020-08-10T09:04:58.000Z</time>
      </trkpt>
      <trkpt lat="45.09833" lon="5.38912">
        <ele>873.64</ele>
        <time>2020-08-10T09:05:03.000Z</time>
      </trkpt>
      <trkpt lat="45.09855" lon="5.38912">
        <ele>873.72</ele>
        <time>2020-08-10T09:05:08.000Z</time>
      </trkpt>
      <trkpt lat="45.0987" lon="5.38928">
        <ele>873.9</ele>
        <time>2020-08-10T09:05:13.000Z</time>
      </trkpt>
      <trkpt lat="45.09888" lon="5.3895">
        <ele>874.79</ele>
        <time>2020-08-10T09:05:18.000Z</time>
      </trkpt>
      <trkpt lat="45.09905" lon="5.38974">
        <ele>875.13</ele>
        <time>2020-08-10T09:05:23.000Z</time>
      </trkpt>
      <trkpt lat="45.09926" lon="5.38997">
        <ele>877.24</ele>
        <time>2020-08-10T09:05:28.000Z</time>
      </trkpt>
      <trkpt lat="45.09946" lon="5.39011">
        <ele>883.54</ele>
        <time>2020-08-10T09:05:33.000Z</time>
      </trkpt>
      <trkpt lat="45.09968" lon="5.39016">
        <ele>885.46</ele>
        <time>2020-08-10T09:05:38.000Z</time>
      </trkpt>
      <trkpt lat="45.09993" lon="5.39015">
        <ele>893.1</ele>
        <time>2020-08-10T09:05:43.000Z</time>
      </trkpt>
      <trkpt lat="45.10011" lon="5.38999">
        <ele>894.98</ele>
        <time>2020-08-10T09:05:48.000Z</time>
      </trkpt>
      <trkpt lat="45.10033" lon="5.38978">
        <ele>898.05</ele>
        <time>2020-08-10T09:05:53.000Z</time>
      </trkpt>
      <trkpt lat="45.10053" lon="5.38957">
        <ele>901.01</ele>
        <time>2020-08-10T09:05:58.000Z</time>
      </trkpt>
      <trkpt lat="45.1008" lon="5.38955">
        <ele>899.23</ele>
        <time>2020-08-10T09:06:03.000Z</time>
      </trkpt>
      <trkpt lat="45.10101" lon="5.38973">
        <ele>900.06</ele>
        <time>2020-08-10T09:06:08.000Z</time>
      </trkpt>
      <trkpt lat="45.10119" lon="5.38989">
        <ele>900.9</ele>
        <time>2020-08-10T09:06:13.000Z</time>
      </trkpt>
      <trkpt lat="45.1014" lon="5.39002">
        <ele>902.22</ele>
        <time>2020-08-10T09:06:18.000Z</time>
      </trkpt>
      <trkpt lat="45.10168" lon="5.39022">
        <ele>904.17</ele>
        <time>2020-08-10T09:06:23.000Z</time>
      </trkpt>
      <trkpt lat="45.10194" lon="5.39048">
        <ele>903</ele>
        <time>2020-08-10T09:06:28.000Z</time>
      </trkpt>
      <trkpt lat="45.10213" lon="5.39056">
        <ele>904.75</ele>
        <time>2020-08-10T09:06:33.000Z</time>
      </trkpt>
      <trkpt lat="45.10226" lon="5.39084">
        <ele>905.33</ele>
        <time>2020-08-10T09:06:38.000Z</time>
      </trkpt>
      <trkpt lat="45.10233" lon="5.39119">
        <ele>908.48</ele>
        <time>2020-08-10T09:06:43.000Z</time>
      </trkpt>
      <trkpt lat="45.10249" lon="5.39144">
        <ele>904.74</ele>
        <time>2020-08-10T09:06:48.000Z</time>
      </trkpt>
      <trkpt lat="45.10273" lon="5.39158">
        <ele>898.17</ele>
        <time>2020-08-10T09:06:53.000Z</time>
      </trkpt>
      <trkpt lat="45.10293" lon="5.39169">
        <ele>896.81</ele>
        <time>2020-08-10T09:06:58.000Z</time>
      </trkpt>
      <trkpt lat="45.10312" lon="5.39175">
        <ele>898.41</ele>
        <time>2020-08-10T09:07:03.000Z</time>
      </trkpt>
      <trkpt lat="45.10333" lon="5.39172">
        <ele>896.7</ele>
        <time>2020-08-10T09:07:08.000Z</time>
      </trkpt>
      <trkpt lat="45.10352" lon="5.39168">
        <ele>901.49</ele>
        <time>2020-08-10T09:07:13.000Z</time>
      </trkpt>
      <trkpt lat="45.10363" lon="5.39168">
        <ele>909.51</ele>
        <time>2020-08-10T09:08:22.000Z</time>
      </trkpt>
      <trkpt lat="45.10377" lon="5.39165">
        <ele>915.44</ele>
        <time>2020-08-10T09:08:27.000Z</time>
      </trkpt>
      <trkpt lat="45.10392" lon="5.39165">
        <ele>920.08</ele>
        <time>2020-08-10T09:08:32.000Z</time>
      </trkpt>
      <trkpt lat="45.10405" lon="5.39168">
        <ele>922.17</ele>
        <time>2020-08-10T09:08:37.000Z</time>
      </trkpt>
      <trkpt lat="45.10424" lon="5.39172">
        <ele>925.57</ele>
        <time>2020-08-10T09:08:42.000Z</time>
      </trkpt>
      <trkpt lat="45.10439" lon="5.39188">
        <ele>924.96</ele>
        <time>2020-08-10T09:08:47.000Z</time>
      </trkpt>
      <trkpt lat="45.10452" lon="5.39204">
        <ele>925.52</ele>
        <time>2020-08-10T09:08:52.000Z</time>
      </trkpt>
      <trkpt lat="45.1047" lon="5.39216">
        <ele>924.38</ele>
        <time>2020-08-10T09:08:57.000Z</time>
      </trkpt>
      <trkpt lat="45.10488" lon="5.39227">
        <ele>922.17</ele>
        <time>2020-08-10T09:09:02.000Z</time>
      </trkpt>
      <trkpt lat="45.10504" lon="5.39243">
        <ele>922.97</ele>
        <time>2020-08-10T09:09:07.000Z</time>
      </trkpt>
      <trkpt lat="45.10521" lon="5.39258">
        <ele>924.08</ele>
        <time>2020-08-10T09:09:12.000Z</time>
      </trkpt>
      <trkpt lat="45.10547" lon="5.39279">
        <ele>921.1</ele>
        <time>2020-08-10T09:09:17.000Z</time>
      </trkpt>
      <trkpt lat="45.10563" lon="5.39297">
        <ele>921.1</ele>
        <time>2020-08-10T09:09:22.000Z</time>
      </trkpt>
      <trkpt lat="45.10579" lon="5.3932">
        <ele>925.47</ele>
        <time>2020-08-10T09:09:27.000Z</time>
      </trkpt>
      <trkpt lat="45.10602" lon="5.39326">
        <ele>917.81</ele>
        <time>2020-08-10T09:09:32.000Z</time>
      </trkpt>
      <trkpt lat="45.10626" lon="5.39332">
        <ele>920.62</ele>
        <time>2020-08-10T09:09:37.000Z</time>
      </trkpt>
      <trkpt lat="45.1065" lon="5.39344">
        <ele>918.19</ele>
        <time>2020-08-10T09:09:42.000Z</time>
      </trkpt>
      <trkpt lat="45.1067" lon="5.39363">
        <ele>919.31</ele>
        <time>2020-08-10T09:09:47.000Z</time>
      </trkpt>
      <trkpt lat="45.10682" lon="5.39387">
        <ele>922.88</ele>
        <time>2020-08-10T09:09:52.000Z</time>
      </trkpt>
      <trkpt lat="45.10695" lon="5.39407">
        <ele>919.43</ele>
        <time>2020-08-10T09:09:57.000Z</time>
      </trkpt>
      <trkpt lat="45.1071" lon="5.39428">
        <ele>926.23</ele>
        <time>2020-08-10T09:10:02.000Z</time>
      </trkpt>
      <trkpt lat="45.10718" lon="5.39458">
        <ele>931.56</ele>
        <time>2020-08-10T09:10:07.000Z</time>
      </trkpt>
      <trkpt lat="45.10724" lon="5.3949">
        <ele>930.01</ele>
        <time>2020-08-10T09:10:12.000Z</time>
      </trkpt>
      <trkpt lat="45.10739" lon="5.39512">
        <ele>930.75</ele>
        <time>2020-08-10T09:10:17.000Z</time>
      </trkpt>
      <trkpt lat="45.10755" lon="5.39533">
        <ele>931.49</ele>
        <time>2020-08-10T09:10:22.000Z</time>
      </trkpt>
      <trkpt lat="45.10773" lon="5.39548">
        <ele>931.29</ele>
        <time>2020-08-10T09:10:27.000Z</time>
      </trkpt>
      <trkpt lat="45.10784" lon="5.39573">
        <ele>935.52</ele>
        <time>2020-08-10T09:10:32.000Z</time>
      </trkpt>
      <trkpt lat="45.10787" lon="5.39604">
        <ele>938.27</ele>
        <time>2020-08-10T09:10:37.000Z</time>
      </trkpt>
      <trkpt lat="45.10783" lon="5.39631">
        <ele>939.19</ele>
        <time>2020-08-10T09:10:42.000Z</time>
      </trkpt>
      <trkpt lat="45.10785" lon="5.3966">
        <ele>938.25</ele>
        <time>2020-08-10T09:10:47.000Z</time>
      </trkpt>
      <trkpt lat="45.10803" lon="5.3968">
        <ele>943.51</ele>
        <time>2020-08-10T09:10:52.000Z</time>
      </trkpt>
      <trkpt lat="45.10823" lon="5.3969">
        <ele>944.39</ele>
        <time>2020-08-10T09:10:57.000Z</time>
      </trkpt>
      <trkpt lat="45.10843" lon="5.39701">
        <ele>947.09</ele>
        <time>2020-08-10T09:11:02.000Z</time>
      </trkpt>
      <trkpt lat="45.10863" lon="5.39717">
        <ele>946.45</ele>
        <time>2020-08-10T09:11:07.000Z</time>
      </trkpt>
      <trkpt lat="45.10881" lon="5.39721">
        <ele>946.46</ele>
        <time>2020-08-10T09:11:12.000Z</time>
      </trkpt>
      <trkpt lat="45.10903" lon="5.39719">
        <ele>950</ele>
        <time>2020-08-10T09:11:17.000Z</time>
      </trkpt>
      <trkpt lat="45.10923" lon="5.39718">
        <ele>948.35</ele>
        <time>2020-08-10T09:11:22.000Z</time>
      </trkpt>
      <trkpt lat="45.10944" lon="5.39722">
        <ele>949.1</ele>
        <time>2020-08-10T09:11:27.000Z</time>
      </trkpt>
      <trkpt lat="45.10965" lon="5.39737">
        <ele>948.54</ele>
        <time>2020-08-10T09:11:32.000Z</time>
      </trkpt>
      <trkpt lat="45.10978" lon="5.39759">
        <ele>949.37</ele>
        <time>2020-08-10T09:11:37.000Z</time>
      </trkpt>
      <trkpt lat="45.10991" lon="5.39779">
        <ele>950.09</ele>
        <time>2020-08-10T09:11:42.000Z</time>
      </trkpt>
      <trkpt lat="45.11007" lon="5.39797">
        <ele>949.93</ele>
        <time>2020-08-10T09:11:47.000Z</time>
      </trkpt>
      <trkpt lat="45.11023" lon="5.39811">
        <ele>948.1</ele>
        <time>2020-08-10T09:11:52.000Z</time>
      </trkpt>
      <trkpt lat="45.1104" lon="5.39821">
        <ele>945.93</ele>
        <time>2020-08-10T09:11:57.000Z</time>
      </trkpt>
      <trkpt lat="45.1106" lon="5.39828">
        <ele>948.07</ele>
        <time>2020-08-10T09:12:02.000Z</time>
      </trkpt>
      <trkpt lat="45.11081" lon="5.39832">
        <ele>953.42</ele>
        <time>2020-08-10T09:12:07.000Z</time>
      </trkpt>
      <trkpt lat="45.11103" lon="5.39838">
        <ele>957.08</ele>
        <time>2020-08-10T09:12:12.000Z</time>
      </trkpt>
      <trkpt lat="45.11125" lon="5.39846">
        <ele>959.75</ele>
        <time>2020-08-10T09:12:17.000Z</time>
      </trkpt>
      <trkpt lat="45.11144" lon="5.39858">
        <ele>961.27</ele>
        <time>2020-08-10T09:12:22.000Z</time>
      </trkpt>
      <trkpt lat="45.11163" lon="5.39869">
        <ele>960.78</ele>
        <time>2020-08-10T09:12:27.000Z</time>
      </trkpt>
      <trkpt lat="45.11181" lon="5.39879">
        <ele>958.65</ele>
        <time>2020-08-10T09:12:32.000Z</time>
      </trkpt>
      <trkpt lat="45.11201" lon="5.39886">
        <ele>956.51</ele>
        <time>2020-08-10T09:12:37.000Z</time>
      </trkpt>
      <trkpt lat="45.11219" lon="5.3989">
        <ele>959.38</ele>
        <time>2020-08-10T09:12:42.000Z</time>
      </trkpt>
      <trkpt lat="45.11237" lon="5.39883">
        <ele>962.23</ele>
        <time>2020-08-10T09:12:47.000Z</time>
      </trkpt>
      <trkpt lat="45.11256" lon="5.3988">
        <ele>963.14</ele>
        <time>2020-08-10T09:12:52.000Z</time>
      </trkpt>
      <trkpt lat="45.11272" lon="5.39875">
        <ele>964.41</ele>
        <time>2020-08-10T09:12:57.000Z</time>
      </trkpt>
      <trkpt lat="45.11288" lon="5.39864">
        <ele>966.95</ele>
        <time>2020-08-10T09:13:02.000Z</time>
      </trkpt>
      <trkpt lat="45.11305" lon="5.39851">
        <ele>969.3</ele>
        <time>2020-08-10T09:13:07.000Z</time>
      </trkpt>
      <trkpt lat="45.11323" lon="5.39848">
        <ele>970.68</ele>
        <time>2020-08-10T09:13:12.000Z</time>
      </trkpt>
      <trkpt lat="45.11347" lon="5.39851">
        <ele>972.73</ele>
        <time>2020-08-10T09:13:17.000Z</time>
      </trkpt>
      <trkpt lat="45.11369" lon="5.39852">
        <ele>976.44</ele>
        <time>2020-08-10T09:13:22.000Z</time>
      </trkpt>
      <trkpt lat="45.11389" lon="5.39861">
        <ele>980.12</ele>
        <time>2020-08-10T09:13:27.000Z</time>
      </trkpt>
      <trkpt lat="45.11406" lon="5.3988">
        <ele>981.65</ele>
        <time>2020-08-10T09:13:32.000Z</time>
      </trkpt>
      <trkpt lat="45.11424" lon="5.39897">
        <ele>987.82</ele>
        <time>2020-08-10T09:13:37.000Z</time>
      </trkpt>
      <trkpt lat="45.11442" lon="5.3991">
        <ele>994.71</ele>
        <time>2020-08-10T09:13:42.000Z</time>
      </trkpt>
      <trkpt lat="45.11461" lon="5.39923">
        <ele>996.86</ele>
        <time>2020-08-10T09:13:47.000Z</time>
      </trkpt>
      <trkpt lat="45.11481" lon="5.39933">
        <ele>1000.12</ele>
        <time>2020-08-10T09:13:52.000Z</time>
      </trkpt>
      <trkpt lat="45.11501" lon="5.39952">
        <ele>998.34</ele>
        <time>2020-08-10T09:13:57.000Z</time>
      </trkpt>
      <trkpt lat="45.11526" lon="5.39975">
        <ele>999.12</ele>
        <time>2020-08-10T09:14:02.000Z</time>
      </trkpt>
      <trkpt lat="45.11539" lon="5.39987">
        <ele>1000.66</ele>
        <time>2020-08-10T09:14:07.000Z</time>
      </trkpt>
      <trkpt lat="45.11545" lon="5.39998">
        <ele>999.99</ele>
        <time>2020-08-10T09:18:34.000Z</time>
      </trkpt>
      <trkpt lat="45.11554" lon="5.40018">
        <ele>1002.48</ele>
        <time>2020-08-10T09:18:39.000Z</time>
      </trkpt>
      <trkpt lat="45.11562" lon="5.4004">
        <ele>1000.68</ele>
        <time>2020-08-10T09:18:44.000Z</time>
      </trkpt>
      <trkpt lat="45.11571" lon="5.40061">
        <ele>997.18</ele>
        <time>2020-08-10T09:18:49.000Z</time>
      </trkpt>
      <trkpt lat="45.11575" lon="5.40086">
        <ele>995.66</ele>
        <time>2020-08-10T09:18:54.000Z</time>
      </trkpt>
      <trkpt lat="45.11585" lon="5.40108">
        <ele>995.03</ele>
        <time>2020-08-10T09:18:59.000Z</time>
      </trkpt>
      <trkpt lat="45.11605" lon="5.40131">
        <ele>993.89</ele>
        <time>2020-08-10T09:19:04.000Z</time>
      </trkpt>
      <trkpt lat="45.11623" lon="5.40159">
        <ele>993.84</ele>
        <time>2020-08-10T09:19:09.000Z</time>
      </trkpt>
      <trkpt lat="45.11637" lon="5.40188">
        <ele>993.03</ele>
        <time>2020-08-10T09:19:14.000Z</time>
      </trkpt>
      <trkpt lat="45.11652" lon="5.40217">
        <ele>995.37</ele>
        <time>2020-08-10T09:19:19.000Z</time>
      </trkpt>
      <trkpt lat="45.11666" lon="5.40249">
        <ele>994.52</ele>
        <time>2020-08-10T09:19:24.000Z</time>
      </trkpt>
      <trkpt lat="45.11672" lon="5.4028">
        <ele>993.31</ele>
        <time>2020-08-10T09:19:29.000Z</time>
      </trkpt>
      <trkpt lat="45.11665" lon="5.40299">
        <ele>995.07</ele>
        <time>2020-08-10T09:19:34.000Z</time>
      </trkpt>
      <trkpt lat="45.11654" lon="5.40315">
        <ele>993.97</ele>
        <time>2020-08-10T09:19:39.000Z</time>
      </trkpt>
      <trkpt lat="45.11643" lon="5.40335">
        <ele>994.91</ele>
        <time>2020-08-10T09:19:44.000Z</time>
      </trkpt>
      <trkpt lat="45.11639" lon="5.40348">
        <ele>997.6</ele>
        <time>2020-08-10T09:19:49.000Z</time>
      </trkpt>
      <trkpt lat="45.1164" lon="5.40361">
        <ele>1007.91</ele>
        <time>2020-08-10T09:20:09.000Z</time>
      </trkpt>
      <trkpt lat="45.11653" lon="5.40378">
        <ele>1007.81</ele>
        <time>2020-08-10T09:20:14.000Z</time>
      </trkpt>
      <trkpt lat="45.11666" lon="5.40393">
        <ele>1006.3</ele>
        <time>2020-08-10T09:20:19.000Z</time>
      </trkpt>
      <trkpt lat="45.11683" lon="5.40406">
        <ele>1010.03</ele>
        <time>2020-08-10T09:20:24.000Z</time>
      </trkpt>
      <trkpt lat="45.11699" lon="5.40422">
        <ele>1012.07</ele>
        <time>2020-08-10T09:20:29.000Z</time>
      </trkpt>
      <trkpt lat="45.11714" lon="5.40438">
        <ele>1013.26</ele>
        <time>2020-08-10T09:20:34.000Z</time>
      </trkpt>
      <trkpt lat="45.11727" lon="5.40458">
        <ele>1016.49</ele>
        <time>2020-08-10T09:20:39.000Z</time>
      </trkpt>
      <trkpt lat="45.11733" lon="5.40479">
        <ele>1016.23</ele>
        <time>2020-08-10T09:20:44.000Z</time>
      </trkpt>
      <trkpt lat="45.11736" lon="5.40501">
        <ele>1013.49</ele>
        <time>2020-08-10T09:20:49.000Z</time>
      </trkpt>
      <trkpt lat="45.11738" lon="5.40522">
        <ele>1014.04</ele>
        <time>2020-08-10T09:20:54.000Z</time>
      </trkpt>
      <trkpt lat="45.11741" lon="5.40544">
        <ele>1014.34</ele>
        <time>2020-08-10T09:20:59.000Z</time>
      </trkpt>
      <trkpt lat="45.11751" lon="5.40562">
        <ele>1013.86</ele>
        <time>2020-08-10T09:21:04.000Z</time>
      </trkpt>
      <trkpt lat="45.11762" lon="5.40582">
        <ele>1018.11</ele>
        <time>2020-08-10T09:21:09.000Z</time>
      </trkpt>
      <trkpt lat="45.11768" lon="5.40603">
        <ele>1019.51</ele>
        <time>2020-08-10T09:21:14.000Z</time>
      </trkpt>
      <trkpt lat="45.11767" lon="5.40622">
        <ele>1019.43</ele>
        <time>2020-08-10T09:21:19.000Z</time>
      </trkpt>
      <trkpt lat="45.11765" lon="5.40644">
        <ele>1021.01</ele>
        <time>2020-08-10T09:21:24.000Z</time>
      </trkpt>
      <trkpt lat="45.11768" lon="5.40666">
        <ele>1024.7</ele>
        <time>2020-08-10T09:21:29.000Z</time>
      </trkpt>
      <trkpt lat="45.11779" lon="5.40685">
        <ele>1021.96</ele>
        <time>2020-08-10T09:21:34.000Z</time>
      </trkpt>
      <trkpt lat="45.11793" lon="5.40698">
        <ele>1020.16</ele>
        <time>2020-08-10T09:21:39.000Z</time>
      </trkpt>
      <trkpt lat="45.11807" lon="5.40706">
        <ele>1022.08</ele>
        <time>2020-08-10T09:21:44.000Z</time>
      </trkpt>
      <trkpt lat="45.11822" lon="5.40713">
        <ele>1021.89</ele>
        <time>2020-08-10T09:21:49.000Z</time>
      </trkpt>
      <trkpt lat="45.11834" lon="5.40722">
        <ele>1022.58</ele>
        <time>2020-08-10T09:21:54.000Z</time>
      </trkpt>
      <trkpt lat="45.1185" lon="5.40727">
        <ele>1023.46</ele>
        <time>2020-08-10T09:21:59.000Z</time>
      </trkpt>
      <trkpt lat="45.11867" lon="5.40729">
        <ele>1025.09</ele>
        <time>2020-08-10T09:22:04.000Z</time>
      </trkpt>
      <trkpt lat="45.11885" lon="5.40727">
        <ele>1022.33</ele>
        <time>2020-08-10T09:22:09.000Z</time>
      </trkpt>
      <trkpt lat="45.119" lon="5.40732">
        <ele>1026.79</ele>
        <time>2020-08-10T09:22:14.000Z</time>
      </trkpt>
      <trkpt lat="45.11913" lon="5.4074">
        <ele>1027.07</ele>
        <time>2020-08-10T09:22:19.000Z</time>
      </trkpt>
      <trkpt lat="45.11931" lon="5.40741">
        <ele>1024.41</ele>
        <time>2020-08-10T09:22:24.000Z</time>
      </trkpt>
      <trkpt lat="45.11949" lon="5.40737">
        <ele>1030.14</ele>
        <time>2020-08-10T09:22:29.000Z</time>
      </trkpt>
      <trkpt lat="45.11967" lon="5.40735">
        <ele>1030.95</ele>
        <time>2020-08-10T09:22:34.000Z</time>
      </trkpt>
      <trkpt lat="45.11978" lon="5.4075">
        <ele>1033.29</ele>
        <time>2020-08-10T09:22:39.000Z</time>
      </trkpt>
      <trkpt lat="45.11977" lon="5.40775">
        <ele>1034.08</ele>
        <time>2020-08-10T09:22:44.000Z</time>
      </trkpt>
      <trkpt lat="45.11968" lon="5.40795">
        <ele>1035.4</ele>
        <time>2020-08-10T09:22:49.000Z</time>
      </trkpt>
      <trkpt lat="45.11961" lon="5.40812">
        <ele>1036.89</ele>
        <time>2020-08-10T09:22:54.000Z</time>
      </trkpt>
      <trkpt lat="45.11959" lon="5.40833">
        <ele>1038.55</ele>
        <time>2020-08-10T09:22:59.000Z</time>
      </trkpt>
      <trkpt lat="45.11958" lon="5.40854">
        <ele>1040.11</ele>
        <time>2020-08-10T09:23:04.000Z</time>
      </trkpt>
      <trkpt lat="45.11952" lon="5.40873">
        <ele>1038.89</ele>
        <time>2020-08-10T09:23:09.000Z</time>
      </trkpt>
      <trkpt lat="45.11947" lon="5.40895">
        <ele>1038.58</ele>
        <time>2020-08-10T09:23:14.000Z</time>
      </trkpt>
      <trkpt lat="45.11945" lon="5.40917">
        <ele>1042.97</ele>
        <time>2020-08-10T09:23:19.000Z</time>
      </trkpt>
      <trkpt lat="45.1194" lon="5.40936">
        <ele>1048</ele>
        <time>2020-08-10T09:23:24.000Z</time>
      </trkpt>
      <trkpt lat="45.11935" lon="5.40963">
        <ele>1046.89</ele>
        <time>2020-08-10T09:23:29.000Z</time>
      </trkpt>
      <trkpt lat="45.11935" lon="5.40994">
        <ele>1049.08</ele>
        <time>2020-08-10T09:23:34.000Z</time>
      </trkpt>
      <trkpt lat="45.11945" lon="5.41022">
        <ele>1055.41</ele>
        <time>2020-08-10T09:23:39.000Z</time>
      </trkpt>
      <trkpt lat="45.11959" lon="5.41047">
        <ele>1059.33</ele>
        <time>2020-08-10T09:23:44.000Z</time>
      </trkpt>
      <trkpt lat="45.1197" lon="5.41065">
        <ele>1059.12</ele>
        <time>2020-08-10T09:23:49.000Z</time>
      </trkpt>
      <trkpt lat="45.11972" lon="5.41087">
        <ele>1059.15</ele>
        <time>2020-08-10T09:23:54.000Z</time>
      </trkpt>
      <trkpt lat="45.11971" lon="5.41103">
        <ele>1059.58</ele>
        <time>2020-08-10T09:23:59.000Z</time>
      </trkpt>
      <trkpt lat="45.11961" lon="5.41109">
        <ele>1060.12</ele>
        <time>2020-08-10T09:24:04.000Z</time>
      </trkpt>
      <trkpt lat="45.1195" lon="5.41113">
        <ele>1060.57</ele>
        <time>2020-08-10T09:24:09.000Z</time>
      </trkpt>
      <trkpt lat="45.11959" lon="5.41118">
        <ele>1063.47</ele>
        <time>2020-08-10T09:24:23.000Z</time>
      </trkpt>
      <trkpt lat="45.11968" lon="5.41113">
        <ele>1063.13</ele>
        <time>2020-08-10T09:24:38.000Z</time>
      </trkpt>
      <trkpt lat="45.11956" lon="5.41115">
        <ele>1060.81</ele>
        <time>2020-08-10T09:25:12.000Z</time>
      </trkpt>
      <trkpt lat="45.11928" lon="5.41114">
        <ele>1060.58</ele>
        <time>2020-08-10T09:25:17.000Z</time>
      </trkpt>
      <trkpt lat="45.11904" lon="5.41122">
        <ele>1059.93</ele>
        <time>2020-08-10T09:25:22.000Z</time>
      </trkpt>
      <trkpt lat="45.11878" lon="5.41139">
        <ele>1062.89</ele>
        <time>2020-08-10T09:25:27.000Z</time>
      </trkpt>
      <trkpt lat="45.11854" lon="5.41156">
        <ele>1064.16</ele>
        <time>2020-08-10T09:25:32.000Z</time>
      </trkpt>
      <trkpt lat="45.11844" lon="5.41189">
        <ele>1061.36</ele>
        <time>2020-08-10T09:25:37.000Z</time>
      </trkpt>
      <trkpt lat="45.1182" lon="5.41219">
        <ele>1068.15</ele>
        <time>2020-08-10T09:25:42.000Z</time>
      </trkpt>
      <trkpt lat="45.11805" lon="5.41245">
        <ele>1069.06</ele>
        <time>2020-08-10T09:25:47.000Z</time>
      </trkpt>
      <trkpt lat="45.11788" lon="5.41266">
        <ele>1063.01</ele>
        <time>2020-08-10T09:25:52.000Z</time>
      </trkpt>
      <trkpt lat="45.11771" lon="5.41292">
        <ele>1062.59</ele>
        <time>2020-08-10T09:25:57.000Z</time>
      </trkpt>
      <trkpt lat="45.11763" lon="5.41321">
        <ele>1066.48</ele>
        <time>2020-08-10T09:26:02.000Z</time>
      </trkpt>
      <trkpt lat="45.11758" lon="5.41355">
        <ele>1071.75</ele>
        <time>2020-08-10T09:26:07.000Z</time>
      </trkpt>
      <trkpt lat="45.11756" lon="5.4139">
        <ele>1086</ele>
        <time>2020-08-10T09:26:12.000Z</time>
      </trkpt>
      <trkpt lat="45.11759" lon="5.41419">
        <ele>1084.51</ele>
        <time>2020-08-10T09:26:17.000Z</time>
      </trkpt>
      <trkpt lat="45.11767" lon="5.41438">
        <ele>1081.83</ele>
        <time>2020-08-10T09:26:22.000Z</time>
      </trkpt>
      <trkpt lat="45.11771" lon="5.4146">
        <ele>1087.59</ele>
        <time>2020-08-10T09:26:27.000Z</time>
      </trkpt>
      <trkpt lat="45.11779" lon="5.41482">
        <ele>1085.57</ele>
        <time>2020-08-10T09:26:32.000Z</time>
      </trkpt>
      <trkpt lat="45.1179" lon="5.41504">
        <ele>1089.7</ele>
        <time>2020-08-10T09:26:37.000Z</time>
      </trkpt>
      <trkpt lat="45.11796" lon="5.41528">
        <ele>1086.58</ele>
        <time>2020-08-10T09:26:42.000Z</time>
      </trkpt>
      <trkpt lat="45.11803" lon="5.41548">
        <ele>1088.78</ele>
        <time>2020-08-10T09:26:47.000Z</time>
      </trkpt>
      <trkpt lat="45.11809" lon="5.41564">
        <ele>1090.86</ele>
        <time>2020-08-10T09:26:52.000Z</time>
      </trkpt>
      <trkpt lat="45.11817" lon="5.41583">
        <ele>1091.4</ele>
        <time>2020-08-10T09:26:57.000Z</time>
      </trkpt>
      <trkpt lat="45.11834" lon="5.41604">
        <ele>1089.11</ele>
        <time>2020-08-10T09:27:02.000Z</time>
      </trkpt>
      <trkpt lat="45.11851" lon="5.4161">
        <ele>1096.02</ele>
        <time>2020-08-10T09:27:07.000Z</time>
      </trkpt>
      <trkpt lat="45.11867" lon="5.41619">
        <ele>1101.57</ele>
        <time>2020-08-10T09:27:12.000Z</time>
      </trkpt>
      <trkpt lat="45.1188" lon="5.41625">
        <ele>1105.44</ele>
        <time>2020-08-10T09:27:17.000Z</time>
      </trkpt>
      <trkpt lat="45.11894" lon="5.41629">
        <ele>1108.25</ele>
        <time>2020-08-10T09:27:22.000Z</time>
      </trkpt>
      <trkpt lat="45.1191" lon="5.41628">
        <ele>1109.72</ele>
        <time>2020-08-10T09:27:27.000Z</time>
      </trkpt>
      <trkpt lat="45.11929" lon="5.41623">
        <ele>1110.42</ele>
        <time>2020-08-10T09:27:32.000Z</time>
      </trkpt>
      <trkpt lat="45.11946" lon="5.41616">
        <ele>1111.07</ele>
        <time>2020-08-10T09:27:37.000Z</time>
      </trkpt>
      <trkpt lat="45.11962" lon="5.41611">
        <ele>1114.87</ele>
        <time>2020-08-10T09:27:42.000Z</time>
      </trkpt>
      <trkpt lat="45.11978" lon="5.41597">
        <ele>1115.12</ele>
        <time>2020-08-10T09:27:47.000Z</time>
      </trkpt>
      <trkpt lat="45.11995" lon="5.41598">
        <ele>1116.27</ele>
        <time>2020-08-10T09:27:52.000Z</time>
      </trkpt>
      <trkpt lat="45.12007" lon="5.41618">
        <ele>1117.12</ele>
        <time>2020-08-10T09:27:57.000Z</time>
      </trkpt>
      <trkpt lat="45.12011" lon="5.4164">
        <ele>1114.59</ele>
        <time>2020-08-10T09:28:02.000Z</time>
      </trkpt>
      <trkpt lat="45.12012" lon="5.41662">
        <ele>1115.82</ele>
        <time>2020-08-10T09:28:07.000Z</time>
      </trkpt>
      <trkpt lat="45.12013" lon="5.41684">
        <ele>1118.6</ele>
        <time>2020-08-10T09:28:12.000Z</time>
      </trkpt>
      <trkpt lat="45.12011" lon="5.41711">
        <ele>1118.49</ele>
        <time>2020-08-10T09:28:17.000Z</time>
      </trkpt>
      <trkpt lat="45.12012" lon="5.4174">
        <ele>1116.97</ele>
        <time>2020-08-10T09:28:22.000Z</time>
      </trkpt>
      <trkpt lat="45.12022" lon="5.41769">
        <ele>1115.45</ele>
        <time>2020-08-10T09:28:27.000Z</time>
      </trkpt>
      <trkpt lat="45.12041" lon="5.41785">
        <ele>1115.4</ele>
        <time>2020-08-10T09:28:32.000Z</time>
      </trkpt>
      <trkpt lat="45.12063" lon="5.41793">
        <ele>1115.43</ele>
        <time>2020-08-10T09:28:37.000Z</time>
      </trkpt>
      <trkpt lat="45.12084" lon="5.41804">
        <ele>1115.47</ele>
        <time>2020-08-10T09:28:42.000Z</time>
      </trkpt>
      <trkpt lat="45.12106" lon="5.41813">
        <ele>1116.14</ele>
        <time>2020-08-10T09:28:47.000Z</time>
      </trkpt>
      <trkpt lat="45.12128" lon="5.41825">
        <ele>1119.36</ele>
        <time>2020-08-10T09:28:52.000Z</time>
      </trkpt>
      <trkpt lat="45.12148" lon="5.41828">
        <ele>1119.8</ele>
        <time>2020-08-10T09:28:57.000Z</time>
      </trkpt>
      <trkpt lat="45.12165" lon="5.41822">
        <ele>1127.22</ele>
        <time>2020-08-10T09:29:02.000Z</time>
      </trkpt>
      <trkpt lat="45.12183" lon="5.41816">
        <ele>1133.91</ele>
        <time>2020-08-10T09:29:07.000Z</time>
      </trkpt>
      <trkpt lat="45.12202" lon="5.41818">
        <ele>1136.5</ele>
        <time>2020-08-10T09:29:12.000Z</time>
      </trkpt>
      <trkpt lat="45.12221" lon="5.41836">
        <ele>1140.95</ele>
        <time>2020-08-10T09:29:17.000Z</time>
      </trkpt>
      <trkpt lat="45.1223" lon="5.41864">
        <ele>1143.46</ele>
        <time>2020-08-10T09:29:22.000Z</time>
      </trkpt>
      <trkpt lat="45.12235" lon="5.4189">
        <ele>1151.38</ele>
        <time>2020-08-10T09:29:27.000Z</time>
      </trkpt>
      <trkpt lat="45.12244" lon="5.41907">
        <ele>1150.67</ele>
        <time>2020-08-10T09:29:32.000Z</time>
      </trkpt>
      <trkpt lat="45.12256" lon="5.41921">
        <ele>1153.24</ele>
        <time>2020-08-10T09:29:37.000Z</time>
      </trkpt>
      <trkpt lat="45.12269" lon="5.41935">
        <ele>1153.84</ele>
        <time>2020-08-10T09:29:42.000Z</time>
      </trkpt>
      <trkpt lat="45.12283" lon="5.41955">
        <ele>1158.35</ele>
        <time>2020-08-10T09:29:47.000Z</time>
      </trkpt>
      <trkpt lat="45.12299" lon="5.41973">
        <ele>1160.9</ele>
        <time>2020-08-10T09:29:52.000Z</time>
      </trkpt>
      <trkpt lat="45.12311" lon="5.41992">
        <ele>1163.02</ele>
        <time>2020-08-10T09:29:57.000Z</time>
      </trkpt>
      <trkpt lat="45.12326" lon="5.42005">
        <ele>1165.82</ele>
        <time>2020-08-10T09:30:02.000Z</time>
      </trkpt>
      <trkpt lat="45.12348" lon="5.42004">
        <ele>1168.64</ele>
        <time>2020-08-10T09:30:07.000Z</time>
      </trkpt>
      <trkpt lat="45.12362" lon="5.41988">
        <ele>1169.19</ele>
        <time>2020-08-10T09:30:12.000Z</time>
      </trkpt>
      <trkpt lat="45.12368" lon="5.41965">
        <ele>1167.36</ele>
        <time>2020-08-10T09:30:17.000Z</time>
      </trkpt>
      <trkpt lat="45.12373" lon="5.41941">
        <ele>1165.77</ele>
        <time>2020-08-10T09:30:22.000Z</time>
      </trkpt>
      <trkpt lat="45.12383" lon="5.41923">
        <ele>1166.48</ele>
        <time>2020-08-10T09:30:27.000Z</time>
      </trkpt>
      <trkpt lat="45.12401" lon="5.41908">
        <ele>1168.85</ele>
        <time>2020-08-10T09:30:32.000Z</time>
      </trkpt>
      <trkpt lat="45.12424" lon="5.41904">
        <ele>1169.77</ele>
        <time>2020-08-10T09:30:37.000Z</time>
      </trkpt>
      <trkpt lat="45.12444" lon="5.41906">
        <ele>1171.75</ele>
        <time>2020-08-10T09:30:42.000Z</time>
      </trkpt>
      <trkpt lat="45.12466" lon="5.41906">
        <ele>1171.46</ele>
        <time>2020-08-10T09:30:47.000Z</time>
      </trkpt>
      <trkpt lat="45.12485" lon="5.41905">
        <ele>1170.24</ele>
        <time>2020-08-10T09:30:52.000Z</time>
      </trkpt>
      <trkpt lat="45.12506" lon="5.41897">
        <ele>1171.72</ele>
        <time>2020-08-10T09:30:57.000Z</time>
      </trkpt>
      <trkpt lat="45.12527" lon="5.41896">
        <ele>1168.89</ele>
        <time>2020-08-10T09:31:02.000Z</time>
      </trkpt>
      <trkpt lat="45.12548" lon="5.41901">
        <ele>1174.37</ele>
        <time>2020-08-10T09:31:07.000Z</time>
      </trkpt>
      <trkpt lat="45.12564" lon="5.41911">
        <ele>1176.73</ele>
        <time>2020-08-10T09:31:12.000Z</time>
      </trkpt>
      <trkpt lat="45.12566" lon="5.41939">
        <ele>1180.13</ele>
        <time>2020-08-10T09:31:17.000Z</time>
      </trkpt>
      <trkpt lat="45.12568" lon="5.41966">
        <ele>1182.44</ele>
        <time>2020-08-10T09:31:22.000Z</time>
      </trkpt>
      <trkpt lat="45.12576" lon="5.41994">
        <ele>1187.01</ele>
        <time>2020-08-10T09:31:27.000Z</time>
      </trkpt>
      <trkpt lat="45.12579" lon="5.4202">
        <ele>1192.05</ele>
        <time>2020-08-10T09:31:32.000Z</time>
      </trkpt>
      <trkpt lat="45.12586" lon="5.42049">
        <ele>1194.63</ele>
        <time>2020-08-10T09:31:37.000Z</time>
      </trkpt>
      <trkpt lat="45.12606" lon="5.42072">
        <ele>1196.33</ele>
        <time>2020-08-10T09:31:42.000Z</time>
      </trkpt>
      <trkpt lat="45.12624" lon="5.421">
        <ele>1198.81</ele>
        <time>2020-08-10T09:31:47.000Z</time>
      </trkpt>
      <trkpt lat="45.12631" lon="5.42139">
        <ele>1201.01</ele>
        <time>2020-08-10T09:31:52.000Z</time>
      </trkpt>
      <trkpt lat="45.12641" lon="5.42172">
        <ele>1200.66</ele>
        <time>2020-08-10T09:31:57.000Z</time>
      </trkpt>
      <trkpt lat="45.12647" lon="5.42209">
        <ele>1202.17</ele>
        <time>2020-08-10T09:32:02.000Z</time>
      </trkpt>
      <trkpt lat="45.12669" lon="5.42237">
        <ele>1203.76</ele>
        <time>2020-08-10T09:32:07.000Z</time>
      </trkpt>
      <trkpt lat="45.1267" lon="5.42276">
        <ele>1205.32</ele>
        <time>2020-08-10T09:32:12.000Z</time>
      </trkpt>
      <trkpt lat="45.12686" lon="5.42311">
        <ele>1207.02</ele>
        <time>2020-08-10T09:32:17.000Z</time>
      </trkpt>
      <trkpt lat="45.1269" lon="5.42351">
        <ele>1207.01</ele>
        <time>2020-08-10T09:32:22.000Z</time>
      </trkpt>
      <trkpt lat="45.12696" lon="5.42385">
        <ele>1206.98</ele>
        <time>2020-08-10T09:32:27.000Z</time>
      </trkpt>
      <trkpt lat="45.12689" lon="5.42424">
        <ele>1206.71</ele>
        <time>2020-08-10T09:32:32.000Z</time>
      </trkpt>
      <trkpt lat="45.12663" lon="5.42455">
        <ele>1201.21</ele>
        <time>2020-08-10T09:32:37.000Z</time>
      </trkpt>
      <trkpt lat="45.12656" lon="5.42486">
        <ele>1197.2</ele>
        <time>2020-08-10T09:32:42.000Z</time>
      </trkpt>
      <trkpt lat="45.12644" lon="5.42519">
        <ele>1196.43</ele>
        <time>2020-08-10T09:32:47.000Z</time>
      </trkpt>
      <trkpt lat="45.12639" lon="5.42555">
        <ele>1193.4</ele>
        <time>2020-08-10T09:32:52.000Z</time>
      </trkpt>
      <trkpt lat="45.12632" lon="5.42597">
        <ele>1193.51</ele>
        <time>2020-08-10T09:32:57.000Z</time>
      </trkpt>
      <trkpt lat="45.12635" lon="5.42634">
        <ele>1198.35</ele>
        <time>2020-08-10T09:33:02.000Z</time>
      </trkpt>
      <trkpt lat="45.12652" lon="5.42662">
        <ele>1200.44</ele>
        <time>2020-08-10T09:33:07.000Z</time>
      </trkpt>
      <trkpt lat="45.12666" lon="5.4267">
        <ele>1200.22</ele>
        <time>2020-08-10T09:33:12.000Z</time>
      </trkpt>
      <trkpt lat="45.12676" lon="5.42672">
        <ele>1200.87</ele>
        <time>2020-08-10T09:33:18.000Z</time>
      </trkpt>
      <trkpt lat="45.1269" lon="5.42676">
        <ele>1206.44</ele>
        <time>2020-08-10T09:33:23.000Z</time>
      </trkpt>
      <trkpt lat="45.12702" lon="5.42671">
        <ele>1207.13</ele>
        <time>2020-08-10T09:33:28.000Z</time>
      </trkpt>
      <trkpt lat="45.12712" lon="5.42661">
        <ele>1206.41</ele>
        <time>2020-08-10T09:33:33.000Z</time>
      </trkpt>
      <trkpt lat="45.12728" lon="5.42659">
        <ele>1207.46</ele>
        <time>2020-08-10T09:33:38.000Z</time>
      </trkpt>
      <trkpt lat="45.12751" lon="5.42658">
        <ele>1207.33</ele>
        <time>2020-08-10T09:33:43.000Z</time>
      </trkpt>
      <trkpt lat="45.12773" lon="5.42655">
        <ele>1209.39</ele>
        <time>2020-08-10T09:33:48.000Z</time>
      </trkpt>
      <trkpt lat="45.128" lon="5.42655">
        <ele>1213.03</ele>
        <time>2020-08-10T09:33:53.000Z</time>
      </trkpt>
      <trkpt lat="45.12824" lon="5.42652">
        <ele>1217.03</ele>
        <time>2020-08-10T09:33:58.000Z</time>
      </trkpt>
      <trkpt lat="45.1284" lon="5.42659">
        <ele>1217.14</ele>
        <time>2020-08-10T09:34:03.000Z</time>
      </trkpt>
      <trkpt lat="45.12853" lon="5.42665">
        <ele>1217.86</ele>
        <time>2020-08-10T09:34:08.000Z</time>
      </trkpt>
      <trkpt lat="45.12865" lon="5.42673">
        <ele>1220.8</ele>
        <time>2020-08-10T09:34:13.000Z</time>
      </trkpt>
      <trkpt lat="45.12873" lon="5.42685">
        <ele>1218.59</ele>
        <time>2020-08-10T09:34:18.000Z</time>
      </trkpt>
      <trkpt lat="45.12884" lon="5.42699">
        <ele>1221.28</ele>
        <time>2020-08-10T09:34:23.000Z</time>
      </trkpt>
      <trkpt lat="45.12893" lon="5.42719">
        <ele>1223.27</ele>
        <time>2020-08-10T09:34:28.000Z</time>
      </trkpt>
      <trkpt lat="45.12905" lon="5.42741">
        <ele>1222.91</ele>
        <time>2020-08-10T09:34:33.000Z</time>
      </trkpt>
      <trkpt lat="45.12908" lon="5.42761">
        <ele>1225.97</ele>
        <time>2020-08-10T09:34:38.000Z</time>
      </trkpt>
      <trkpt lat="45.12919" lon="5.42783">
        <ele>1230.31</ele>
        <time>2020-08-10T09:34:43.000Z</time>
      </trkpt>
      <trkpt lat="45.1293" lon="5.42806">
        <ele>1230.56</ele>
        <time>2020-08-10T09:34:48.000Z</time>
      </trkpt>
      <trkpt lat="45.12935" lon="5.4283">
        <ele>1232.53</ele>
        <time>2020-08-10T09:34:53.000Z</time>
      </trkpt>
      <trkpt lat="45.12934" lon="5.42853">
        <ele>1233.03</ele>
        <time>2020-08-10T09:34:58.000Z</time>
      </trkpt>
      <trkpt lat="45.12927" lon="5.42876">
        <ele>1233.84</ele>
        <time>2020-08-10T09:35:03.000Z</time>
      </trkpt>
      <trkpt lat="45.12918" lon="5.42898">
        <ele>1234.62</ele>
        <time>2020-08-10T09:35:08.000Z</time>
      </trkpt>
      <trkpt lat="45.12907" lon="5.42918">
        <ele>1235.36</ele>
        <time>2020-08-10T09:35:13.000Z</time>
      </trkpt>
      <trkpt lat="45.12897" lon="5.42939">
        <ele>1235.81</ele>
        <time>2020-08-10T09:35:18.000Z</time>
      </trkpt>
      <trkpt lat="45.1289" lon="5.42957">
        <ele>1238.52</ele>
        <time>2020-08-10T09:35:23.000Z</time>
      </trkpt>
      <trkpt lat="45.12884" lon="5.42979">
        <ele>1239.81</ele>
        <time>2020-08-10T09:35:28.000Z</time>
      </trkpt>
      <trkpt lat="45.12881" lon="5.43">
        <ele>1240.55</ele>
        <time>2020-08-10T09:35:33.000Z</time>
      </trkpt>
      <trkpt lat="45.1288" lon="5.43024">
        <ele>1242.83</ele>
        <time>2020-08-10T09:35:38.000Z</time>
      </trkpt>
      <trkpt lat="45.12879" lon="5.43048">
        <ele>1240.44</ele>
        <time>2020-08-10T09:35:43.000Z</time>
      </trkpt>
      <trkpt lat="45.12873" lon="5.43069">
        <ele>1240.3</ele>
        <time>2020-08-10T09:35:48.000Z</time>
      </trkpt>
      <trkpt lat="45.12873" lon="5.43093">
        <ele>1240.99</ele>
        <time>2020-08-10T09:35:53.000Z</time>
      </trkpt>
      <trkpt lat="45.12875" lon="5.43113">
        <ele>1243.49</ele>
        <time>2020-08-10T09:35:58.000Z</time>
      </trkpt>
      <trkpt lat="45.12875" lon="5.43134">
        <ele>1246.76</ele>
        <time>2020-08-10T09:36:03.000Z</time>
      </trkpt>
      <trkpt lat="45.12878" lon="5.4316">
        <ele>1247.98</ele>
        <time>2020-08-10T09:36:08.000Z</time>
      </trkpt>
      <trkpt lat="45.1286" lon="5.43187">
        <ele>1244.74</ele>
        <time>2020-08-10T09:36:13.000Z</time>
      </trkpt>
      <trkpt lat="45.12854" lon="5.43214">
        <ele>1245.72</ele>
        <time>2020-08-10T09:36:18.000Z</time>
      </trkpt>
      <trkpt lat="45.12857" lon="5.43239">
        <ele>1248.6</ele>
        <time>2020-08-10T09:36:23.000Z</time>
      </trkpt>
      <trkpt lat="45.12866" lon="5.43262">
        <ele>1250.07</ele>
        <time>2020-08-10T09:36:28.000Z</time>
      </trkpt>
      <trkpt lat="45.12888" lon="5.43284">
        <ele>1253.09</ele>
        <time>2020-08-10T09:36:33.000Z</time>
      </trkpt>
      <trkpt lat="45.12916" lon="5.4331">
        <ele>1258.82</ele>
        <time>2020-08-10T09:36:38.000Z</time>
      </trkpt>
      <trkpt lat="45.1293" lon="5.4333">
        <ele>1260.53</ele>
        <time>2020-08-10T09:36:43.000Z</time>
      </trkpt>
      <trkpt lat="45.12951" lon="5.43347">
        <ele>1264.14</ele>
        <time>2020-08-10T09:36:48.000Z</time>
      </trkpt>
      <trkpt lat="45.12976" lon="5.43366">
        <ele>1263.78</ele>
        <time>2020-08-10T09:36:53.000Z</time>
      </trkpt>
      <trkpt lat="45.12997" lon="5.43383">
        <ele>1268.99</ele>
        <time>2020-08-10T09:36:58.000Z</time>
      </trkpt>
      <trkpt lat="45.13026" lon="5.43398">
        <ele>1271.76</ele>
        <time>2020-08-10T09:37:03.000Z</time>
      </trkpt>
      <trkpt lat="45.13044" lon="5.43419">
        <ele>1276.42</ele>
        <time>2020-08-10T09:37:08.000Z</time>
      </trkpt>
      <trkpt lat="45.13048" lon="5.43444">
        <ele>1273.87</ele>
        <time>2020-08-10T09:37:13.000Z</time>
      </trkpt>
      <trkpt lat="45.13054" lon="5.43468">
        <ele>1278.35</ele>
        <time>2020-08-10T09:37:18.000Z</time>
      </trkpt>
      <trkpt lat="45.13057" lon="5.43486">
        <ele>1278.51</ele>
        <time>2020-08-10T09:37:23.000Z</time>
      </trkpt>
      <trkpt lat="45.13058" lon="5.43499">
        <ele>1274.5</ele>
        <time>2020-08-10T09:41:33.000Z</time>
      </trkpt>
      <trkpt lat="45.13062" lon="5.43531">
        <ele>1284.78</ele>
        <time>2020-08-10T09:41:38.000Z</time>
      </trkpt>
      <trkpt lat="45.13064" lon="5.43557">
        <ele>1280.74</ele>
        <time>2020-08-10T09:41:43.000Z</time>
      </trkpt>
      <trkpt lat="45.13065" lon="5.43574">
        <ele>1279.06</ele>
        <time>2020-08-10T09:41:48.000Z</time>
      </trkpt>
      <trkpt lat="45.13065" lon="5.4356">
        <ele>1281.86</ele>
        <time>2020-08-10T09:41:56.000Z</time>
      </trkpt>
      <trkpt lat="45.13063" lon="5.43542">
        <ele>1280.77</ele>
        <time>2020-08-10T09:42:01.000Z</time>
      </trkpt>
      <trkpt lat="45.13063" lon="5.43523">
        <ele>1282.72</ele>
        <time>2020-08-10T09:42:06.000Z</time>
      </trkpt>
      <trkpt lat="45.13059" lon="5.435">
        <ele>1280.7</ele>
        <time>2020-08-10T09:42:11.000Z</time>
      </trkpt>
      <trkpt lat="45.13056" lon="5.43485">
        <ele>1280.53</ele>
        <time>2020-08-10T09:42:16.000Z</time>
      </trkpt>
      <trkpt lat="45.13047" lon="5.43479">
        <ele>1274.35</ele>
        <time>2020-08-10T09:43:21.000Z</time>
      </trkpt>
      <trkpt lat="45.13039" lon="5.43484">
        <ele>1277.74</ele>
        <time>2020-08-10T09:44:25.000Z</time>
      </trkpt>
      <trkpt lat="45.13024" lon="5.4349">
        <ele>1275.13</ele>
        <time>2020-08-10T09:44:30.000Z</time>
      </trkpt>
      <trkpt lat="45.13016" lon="5.43499">
        <ele>1277.05</ele>
        <time>2020-08-10T09:44:35.000Z</time>
      </trkpt>
      <trkpt lat="45.1302" lon="5.43512">
        <ele>1276.9</ele>
        <time>2020-08-10T09:44:44.000Z</time>
      </trkpt>
      <trkpt lat="45.13024" lon="5.43524">
        <ele>1274.66</ele>
        <time>2020-08-10T09:44:54.000Z</time>
      </trkpt>
      <trkpt lat="45.13029" lon="5.43535">
        <ele>1271.58</ele>
        <time>2020-08-10T09:45:17.000Z</time>
      </trkpt>
      <trkpt lat="45.13037" lon="5.43525">
        <ele>1265.05</ele>
        <time>2020-08-10T10:08:30.000Z</time>
      </trkpt>
      <trkpt lat="45.13046" lon="5.43516">
        <ele>1267.52</ele>
        <time>2020-08-10T10:08:35.000Z</time>
      </trkpt>
      <trkpt lat="45.13054" lon="5.4351">
        <ele>1262.71</ele>
        <time>2020-08-10T10:08:41.000Z</time>
      </trkpt>
      <trkpt lat="45.13056" lon="5.43496">
        <ele>1262.93</ele>
        <time>2020-08-10T10:08:48.000Z</time>
      </trkpt>
      <trkpt lat="45.13057" lon="5.43482">
        <ele>1266.19</ele>
        <time>2020-08-10T10:08:55.000Z</time>
      </trkpt>
      <trkpt lat="45.13059" lon="5.43501">
        <ele>1269.7</ele>
        <time>2020-08-10T10:11:28.000Z</time>
      </trkpt>
      <trkpt lat="45.13063" lon="5.4353">
        <ele>1269.67</ele>
        <time>2020-08-10T10:11:33.000Z</time>
      </trkpt>
      <trkpt lat="45.13069" lon="5.43518">
        <ele>1270.81</ele>
        <time>2020-08-10T10:11:45.000Z</time>
      </trkpt>
      <trkpt lat="45.13066" lon="5.43505">
        <ele>1272.36</ele>
        <time>2020-08-10T10:11:51.000Z</time>
      </trkpt>
      <trkpt lat="45.13062" lon="5.43493">
        <ele>1271.2</ele>
        <time>2020-08-10T10:11:56.000Z</time>
      </trkpt>
      <trkpt lat="45.1306" lon="5.43478">
        <ele>1271.61</ele>
        <time>2020-08-10T10:12:01.000Z</time>
      </trkpt>
      <trkpt lat="45.13068" lon="5.4347">
        <ele>1270.06</ele>
        <time>2020-08-10T10:12:15.000Z</time>
      </trkpt>
      <trkpt lat="45.13075" lon="5.4348">
        <ele>1260.66</ele>
        <time>2020-08-10T10:12:44.000Z</time>
      </trkpt>
      <trkpt lat="45.1308" lon="5.4349">
        <ele>1276.73</ele>
        <time>2020-08-10T10:13:07.000Z</time>
      </trkpt>
      <trkpt lat="45.13089" lon="5.43493">
        <ele>1278.49</ele>
        <time>2020-08-10T10:13:17.000Z</time>
      </trkpt>
      <trkpt lat="45.13105" lon="5.43496">
        <ele>1282.69</ele>
        <time>2020-08-10T10:13:30.000Z</time>
      </trkpt>
      <trkpt lat="45.13114" lon="5.435">
        <ele>1281.53</ele>
        <time>2020-08-10T10:13:40.000Z</time>
      </trkpt>
      <trkpt lat="45.13123" lon="5.43502">
        <ele>1288.19</ele>
        <time>2020-08-10T10:13:57.000Z</time>
      </trkpt>
      <trkpt lat="45.13133" lon="5.43505">
        <ele>1285.23</ele>
        <time>2020-08-10T10:14:05.000Z</time>
      </trkpt>
      <trkpt lat="45.13142" lon="5.43501">
        <ele>1286.02</ele>
        <time>2020-08-10T10:14:15.000Z</time>
      </trkpt>
      <trkpt lat="45.1315" lon="5.4351">
        <ele>1287.53</ele>
        <time>2020-08-10T10:14:26.000Z</time>
      </trkpt>
      <trkpt lat="45.13159" lon="5.43512">
        <ele>1288.07</ele>
        <time>2020-08-10T10:14:39.000Z</time>
      </trkpt>
      <trkpt lat="45.13168" lon="5.43516">
        <ele>1285.96</ele>
        <time>2020-08-10T10:14:47.000Z</time>
      </trkpt>
      <trkpt lat="45.13175" lon="5.43524">
        <ele>1288.23</ele>
        <time>2020-08-10T10:14:56.000Z</time>
      </trkpt>
      <trkpt lat="45.13183" lon="5.43529">
        <ele>1292.38</ele>
        <time>2020-08-10T10:15:07.000Z</time>
      </trkpt>
      <trkpt lat="45.13208" lon="5.43557">
        <ele>1294.63</ele>
        <time>2020-08-10T10:23:45.000Z</time>
      </trkpt>
      <trkpt lat="45.13201" lon="5.4355">
        <ele>1290.75</ele>
        <time>2020-08-10T10:27:31.000Z</time>
      </trkpt>
      <trkpt lat="45.13192" lon="5.43544">
        <ele>1291.38</ele>
        <time>2020-08-10T10:27:37.000Z</time>
      </trkpt>
      <trkpt lat="45.13183" lon="5.43539">
        <ele>1288.05</ele>
        <time>2020-08-10T10:27:46.000Z</time>
      </trkpt>
      <trkpt lat="45.13174" lon="5.43532">
        <ele>1287.61</ele>
        <time>2020-08-10T10:27:53.000Z</time>
      </trkpt>
      <trkpt lat="45.13167" lon="5.43524">
        <ele>1285.35</ele>
        <time>2020-08-10T10:28:04.000Z</time>
      </trkpt>
      <trkpt lat="45.1316" lon="5.43514">
        <ele>1284.53</ele>
        <time>2020-08-10T10:28:15.000Z</time>
      </trkpt>
      <trkpt lat="45.13151" lon="5.43513">
        <ele>1280.56</ele>
        <time>2020-08-10T10:28:25.000Z</time>
      </trkpt>
      <trkpt lat="45.13142" lon="5.43509">
        <ele>1276.95</ele>
        <time>2020-08-10T10:28:35.000Z</time>
      </trkpt>
      <trkpt lat="45.13133" lon="5.43513">
        <ele>1283.05</ele>
        <time>2020-08-10T10:28:48.000Z</time>
      </trkpt>
      <trkpt lat="45.13125" lon="5.43507">
        <ele>1283.32</ele>
        <time>2020-08-10T10:29:03.000Z</time>
      </trkpt>
      <trkpt lat="45.13116" lon="5.43506">
        <ele>1287.31</ele>
        <time>2020-08-10T10:29:19.000Z</time>
      </trkpt>
      <trkpt lat="45.13106" lon="5.43508">
        <ele>1281.61</ele>
        <time>2020-08-10T10:29:30.000Z</time>
      </trkpt>
      <trkpt lat="45.13097" lon="5.43503">
        <ele>1276.88</ele>
        <time>2020-08-10T10:29:41.000Z</time>
      </trkpt>
      <trkpt lat="45.13091" lon="5.43493">
        <ele>1278.48</ele>
        <time>2020-08-10T10:29:48.000Z</time>
      </trkpt>
      <trkpt lat="45.13082" lon="5.43489">
        <ele>1282.34</ele>
        <time>2020-08-10T10:29:56.000Z</time>
      </trkpt>
      <trkpt lat="45.13074" lon="5.43483">
        <ele>1275.66</ele>
        <time>2020-08-10T10:30:08.000Z</time>
      </trkpt>
      <trkpt lat="45.13065" lon="5.43487">
        <ele>1279.28</ele>
        <time>2020-08-10T10:30:21.000Z</time>
      </trkpt>
      <trkpt lat="45.13074" lon="5.43475">
        <ele>1278.43</ele>
        <time>2020-08-10T10:31:20.000Z</time>
      </trkpt>
      <trkpt lat="45.131" lon="5.43431">
        <ele>1274.04</ele>
        <time>2020-08-10T10:31:25.000Z</time>
      </trkpt>
      <trkpt lat="45.13122" lon="5.43377">
        <ele>1272.38</ele>
        <time>2020-08-10T10:31:30.000Z</time>
      </trkpt>
      <trkpt lat="45.13155" lon="5.43319">
        <ele>1265.53</ele>
        <time>2020-08-10T10:31:35.000Z</time>
      </trkpt>
      <trkpt lat="45.13193" lon="5.43256">
        <ele>1262.02</ele>
        <time>2020-08-10T10:31:40.000Z</time>
      </trkpt>
      <trkpt lat="45.13246" lon="5.43199">
        <ele>1253.7</ele>
        <time>2020-08-10T10:31:45.000Z</time>
      </trkpt>
      <trkpt lat="45.1331" lon="5.43174">
        <ele>1256.14</ele>
        <time>2020-08-10T10:31:50.000Z</time>
      </trkpt>
      <trkpt lat="45.13371" lon="5.43161">
        <ele>1256.11</ele>
        <time>2020-08-10T10:31:55.000Z</time>
      </trkpt>
      <trkpt lat="45.13416" lon="5.43165">
        <ele>1252.24</ele>
        <time>2020-08-10T10:32:00.000Z</time>
      </trkpt>
      <trkpt lat="45.13428" lon="5.43184">
        <ele>1247.06</ele>
        <time>2020-08-10T10:32:05.000Z</time>
      </trkpt>
      <trkpt lat="45.13399" lon="5.43215">
        <ele>1241.32</ele>
        <time>2020-08-10T10:32:10.000Z</time>
      </trkpt>
      <trkpt lat="45.13379" lon="5.43275">
        <ele>1237.32</ele>
        <time>2020-08-10T10:32:15.000Z</time>
      </trkpt>
      <trkpt lat="45.13361" lon="5.43346">
        <ele>1234.43</ele>
        <time>2020-08-10T10:32:20.000Z</time>
      </trkpt>
      <trkpt lat="45.13341" lon="5.43421">
        <ele>1233.85</ele>
        <time>2020-08-10T10:32:25.000Z</time>
      </trkpt>
      <trkpt lat="45.13323" lon="5.43511">
        <ele>1234.31</ele>
        <time>2020-08-10T10:32:30.000Z</time>
      </trkpt>
      <trkpt lat="45.13322" lon="5.43602">
        <ele>1226.34</ele>
        <time>2020-08-10T10:32:35.000Z</time>
      </trkpt>
      <trkpt lat="45.13337" lon="5.43695">
        <ele>1224.61</ele>
        <time>2020-08-10T10:32:40.000Z</time>
      </trkpt>
      <trkpt lat="45.13354" lon="5.43799">
        <ele>1224.17</ele>
        <time>2020-08-10T10:32:45.000Z</time>
      </trkpt>
      <trkpt lat="45.13383" lon="5.43897">
        <ele>1219.08</ele>
        <time>2020-08-10T10:32:50.000Z</time>
      </trkpt>
      <trkpt lat="45.13437" lon="5.43972">
        <ele>1221.34</ele>
        <time>2020-08-10T10:32:55.000Z</time>
      </trkpt>
      <trkpt lat="45.13458" lon="5.44056">
        <ele>1216.1</ele>
        <time>2020-08-10T10:33:00.000Z</time>
      </trkpt>
      <trkpt lat="45.13451" lon="5.44151">
        <ele>1215.29</ele>
        <time>2020-08-10T10:33:05.000Z</time>
      </trkpt>
      <trkpt lat="45.13426" lon="5.44233">
        <ele>1211.55</ele>
        <time>2020-08-10T10:33:10.000Z</time>
      </trkpt>
      <trkpt lat="45.13404" lon="5.44308">
        <ele>1206.69</ele>
        <time>2020-08-10T10:33:15.000Z</time>
      </trkpt>
      <trkpt lat="45.13396" lon="5.4437">
        <ele>1200.28</ele>
        <time>2020-08-10T10:33:20.000Z</time>
      </trkpt>
      <trkpt lat="45.13413" lon="5.44421">
        <ele>1198.7</ele>
        <time>2020-08-10T10:33:25.000Z</time>
      </trkpt>
      <trkpt lat="45.13455" lon="5.4446">
        <ele>1195.33</ele>
        <time>2020-08-10T10:33:30.000Z</time>
      </trkpt>
      <trkpt lat="45.13498" lon="5.44507">
        <ele>1194.13</ele>
        <time>2020-08-10T10:33:35.000Z</time>
      </trkpt>
      <trkpt lat="45.13531" lon="5.4455">
        <ele>1189.54</ele>
        <time>2020-08-10T10:33:40.000Z</time>
      </trkpt>
      <trkpt lat="45.13544" lon="5.44595">
        <ele>1186.91</ele>
        <time>2020-08-10T10:33:45.000Z</time>
      </trkpt>
      <trkpt lat="45.13549" lon="5.44579">
        <ele>1165.87</ele>
        <time>2020-08-10T10:33:52.000Z</time>
      </trkpt>
      <trkpt lat="45.13573" lon="5.44603">
        <ele>1162.64</ele>
        <time>2020-08-10T10:33:57.000Z</time>
      </trkpt>
      <trkpt lat="45.13614" lon="5.44622">
        <ele>1157.73</ele>
        <time>2020-08-10T10:34:02.000Z</time>
      </trkpt>
      <trkpt lat="45.13667" lon="5.44651">
        <ele>1149.65</ele>
        <time>2020-08-10T10:34:07.000Z</time>
      </trkpt>
      <trkpt lat="45.13724" lon="5.44667">
        <ele>1149.86</ele>
        <time>2020-08-10T10:34:12.000Z</time>
      </trkpt>
      <trkpt lat="45.13771" lon="5.44694">
        <ele>1142.45</ele>
        <time>2020-08-10T10:34:17.000Z</time>
      </trkpt>
      <trkpt lat="45.13812" lon="5.44726">
        <ele>1137.18</ele>
        <time>2020-08-10T10:34:22.000Z</time>
      </trkpt>
      <trkpt lat="45.13845" lon="5.44723">
        <ele>1136</ele>
        <time>2020-08-10T10:34:27.000Z</time>
      </trkpt>
      <trkpt lat="45.13883" lon="5.447">
        <ele>1134.3</ele>
        <time>2020-08-10T10:34:32.000Z</time>
      </trkpt>
      <trkpt lat="45.13926" lon="5.44698">
        <ele>1128.94</ele>
        <time>2020-08-10T10:34:37.000Z</time>
      </trkpt>
      <trkpt lat="45.13956" lon="5.44639">
        <ele>1125.38</ele>
        <time>2020-08-10T10:34:42.000Z</time>
      </trkpt>
      <trkpt lat="45.13973" lon="5.44568">
        <ele>1125.54</ele>
        <time>2020-08-10T10:34:47.000Z</time>
      </trkpt>
      <trkpt lat="45.13995" lon="5.44508">
        <ele>1119.06</ele>
        <time>2020-08-10T10:34:52.000Z</time>
      </trkpt>
      <trkpt lat="45.14025" lon="5.44464">
        <ele>1111.07</ele>
        <time>2020-08-10T10:34:57.000Z</time>
      </trkpt>
      <trkpt lat="45.14058" lon="5.44481">
        <ele>1106.76</ele>
        <time>2020-08-10T10:35:02.000Z</time>
      </trkpt>
      <trkpt lat="45.14095" lon="5.44518">
        <ele>1101.94</ele>
        <time>2020-08-10T10:35:07.000Z</time>
      </trkpt>
      <trkpt lat="45.14133" lon="5.44544">
        <ele>1101.87</ele>
        <time>2020-08-10T10:35:12.000Z</time>
      </trkpt>
      <trkpt lat="45.1414" lon="5.44492">
        <ele>1097.1</ele>
        <time>2020-08-10T10:35:17.000Z</time>
      </trkpt>
      <trkpt lat="45.14128" lon="5.44437">
        <ele>1090.99</ele>
        <time>2020-08-10T10:35:22.000Z</time>
      </trkpt>
      <trkpt lat="45.14129" lon="5.44397">
        <ele>1085.01</ele>
        <time>2020-08-10T10:35:27.000Z</time>
      </trkpt>
      <trkpt lat="45.14146" lon="5.44352">
        <ele>1080.17</ele>
        <time>2020-08-10T10:35:32.000Z</time>
      </trkpt>
      <trkpt lat="45.14166" lon="5.44287">
        <ele>1078.55</ele>
        <time>2020-08-10T10:35:37.000Z</time>
      </trkpt>
      <trkpt lat="45.14197" lon="5.44248">
        <ele>1074.06</ele>
        <time>2020-08-10T10:35:42.000Z</time>
      </trkpt>
      <trkpt lat="45.14233" lon="5.44203">
        <ele>1071.6</ele>
        <time>2020-08-10T10:35:47.000Z</time>
      </trkpt>
      <trkpt lat="45.1428" lon="5.44162">
        <ele>1062.92</ele>
        <time>2020-08-10T10:35:52.000Z</time>
      </trkpt>
      <trkpt lat="45.14322" lon="5.4416">
        <ele>1058.28</ele>
        <time>2020-08-10T10:35:57.000Z</time>
      </trkpt>
      <trkpt lat="45.14368" lon="5.44174">
        <ele>1054.29</ele>
        <time>2020-08-10T10:36:02.000Z</time>
      </trkpt>
      <trkpt lat="45.14411" lon="5.44154">
        <ele>1052.01</ele>
        <time>2020-08-10T10:36:07.000Z</time>
      </trkpt>
      <trkpt lat="45.14461" lon="5.44116">
        <ele>1047.4</ele>
        <time>2020-08-10T10:36:12.000Z</time>
      </trkpt>
      <trkpt lat="45.14512" lon="5.44106">
        <ele>1045.35</ele>
        <time>2020-08-10T10:36:17.000Z</time>
      </trkpt>
      <trkpt lat="45.14569" lon="5.44125">
        <ele>1040.45</ele>
        <time>2020-08-10T10:36:22.000Z</time>
      </trkpt>
      <trkpt lat="45.14626" lon="5.44134">
        <ele>1031.85</ele>
        <time>2020-08-10T10:36:27.000Z</time>
      </trkpt>
      <trkpt lat="45.1468" lon="5.44166">
        <ele>1028.61</ele>
        <time>2020-08-10T10:36:32.000Z</time>
      </trkpt>
      <trkpt lat="45.14739" lon="5.44186">
        <ele>1024.53</ele>
        <time>2020-08-10T10:36:37.000Z</time>
      </trkpt>
      <trkpt lat="45.14799" lon="5.44204">
        <ele>1017.99</ele>
        <time>2020-08-10T10:36:42.000Z</time>
      </trkpt>
      <trkpt lat="45.14832" lon="5.44245">
        <ele>1011.6</ele>
        <time>2020-08-10T10:36:47.000Z</time>
      </trkpt>
      <trkpt lat="45.14854" lon="5.44238">
        <ele>1007.5</ele>
        <time>2020-08-10T10:36:52.000Z</time>
      </trkpt>
      <trkpt lat="45.14848" lon="5.44223">
        <ele>1002.4</ele>
        <time>2020-08-10T10:36:57.000Z</time>
      </trkpt>
      <trkpt lat="45.14835" lon="5.44204">
        <ele>1003.5</ele>
        <time>2020-08-10T10:37:02.000Z</time>
      </trkpt>
      <trkpt lat="45.14822" lon="5.44187">
        <ele>1002.28</ele>
        <time>2020-08-10T10:37:07.000Z</time>
      </trkpt>
      <trkpt lat="45.14771" lon="5.44124">
        <ele>996.67</ele>
        <time>2020-08-10T10:37:12.000Z</time>
      </trkpt>
      <trkpt lat="45.14726" lon="5.44075">
        <ele>994.27</ele>
        <time>2020-08-10T10:37:17.000Z</time>
      </trkpt>
      <trkpt lat="45.1469" lon="5.44035">
        <ele>987.7</ele>
        <time>2020-08-10T10:37:22.000Z</time>
      </trkpt>
      <trkpt lat="45.14677" lon="5.43957">
        <ele>978.95</ele>
        <time>2020-08-10T10:37:27.000Z</time>
      </trkpt>
      <trkpt lat="45.14639" lon="5.43893">
        <ele>972.19</ele>
        <time>2020-08-10T10:37:32.000Z</time>
      </trkpt>
      <trkpt lat="45.14616" lon="5.43823">
        <ele>969.99</ele>
        <time>2020-08-10T10:37:37.000Z</time>
      </trkpt>
      <trkpt lat="45.14597" lon="5.43778">
        <ele>967.88</ele>
        <time>2020-08-10T10:37:42.000Z</time>
      </trkpt>
      <trkpt lat="45.1457" lon="5.43762">
        <ele>961.56</ele>
        <time>2020-08-10T10:37:47.000Z</time>
      </trkpt>
      <trkpt lat="45.1454" lon="5.43742">
        <ele>959.76</ele>
        <time>2020-08-10T10:37:52.000Z</time>
      </trkpt>
      <trkpt lat="45.14518" lon="5.43705">
        <ele>958.54</ele>
        <time>2020-08-10T10:37:59.000Z</time>
      </trkpt>
      <trkpt lat="45.14558" lon="5.43717">
        <ele>955.87</ele>
        <time>2020-08-10T10:38:04.000Z</time>
      </trkpt>
      <trkpt lat="45.14604" lon="5.43709">
        <ele>952.71</ele>
        <time>2020-08-10T10:38:09.000Z</time>
      </trkpt>
      <trkpt lat="45.1464" lon="5.43711">
        <ele>954.77</ele>
        <time>2020-08-10T10:38:14.000Z</time>
      </trkpt>
      <trkpt lat="45.14652" lon="5.43723">
        <ele>954.7</ele>
        <time>2020-08-10T10:38:19.000Z</time>
      </trkpt>
      <trkpt lat="45.14666" lon="5.43727">
        <ele>954.33</ele>
        <time>2020-08-10T10:38:24.000Z</time>
      </trkpt>
      <trkpt lat="45.14676" lon="5.43736">
        <ele>951.59</ele>
        <time>2020-08-10T10:38:29.000Z</time>
      </trkpt>
      <trkpt lat="45.14685" lon="5.43744">
        <ele>950.75</ele>
        <time>2020-08-10T10:38:34.000Z</time>
      </trkpt>
      <trkpt lat="45.14695" lon="5.43757">
        <ele>948.87</ele>
        <time>2020-08-10T10:38:39.000Z</time>
      </trkpt>
      <trkpt lat="45.14704" lon="5.4378">
        <ele>946.51</ele>
        <time>2020-08-10T10:38:44.000Z</time>
      </trkpt>
      <trkpt lat="45.14716" lon="5.43798">
        <ele>946.14</ele>
        <time>2020-08-10T10:38:49.000Z</time>
      </trkpt>
      <trkpt lat="45.14726" lon="5.43816">
        <ele>946.3</ele>
        <time>2020-08-10T10:38:54.000Z</time>
      </trkpt>
      <trkpt lat="45.14736" lon="5.43835">
        <ele>945.51</ele>
        <time>2020-08-10T10:38:59.000Z</time>
      </trkpt>
      <trkpt lat="45.14745" lon="5.43852">
        <ele>946.46</ele>
        <time>2020-08-10T10:39:04.000Z</time>
      </trkpt>
      <trkpt lat="45.14756" lon="5.43863">
        <ele>947.35</ele>
        <time>2020-08-10T10:39:09.000Z</time>
      </trkpt>
      <trkpt lat="45.14767" lon="5.43871">
        <ele>947.1</ele>
        <time>2020-08-10T10:39:14.000Z</time>
      </trkpt>
      <trkpt lat="45.14781" lon="5.43882">
        <ele>949.72</ele>
        <time>2020-08-10T10:39:19.000Z</time>
      </trkpt>
      <trkpt lat="45.14798" lon="5.43893">
        <ele>951.33</ele>
        <time>2020-08-10T10:39:24.000Z</time>
      </trkpt>
      <trkpt lat="45.14803" lon="5.43904">
        <ele>954.15</ele>
        <time>2020-08-10T10:39:31.000Z</time>
      </trkpt>
      <trkpt lat="45.14794" lon="5.43899">
        <ele>951.42</ele>
        <time>2020-08-10T10:41:02.000Z</time>
      </trkpt>
      <trkpt lat="45.14788" lon="5.43889">
        <ele>946.52</ele>
        <time>2020-08-10T10:41:08.000Z</time>
      </trkpt>
      <trkpt lat="45.14782" lon="5.43876">
        <ele>945.84</ele>
        <time>2020-08-10T10:41:13.000Z</time>
      </trkpt>
      <trkpt lat="45.14773" lon="5.4387">
        <ele>953.08</ele>
        <time>2020-08-10T10:43:17.000Z</time>
      </trkpt>
      <trkpt lat="45.14738" lon="5.43839">
        <ele>956.47</ele>
        <time>2020-08-10T10:43:22.000Z</time>
      </trkpt>
      <trkpt lat="45.14712" lon="5.43794">
        <ele>947.23</ele>
        <time>2020-08-10T10:43:27.000Z</time>
      </trkpt>
      <trkpt lat="45.14688" lon="5.43762">
        <ele>946.88</ele>
        <time>2020-08-10T10:43:32.000Z</time>
      </trkpt>
      <trkpt lat="45.14667" lon="5.43741">
        <ele>944.6</ele>
        <time>2020-08-10T10:43:37.000Z</time>
      </trkpt>
      <trkpt lat="45.14661" lon="5.43732">
        <ele>941.77</ele>
        <time>2020-08-10T10:43:42.000Z</time>
      </trkpt>
      <trkpt lat="45.14667" lon="5.43713">
        <ele>936.26</ele>
        <time>2020-08-10T10:43:47.000Z</time>
      </trkpt>
      <trkpt lat="45.14688" lon="5.4368">
        <ele>937.71</ele>
        <time>2020-08-10T10:43:52.000Z</time>
      </trkpt>
      <trkpt lat="45.14685" lon="5.4364">
        <ele>935.84</ele>
        <time>2020-08-10T10:43:57.000Z</time>
      </trkpt>
      <trkpt lat="45.14664" lon="5.43594">
        <ele>930.62</ele>
        <time>2020-08-10T10:44:02.000Z</time>
      </trkpt>
      <trkpt lat="45.1465" lon="5.43541">
        <ele>928.8</ele>
        <time>2020-08-10T10:44:07.000Z</time>
      </trkpt>
      <trkpt lat="45.14668" lon="5.43496">
        <ele>926.36</ele>
        <time>2020-08-10T10:44:12.000Z</time>
      </trkpt>
      <trkpt lat="45.14699" lon="5.43478">
        <ele>927.31</ele>
        <time>2020-08-10T10:44:17.000Z</time>
      </trkpt>
      <trkpt lat="45.14736" lon="5.43494">
        <ele>925.49</ele>
        <time>2020-08-10T10:44:22.000Z</time>
      </trkpt>
      <trkpt lat="45.14771" lon="5.43514">
        <ele>928.33</ele>
        <time>2020-08-10T10:44:27.000Z</time>
      </trkpt>
      <trkpt lat="45.1481" lon="5.43536">
        <ele>923.76</ele>
        <time>2020-08-10T10:44:32.000Z</time>
      </trkpt>
      <trkpt lat="45.14843" lon="5.43583">
        <ele>924.64</ele>
        <time>2020-08-10T10:44:37.000Z</time>
      </trkpt>
      <trkpt lat="45.14907" lon="5.43615">
        <ele>919.45</ele>
        <time>2020-08-10T10:44:42.000Z</time>
      </trkpt>
      <trkpt lat="45.14956" lon="5.43649">
        <ele>919.27</ele>
        <time>2020-08-10T10:44:47.000Z</time>
      </trkpt>
      <trkpt lat="45.15007" lon="5.43693">
        <ele>912.48</ele>
        <time>2020-08-10T10:44:52.000Z</time>
      </trkpt>
      <trkpt lat="45.15047" lon="5.4375">
        <ele>907.51</ele>
        <time>2020-08-10T10:44:57.000Z</time>
      </trkpt>
      <trkpt lat="45.15102" lon="5.438">
        <ele>903.2</ele>
        <time>2020-08-10T10:45:02.000Z</time>
      </trkpt>
      <trkpt lat="45.15154" lon="5.43859">
        <ele>898.78</ele>
        <time>2020-08-10T10:45:07.000Z</time>
      </trkpt>
      <trkpt lat="45.15195" lon="5.43925">
        <ele>897.26</ele>
        <time>2020-08-10T10:45:12.000Z</time>
      </trkpt>
      <trkpt lat="45.15219" lon="5.43941">
        <ele>896.34</ele>
        <time>2020-08-10T10:45:17.000Z</time>
      </trkpt>
      <trkpt lat="45.15214" lon="5.43911">
        <ele>895.53</ele>
        <time>2020-08-10T10:45:22.000Z</time>
      </trkpt>
      <trkpt lat="45.15199" lon="5.43868">
        <ele>892.71</ele>
        <time>2020-08-10T10:45:27.000Z</time>
      </trkpt>
      <trkpt lat="45.1518" lon="5.43817">
        <ele>887.14</ele>
        <time>2020-08-10T10:45:32.000Z</time>
      </trkpt>
      <trkpt lat="45.15142" lon="5.43748">
        <ele>886.55</ele>
        <time>2020-08-10T10:45:37.000Z</time>
      </trkpt>
      <trkpt lat="45.15108" lon="5.43675">
        <ele>882.53</ele>
        <time>2020-08-10T10:45:42.000Z</time>
      </trkpt>
      <trkpt lat="45.15084" lon="5.43586">
        <ele>882.31</ele>
        <time>2020-08-10T10:45:47.000Z</time>
      </trkpt>
      <trkpt lat="45.15056" lon="5.43516">
        <ele>870.51</ele>
        <time>2020-08-10T10:45:52.000Z</time>
      </trkpt>
      <trkpt lat="45.15046" lon="5.43485">
        <ele>858.52</ele>
        <time>2020-08-10T10:45:57.000Z</time>
      </trkpt>
      <trkpt lat="45.15062" lon="5.43497">
        <ele>851.45</ele>
        <time>2020-08-10T10:46:02.000Z</time>
      </trkpt>
      <trkpt lat="45.15083" lon="5.43547">
        <ele>842.97</ele>
        <time>2020-08-10T10:46:07.000Z</time>
      </trkpt>
      <trkpt lat="45.15112" lon="5.436">
        <ele>838.71</ele>
        <time>2020-08-10T10:46:12.000Z</time>
      </trkpt>
      <trkpt lat="45.15135" lon="5.43653">
        <ele>835.43</ele>
        <time>2020-08-10T10:46:17.000Z</time>
      </trkpt>
      <trkpt lat="45.15156" lon="5.43679">
        <ele>831.25</ele>
        <time>2020-08-10T10:46:22.000Z</time>
      </trkpt>
      <trkpt lat="45.15162" lon="5.43689">
        <ele>817.6</ele>
        <time>2020-08-10T10:48:00.000Z</time>
      </trkpt>
      <trkpt lat="45.15168" lon="5.43702">
        <ele>809.02</ele>
        <time>2020-08-10T10:48:48.000Z</time>
      </trkpt>
      <trkpt lat="45.15196" lon="5.43727">
        <ele>807.83</ele>
        <time>2020-08-10T10:48:53.000Z</time>
      </trkpt>
      <trkpt lat="45.15224" lon="5.43756">
        <ele>803.54</ele>
        <time>2020-08-10T10:48:58.000Z</time>
      </trkpt>
      <trkpt lat="45.15252" lon="5.43785">
        <ele>800.46</ele>
        <time>2020-08-10T10:49:03.000Z</time>
      </trkpt>
      <trkpt lat="45.15294" lon="5.43806">
        <ele>800.95</ele>
        <time>2020-08-10T10:49:08.000Z</time>
      </trkpt>
      <trkpt lat="45.15314" lon="5.43858">
        <ele>794.85</ele>
        <time>2020-08-10T10:49:13.000Z</time>
      </trkpt>
      <trkpt lat="45.15329" lon="5.4391">
        <ele>793.98</ele>
        <time>2020-08-10T10:49:18.000Z</time>
      </trkpt>
      <trkpt lat="45.1534" lon="5.43899">
        <ele>793.11</ele>
        <time>2020-08-10T10:49:23.000Z</time>
      </trkpt>
      <trkpt lat="45.15333" lon="5.4387">
        <ele>788.54</ele>
        <time>2020-08-10T10:49:28.000Z</time>
      </trkpt>
      <trkpt lat="45.15328" lon="5.43818">
        <ele>783.61</ele>
        <time>2020-08-10T10:49:33.000Z</time>
      </trkpt>
      <trkpt lat="45.15307" lon="5.43762">
        <ele>781.17</ele>
        <time>2020-08-10T10:49:38.000Z</time>
      </trkpt>
      <trkpt lat="45.1527" lon="5.43719">
        <ele>779.53</ele>
        <time>2020-08-10T10:49:43.000Z</time>
      </trkpt>
      <trkpt lat="45.15235" lon="5.43685">
        <ele>775.55</ele>
        <time>2020-08-10T10:49:48.000Z</time>
      </trkpt>
      <trkpt lat="45.15233" lon="5.436">
        <ele>769.31</ele>
        <time>2020-08-10T10:49:53.000Z</time>
      </trkpt>
      <trkpt lat="45.15235" lon="5.43533">
        <ele>766.5</ele>
        <time>2020-08-10T10:49:58.000Z</time>
      </trkpt>
      <trkpt lat="45.15252" lon="5.43502">
        <ele>765.18</ele>
        <time>2020-08-10T10:50:03.000Z</time>
      </trkpt>
      <trkpt lat="45.15278" lon="5.43488">
        <ele>763.98</ele>
        <time>2020-08-10T10:50:08.000Z</time>
      </trkpt>
      <trkpt lat="45.15314" lon="5.43473">
        <ele>760.48</ele>
        <time>2020-08-10T10:50:13.000Z</time>
      </trkpt>
      <trkpt lat="45.15314" lon="5.43512">
        <ele>755.67</ele>
        <time>2020-08-10T10:50:18.000Z</time>
      </trkpt>
      <trkpt lat="45.15283" lon="5.43536">
        <ele>756.34</ele>
        <time>2020-08-10T10:50:23.000Z</time>
      </trkpt>
      <trkpt lat="45.15292" lon="5.43593">
        <ele>756.88</ele>
        <time>2020-08-10T10:50:28.000Z</time>
      </trkpt>
      <trkpt lat="45.15325" lon="5.43645">
        <ele>754.83</ele>
        <time>2020-08-10T10:50:33.000Z</time>
      </trkpt>
      <trkpt lat="45.15366" lon="5.43689">
        <ele>749.45</ele>
        <time>2020-08-10T10:50:38.000Z</time>
      </trkpt>
      <trkpt lat="45.15408" lon="5.43734">
        <ele>743.18</ele>
        <time>2020-08-10T10:50:43.000Z</time>
      </trkpt>
      <trkpt lat="45.15437" lon="5.43796">
        <ele>739.58</ele>
        <time>2020-08-10T10:50:48.000Z</time>
      </trkpt>
      <trkpt lat="45.15476" lon="5.43858">
        <ele>735.96</ele>
        <time>2020-08-10T10:50:53.000Z</time>
      </trkpt>
      <trkpt lat="45.15525" lon="5.43913">
        <ele>733.47</ele>
        <time>2020-08-10T10:50:58.000Z</time>
      </trkpt>
      <trkpt lat="45.1553" lon="5.43956">
        <ele>730.13</ele>
        <time>2020-08-10T10:51:03.000Z</time>
      </trkpt>
      <trkpt lat="45.15504" lon="5.44012">
        <ele>729.86</ele>
        <time>2020-08-10T10:51:08.000Z</time>
      </trkpt>
      <trkpt lat="45.15516" lon="5.44058">
        <ele>727.18</ele>
        <time>2020-08-10T10:51:13.000Z</time>
      </trkpt>
      <trkpt lat="45.15543" lon="5.44045">
        <ele>723.38</ele>
        <time>2020-08-10T10:51:18.000Z</time>
      </trkpt>
      <trkpt lat="45.1557" lon="5.44062">
        <ele>718.45</ele>
        <time>2020-08-10T10:51:23.000Z</time>
      </trkpt>
      <trkpt lat="45.1558" lon="5.44113">
        <ele>717.49</ele>
        <time>2020-08-10T10:51:28.000Z</time>
      </trkpt>
      <trkpt lat="45.15605" lon="5.44164">
        <ele>714.99</ele>
        <time>2020-08-10T10:51:33.000Z</time>
      </trkpt>
      <trkpt lat="45.15644" lon="5.44202">
        <ele>703.39</ele>
        <time>2020-08-10T10:51:38.000Z</time>
      </trkpt>
      <trkpt lat="45.15666" lon="5.44196">
        <ele>702.49</ele>
        <time>2020-08-10T10:51:43.000Z</time>
      </trkpt>
      <trkpt lat="45.15671" lon="5.44164">
        <ele>698.43</ele>
        <time>2020-08-10T10:51:48.000Z</time>
      </trkpt>
      <trkpt lat="45.15648" lon="5.4414">
        <ele>696.6</ele>
        <time>2020-08-10T10:51:53.000Z</time>
      </trkpt>
      <trkpt lat="45.15622" lon="5.44105">
        <ele>695.5</ele>
        <time>2020-08-10T10:51:58.000Z</time>
      </trkpt>
      <trkpt lat="45.15641" lon="5.44051">
        <ele>682.91</ele>
        <time>2020-08-10T10:52:03.000Z</time>
      </trkpt>
      <trkpt lat="45.15663" lon="5.43997">
        <ele>675.06</ele>
        <time>2020-08-10T10:52:08.000Z</time>
      </trkpt>
      <trkpt lat="45.15672" lon="5.43961">
        <ele>674.48</ele>
        <time>2020-08-10T10:52:13.000Z</time>
      </trkpt>
      <trkpt lat="45.15651" lon="5.43935">
        <ele>674.82</ele>
        <time>2020-08-10T10:52:18.000Z</time>
      </trkpt>
      <trkpt lat="45.15646" lon="5.43906">
        <ele>673.34</ele>
        <time>2020-08-10T10:52:23.000Z</time>
      </trkpt>
      <trkpt lat="45.15648" lon="5.43874">
        <ele>669.13</ele>
        <time>2020-08-10T10:52:28.000Z</time>
      </trkpt>
      <trkpt lat="45.15634" lon="5.43842">
        <ele>668.82</ele>
        <time>2020-08-10T10:52:33.000Z</time>
      </trkpt>
      <trkpt lat="45.15629" lon="5.43788">
        <ele>668.39</ele>
        <time>2020-08-10T10:52:38.000Z</time>
      </trkpt>
      <trkpt lat="45.1562" lon="5.43739">
        <ele>667.49</ele>
        <time>2020-08-10T10:52:43.000Z</time>
      </trkpt>
      <trkpt lat="45.15633" lon="5.43692">
        <ele>668.03</ele>
        <time>2020-08-10T10:52:48.000Z</time>
      </trkpt>
      <trkpt lat="45.15664" lon="5.43676">
        <ele>664.89</ele>
        <time>2020-08-10T10:52:53.000Z</time>
      </trkpt>
      <trkpt lat="45.15709" lon="5.43684">
        <ele>661.57</ele>
        <time>2020-08-10T10:52:59.000Z</time>
      </trkpt>
      <trkpt lat="45.15747" lon="5.43712">
        <ele>662.48</ele>
        <time>2020-08-10T10:53:04.000Z</time>
      </trkpt>
      <trkpt lat="45.15792" lon="5.43741">
        <ele>660.07</ele>
        <time>2020-08-10T10:53:09.000Z</time>
      </trkpt>
      <trkpt lat="45.15813" lon="5.4373">
        <ele>652.9</ele>
        <time>2020-08-10T10:53:14.000Z</time>
      </trkpt>
      <trkpt lat="45.1586" lon="5.4371">
        <ele>647.71</ele>
        <time>2020-08-10T10:53:19.000Z</time>
      </trkpt>
      <trkpt lat="45.15903" lon="5.43667">
        <ele>646.08</ele>
        <time>2020-08-10T10:53:24.000Z</time>
      </trkpt>
      <trkpt lat="45.1597" lon="5.436">
        <ele>642.66</ele>
        <time>2020-08-10T10:53:31.000Z</time>
      </trkpt>
      <trkpt lat="45.16026" lon="5.43555">
        <ele>643.72</ele>
        <time>2020-08-10T10:53:36.000Z</time>
      </trkpt>
      <trkpt lat="45.1606" lon="5.43471">
        <ele>643.77</ele>
        <time>2020-08-10T10:53:41.000Z</time>
      </trkpt>
      <trkpt lat="45.16119" lon="5.43327">
        <ele>642.88</ele>
        <time>2020-08-10T10:53:51.000Z</time>
      </trkpt>
      <trkpt lat="45.16155" lon="5.43266">
        <ele>641.91</ele>
        <time>2020-08-10T10:53:56.000Z</time>
      </trkpt>
      <trkpt lat="45.16185" lon="5.43209">
        <ele>641.49</ele>
        <time>2020-08-10T10:54:01.000Z</time>
      </trkpt>
      <trkpt lat="45.16212" lon="5.43139">
        <ele>641.54</ele>
        <time>2020-08-10T10:54:07.000Z</time>
      </trkpt>
      <trkpt lat="45.16217" lon="5.4307">
        <ele>640.98</ele>
        <time>2020-08-10T10:54:12.000Z</time>
      </trkpt>
      <trkpt lat="45.16253" lon="5.43018">
        <ele>641.02</ele>
        <time>2020-08-10T10:54:17.000Z</time>
      </trkpt>
      <trkpt lat="45.16329" lon="5.4278">
        <ele>640.56</ele>
        <time>2020-08-10T10:54:34.000Z</time>
      </trkpt>
      <trkpt lat="45.16351" lon="5.42733">
        <ele>637.03</ele>
        <time>2020-08-10T10:54:39.000Z</time>
      </trkpt>
      <trkpt lat="45.16372" lon="5.42683">
        <ele>634.52</ele>
        <time>2020-08-10T10:54:44.000Z</time>
      </trkpt>
      <trkpt lat="45.16399" lon="5.42622">
        <ele>631.98</ele>
        <time>2020-08-10T10:54:49.000Z</time>
      </trkpt>
      <trkpt lat="45.16436" lon="5.42597">
        <ele>618.67</ele>
        <time>2020-08-10T10:54:54.000Z</time>
      </trkpt>
      <trkpt lat="45.16461" lon="5.42572">
        <ele>614.76</ele>
        <time>2020-08-10T10:54:59.000Z</time>
      </trkpt>
      <trkpt lat="45.16474" lon="5.42555">
        <ele>612.63</ele>
        <time>2020-08-10T10:55:04.000Z</time>
      </trkpt>
      <trkpt lat="45.16505" lon="5.42528">
        <ele>609.3</ele>
        <time>2020-08-10T10:55:09.000Z</time>
      </trkpt>
      <trkpt lat="45.16517" lon="5.42508">
        <ele>608.59</ele>
        <time>2020-08-10T10:55:14.000Z</time>
      </trkpt>
      <trkpt lat="45.16525" lon="5.42494">
        <ele>607.05</ele>
        <time>2020-08-10T10:55:19.000Z</time>
      </trkpt>
      <trkpt lat="45.16534" lon="5.42493">
        <ele>599.74</ele>
        <time>2020-08-10T10:57:01.000Z</time>
      </trkpt>
      <trkpt lat="45.16528" lon="5.42484">
        <ele>612.03</ele>
        <time>2020-08-10T10:57:30.000Z</time>
      </trkpt>
      <trkpt lat="45.16613" lon="5.42372">
        <ele>612.49</ele>
        <time>2020-08-10T10:59:06.000Z</time>
      </trkpt>
      <trkpt lat="45.16683" lon="5.42304">
        <ele>620.54</ele>
        <time>2020-08-10T10:59:11.000Z</time>
      </trkpt>
      <trkpt lat="45.16763" lon="5.42194">
        <ele>601.72</ele>
        <time>2020-08-10T10:59:16.000Z</time>
      </trkpt>
      <trkpt lat="45.16786" lon="5.42128">
        <ele>563.42</ele>
        <time>2020-08-10T10:59:21.000Z</time>
      </trkpt>
      <trkpt lat="45.16793" lon="5.42117">
        <ele>537.45</ele>
        <time>2020-08-10T10:59:29.000Z</time>
      </trkpt>
      <trkpt lat="45.16796" lon="5.42105">
        <ele>529.65</ele>
        <time>2020-08-10T11:00:33.000Z</time>
      </trkpt>
      <trkpt lat="45.16807" lon="5.42104">
        <ele>529.89</ele>
        <time>2020-08-10T11:00:38.000Z</time>
      </trkpt>
      <trkpt lat="45.16825" lon="5.42113">
        <ele>524.75</ele>
        <time>2020-08-10T11:00:43.000Z</time>
      </trkpt>
      <trkpt lat="45.16817" lon="5.42105">
        <ele>522.27</ele>
        <time>2020-08-10T11:00:56.000Z</time>
      </trkpt>
      <trkpt lat="45.16819" lon="5.42092">
        <ele>517.11</ele>
        <time>2020-08-10T11:01:04.000Z</time>
      </trkpt>
      <trkpt lat="45.16829" lon="5.42094">
        <ele>521.87</ele>
        <time>2020-08-10T11:02:43.000Z</time>
      </trkpt>
      <trkpt lat="45.16858" lon="5.42066">
        <ele>523.98</ele>
        <time>2020-08-10T11:02:48.000Z</time>
      </trkpt>
      <trkpt lat="45.169" lon="5.42027">
        <ele>508.37</ele>
        <time>2020-08-10T11:02:53.000Z</time>
      </trkpt>
      <trkpt lat="45.16974" lon="5.42063">
        <ele>503.34</ele>
        <time>2020-08-10T11:03:02.000Z</time>
      </trkpt>
      <trkpt lat="45.17012" lon="5.42114">
        <ele>494.37</ele>
        <time>2020-08-10T11:03:07.000Z</time>
      </trkpt>
      <trkpt lat="45.17034" lon="5.42188">
        <ele>490.77</ele>
        <time>2020-08-10T11:03:12.000Z</time>
      </trkpt>
      <trkpt lat="45.17066" lon="5.42227">
        <ele>490.11</ele>
        <time>2020-08-10T11:03:17.000Z</time>
      </trkpt>
      <trkpt lat="45.17072" lon="5.42198">
        <ele>488.2</ele>
        <time>2020-08-10T11:03:22.000Z</time>
      </trkpt>
      <trkpt lat="45.17068" lon="5.42154">
        <ele>485.59</ele>
        <time>2020-08-10T11:03:27.000Z</time>
      </trkpt>
      <trkpt lat="45.17052" lon="5.42081">
        <ele>483.33</ele>
        <time>2020-08-10T11:03:32.000Z</time>
      </trkpt>
      <trkpt lat="45.17018" lon="5.42015">
        <ele>479.91</ele>
        <time>2020-08-10T11:03:37.000Z</time>
      </trkpt>
      <trkpt lat="45.16982" lon="5.41944">
        <ele>482.64</ele>
        <time>2020-08-10T11:03:42.000Z</time>
      </trkpt>
      <trkpt lat="45.16928" lon="5.4187">
        <ele>479.56</ele>
        <time>2020-08-10T11:03:47.000Z</time>
      </trkpt>
      <trkpt lat="45.16883" lon="5.4181">
        <ele>467.87</ele>
        <time>2020-08-10T11:03:52.000Z</time>
      </trkpt>
      <trkpt lat="45.16901" lon="5.41811">
        <ele>464.22</ele>
        <time>2020-08-10T11:03:57.000Z</time>
      </trkpt>
      <trkpt lat="45.16942" lon="5.41855">
        <ele>451.82</ele>
        <time>2020-08-10T11:04:02.000Z</time>
      </trkpt>
      <trkpt lat="45.16983" lon="5.41893">
        <ele>448.37</ele>
        <time>2020-08-10T11:04:07.000Z</time>
      </trkpt>
      <trkpt lat="45.17023" lon="5.41939">
        <ele>445.56</ele>
        <time>2020-08-10T11:04:12.000Z</time>
      </trkpt>
      <trkpt lat="45.1707" lon="5.41994">
        <ele>437.89</ele>
        <time>2020-08-10T11:04:17.000Z</time>
      </trkpt>
      <trkpt lat="45.17124" lon="5.42053">
        <ele>436.06</ele>
        <time>2020-08-10T11:04:22.000Z</time>
      </trkpt>
      <trkpt lat="45.17168" lon="5.42106">
        <ele>434.1</ele>
        <time>2020-08-10T11:04:27.000Z</time>
      </trkpt>
      <trkpt lat="45.17205" lon="5.42167">
        <ele>431.56</ele>
        <time>2020-08-10T11:04:32.000Z</time>
      </trkpt>
      <trkpt lat="45.17203" lon="5.42231">
        <ele>429.85</ele>
        <time>2020-08-10T11:04:37.000Z</time>
      </trkpt>
      <trkpt lat="45.17198" lon="5.42288">
        <ele>431.32</ele>
        <time>2020-08-10T11:04:42.000Z</time>
      </trkpt>
      <trkpt lat="45.1722" lon="5.42326">
        <ele>431.67</ele>
        <time>2020-08-10T11:04:47.000Z</time>
      </trkpt>
      <trkpt lat="45.17254" lon="5.42372">
        <ele>429.25</ele>
        <time>2020-08-10T11:04:52.000Z</time>
      </trkpt>
      <trkpt lat="45.1728" lon="5.42421">
        <ele>432.84</ele>
        <time>2020-08-10T11:04:57.000Z</time>
      </trkpt>
      <trkpt lat="45.17304" lon="5.42458">
        <ele>436.5</ele>
        <time>2020-08-10T11:05:02.000Z</time>
      </trkpt>
      <trkpt lat="45.17306" lon="5.42494">
        <ele>419.62</ele>
        <time>2020-08-10T11:05:07.000Z</time>
      </trkpt>
      <trkpt lat="45.17324" lon="5.42558">
        <ele>410.46</ele>
        <time>2020-08-10T11:05:12.000Z</time>
      </trkpt>
      <trkpt lat="45.17339" lon="5.42611">
        <ele>410.84</ele>
        <time>2020-08-10T11:05:17.000Z</time>
      </trkpt>
      <trkpt lat="45.17366" lon="5.42633">
        <ele>408.07</ele>
        <time>2020-08-10T11:05:22.000Z</time>
      </trkpt>
      <trkpt lat="45.17394" lon="5.42663">
        <ele>406.41</ele>
        <time>2020-08-10T11:05:27.000Z</time>
      </trkpt>
      <trkpt lat="45.17414" lon="5.42702">
        <ele>404.87</ele>
        <time>2020-08-10T11:05:32.000Z</time>
      </trkpt>
      <trkpt lat="45.17439" lon="5.42737">
        <ele>401.98</ele>
        <time>2020-08-10T11:05:37.000Z</time>
      </trkpt>
      <trkpt lat="45.17464" lon="5.42755">
        <ele>397.23</ele>
        <time>2020-08-10T11:05:42.000Z</time>
      </trkpt>
      <trkpt lat="45.17496" lon="5.4278">
        <ele>394.04</ele>
        <time>2020-08-10T11:05:47.000Z</time>
      </trkpt>
      <trkpt lat="45.1751" lon="5.42785">
        <ele>390.9</ele>
        <time>2020-08-10T11:05:52.000Z</time>
      </trkpt>
      <trkpt lat="45.17503" lon="5.42764">
        <ele>389.28</ele>
        <time>2020-08-10T11:05:57.000Z</time>
      </trkpt>
      <trkpt lat="45.17456" lon="5.42717">
        <ele>388.39</ele>
        <time>2020-08-10T11:06:02.000Z</time>
      </trkpt>
      <trkpt lat="45.1738" lon="5.42487">
        <ele>387.25</ele>
        <time>2020-08-10T11:06:16.000Z</time>
      </trkpt>
      <trkpt lat="45.17357" lon="5.4238">
        <ele>384.51</ele>
        <time>2020-08-10T11:06:21.000Z</time>
      </trkpt>
      <trkpt lat="45.17325" lon="5.42296">
        <ele>382.73</ele>
        <time>2020-08-10T11:06:26.000Z</time>
      </trkpt>
      <trkpt lat="45.17329" lon="5.42213">
        <ele>379.6</ele>
        <time>2020-08-10T11:06:31.000Z</time>
      </trkpt>
      <trkpt lat="45.17311" lon="5.42123">
        <ele>373</ele>
        <time>2020-08-10T11:06:36.000Z</time>
      </trkpt>
      <trkpt lat="45.17277" lon="5.42054">
        <ele>359.14</ele>
        <time>2020-08-10T11:06:41.000Z</time>
      </trkpt>
      <trkpt lat="45.17247" lon="5.41977">
        <ele>355.98</ele>
        <time>2020-08-10T11:06:46.000Z</time>
      </trkpt>
      <trkpt lat="45.1721" lon="5.41919">
        <ele>349.67</ele>
        <time>2020-08-10T11:06:51.000Z</time>
      </trkpt>
      <trkpt lat="45.1717" lon="5.41839">
        <ele>342.62</ele>
        <time>2020-08-10T11:06:56.000Z</time>
      </trkpt>
      <trkpt lat="45.17127" lon="5.41764">
        <ele>341.63</ele>
        <time>2020-08-10T11:07:01.000Z</time>
      </trkpt>
      <trkpt lat="45.17092" lon="5.41704">
        <ele>334.81</ele>
        <time>2020-08-10T11:07:06.000Z</time>
      </trkpt>
      <trkpt lat="45.17075" lon="5.41659">
        <ele>326.15</ele>
        <time>2020-08-10T11:07:11.000Z</time>
      </trkpt>
      <trkpt lat="45.17076" lon="5.41642">
        <ele>298.69</ele>
        <time>2020-08-10T11:07:33.000Z</time>
      </trkpt>
      <trkpt lat="45.17091" lon="5.41614">
        <ele>292.35</ele>
        <time>2020-08-10T11:07:38.000Z</time>
      </trkpt>
      <trkpt lat="45.1711" lon="5.41591">
        <ele>283.93</ele>
        <time>2020-08-10T11:07:43.000Z</time>
      </trkpt>
      <trkpt lat="45.17126" lon="5.41567">
        <ele>280.75</ele>
        <time>2020-08-10T11:07:48.000Z</time>
      </trkpt>
      <trkpt lat="45.17139" lon="5.41546">
        <ele>275.96</ele>
        <time>2020-08-10T11:07:53.000Z</time>
      </trkpt>
      <trkpt lat="45.17149" lon="5.41551">
        <ele>268.23</ele>
        <time>2020-08-10T11:09:08.000Z</time>
      </trkpt>
      <trkpt lat="45.17163" lon="5.41569">
        <ele>272.65</ele>
        <time>2020-08-10T11:09:13.000Z</time>
      </trkpt>
      <trkpt lat="45.1718" lon="5.41594">
        <ele>273.73</ele>
        <time>2020-08-10T11:09:18.000Z</time>
      </trkpt>
      <trkpt lat="45.17192" lon="5.41625">
        <ele>271.91</ele>
        <time>2020-08-10T11:09:23.000Z</time>
      </trkpt>
      <trkpt lat="45.17214" lon="5.41649">
        <ele>265.59</ele>
        <time>2020-08-10T11:09:28.000Z</time>
      </trkpt>
      <trkpt lat="45.17229" lon="5.41672">
        <ele>264.32</ele>
        <time>2020-08-10T11:09:33.000Z</time>
      </trkpt>
      <trkpt lat="45.17247" lon="5.41691">
        <ele>266.57</ele>
        <time>2020-08-10T11:09:38.000Z</time>
      </trkpt>
      <trkpt lat="45.17272" lon="5.41709">
        <ele>265.18</ele>
        <time>2020-08-10T11:09:43.000Z</time>
      </trkpt>
      <trkpt lat="45.17291" lon="5.41728">
        <ele>266.18</ele>
        <time>2020-08-10T11:09:48.000Z</time>
      </trkpt>
      <trkpt lat="45.1731" lon="5.41751">
        <ele>266.85</ele>
        <time>2020-08-10T11:09:53.000Z</time>
      </trkpt>
      <trkpt lat="45.17318" lon="5.41774">
        <ele>265.93</ele>
        <time>2020-08-10T11:09:58.000Z</time>
      </trkpt>
      <trkpt lat="45.17335" lon="5.41793">
        <ele>264.37</ele>
        <time>2020-08-10T11:10:03.000Z</time>
      </trkpt>
      <trkpt lat="45.17361" lon="5.41821">
        <ele>265.06</ele>
        <time>2020-08-10T11:10:08.000Z</time>
      </trkpt>
      <trkpt lat="45.17384" lon="5.41846">
        <ele>267.13</ele>
        <time>2020-08-10T11:10:13.000Z</time>
      </trkpt>
      <trkpt lat="45.17402" lon="5.41878">
        <ele>266.37</ele>
        <time>2020-08-10T11:10:18.000Z</time>
      </trkpt>
      <trkpt lat="45.17419" lon="5.41906">
        <ele>269.04</ele>
        <time>2020-08-10T11:10:23.000Z</time>
      </trkpt>
      <trkpt lat="45.17437" lon="5.41931">
        <ele>269.07</ele>
        <time>2020-08-10T11:10:28.000Z</time>
      </trkpt>
      <trkpt lat="45.17455" lon="5.41964">
        <ele>264.12</ele>
        <time>2020-08-10T11:10:33.000Z</time>
      </trkpt>
      <trkpt lat="45.17467" lon="5.41998">
        <ele>262.05</ele>
        <time>2020-08-10T11:10:38.000Z</time>
      </trkpt>
      <trkpt lat="45.17493" lon="5.42029">
        <ele>256.37</ele>
        <time>2020-08-10T11:10:43.000Z</time>
      </trkpt>
      <trkpt lat="45.17511" lon="5.42062">
        <ele>257.99</ele>
        <time>2020-08-10T11:10:48.000Z</time>
      </trkpt>
      <trkpt lat="45.17527" lon="5.42087">
        <ele>253.95</ele>
        <time>2020-08-10T11:10:53.000Z</time>
      </trkpt>
      <trkpt lat="45.17554" lon="5.42105">
        <ele>250.59</ele>
        <time>2020-08-10T11:10:58.000Z</time>
      </trkpt>
      <trkpt lat="45.17577" lon="5.42128">
        <ele>249.85</ele>
        <time>2020-08-10T11:11:03.000Z</time>
      </trkpt>
      <trkpt lat="45.17599" lon="5.42146">
        <ele>251.17</ele>
        <time>2020-08-10T11:11:08.000Z</time>
      </trkpt>
      <trkpt lat="45.17624" lon="5.42158">
        <ele>252.46</ele>
        <time>2020-08-10T11:11:13.000Z</time>
      </trkpt>
      <trkpt lat="45.17646" lon="5.42171">
        <ele>254.69</ele>
        <time>2020-08-10T11:11:18.000Z</time>
      </trkpt>
      <trkpt lat="45.17671" lon="5.42185">
        <ele>257.33</ele>
        <time>2020-08-10T11:11:23.000Z</time>
      </trkpt>
      <trkpt lat="45.17696" lon="5.42198">
        <ele>255.93</ele>
        <time>2020-08-10T11:11:28.000Z</time>
      </trkpt>
      <trkpt lat="45.17721" lon="5.42215">
        <ele>256.94</ele>
        <time>2020-08-10T11:11:33.000Z</time>
      </trkpt>
      <trkpt lat="45.17742" lon="5.42237">
        <ele>257.84</ele>
        <time>2020-08-10T11:11:38.000Z</time>
      </trkpt>
      <trkpt lat="45.17761" lon="5.42256">
        <ele>258.57</ele>
        <time>2020-08-10T11:11:43.000Z</time>
      </trkpt>
      <trkpt lat="45.17782" lon="5.42277">
        <ele>259.12</ele>
        <time>2020-08-10T11:11:48.000Z</time>
      </trkpt>
      <trkpt lat="45.17803" lon="5.42296">
        <ele>260.31</ele>
        <time>2020-08-10T11:11:53.000Z</time>
      </trkpt>
      <trkpt lat="45.17823" lon="5.4232">
        <ele>261.08</ele>
        <time>2020-08-10T11:11:58.000Z</time>
      </trkpt>
      <trkpt lat="45.17852" lon="5.42332">
        <ele>263.03</ele>
        <time>2020-08-10T11:12:03.000Z</time>
      </trkpt>
      <trkpt lat="45.1786" lon="5.42355">
        <ele>262.73</ele>
        <time>2020-08-10T11:12:08.000Z</time>
      </trkpt>
      <trkpt lat="45.17866" lon="5.42379">
        <ele>262.78</ele>
        <time>2020-08-10T11:12:13.000Z</time>
      </trkpt>
      <trkpt lat="45.17872" lon="5.42397">
        <ele>261.25</ele>
        <time>2020-08-10T11:12:18.000Z</time>
      </trkpt>
      <trkpt lat="45.17872" lon="5.4242">
        <ele>255.76</ele>
        <time>2020-08-10T11:12:23.000Z</time>
      </trkpt>
      <trkpt lat="45.17877" lon="5.4244">
        <ele>258.06</ele>
        <time>2020-08-10T11:12:28.000Z</time>
      </trkpt>
      <trkpt lat="45.17885" lon="5.42457">
        <ele>254.07</ele>
        <time>2020-08-10T11:12:33.000Z</time>
      </trkpt>
      <trkpt lat="45.17894" lon="5.42475">
        <ele>256.99</ele>
        <time>2020-08-10T11:12:38.000Z</time>
      </trkpt>
      <trkpt lat="45.17904" lon="5.42497">
        <ele>259.13</ele>
        <time>2020-08-10T11:12:43.000Z</time>
      </trkpt>
      <trkpt lat="45.17913" lon="5.42505">
        <ele>259.9</ele>
        <time>2020-08-10T11:12:48.000Z</time>
      </trkpt>
      <trkpt lat="45.17924" lon="5.42507">
        <ele>258.03</ele>
        <time>2020-08-10T11:13:05.000Z</time>
      </trkpt>
      <trkpt lat="45.17933" lon="5.42511">
        <ele>256.41</ele>
        <time>2020-08-10T11:13:21.000Z</time>
      </trkpt>
      <trkpt lat="45.17949" lon="5.42506">
        <ele>257.7</ele>
        <time>2020-08-10T11:13:26.000Z</time>
      </trkpt>
      <trkpt lat="45.17962" lon="5.42494">
        <ele>259.81</ele>
        <time>2020-08-10T11:13:31.000Z</time>
      </trkpt>
      <trkpt lat="45.17986" lon="5.42486">
        <ele>264.18</ele>
        <time>2020-08-10T11:13:36.000Z</time>
      </trkpt>
      <trkpt lat="45.18011" lon="5.42478">
        <ele>261.29</ele>
        <time>2020-08-10T11:13:41.000Z</time>
      </trkpt>
      <trkpt lat="45.18033" lon="5.42449">
        <ele>262.23</ele>
        <time>2020-08-10T11:13:46.000Z</time>
      </trkpt>
      <trkpt lat="45.18051" lon="5.42427">
        <ele>258.82</ele>
        <time>2020-08-10T11:13:51.000Z</time>
      </trkpt>
      <trkpt lat="45.18076" lon="5.42417">
        <ele>259.81</ele>
        <time>2020-08-10T11:13:56.000Z</time>
      </trkpt>
      <trkpt lat="45.18097" lon="5.42419">
        <ele>262.14</ele>
        <time>2020-08-10T11:14:01.000Z</time>
      </trkpt>
      <trkpt lat="45.18103" lon="5.42437">
        <ele>261.22</ele>
        <time>2020-08-10T11:14:06.000Z</time>
      </trkpt>
      <trkpt lat="45.18112" lon="5.42455">
        <ele>260.98</ele>
        <time>2020-08-10T11:14:11.000Z</time>
      </trkpt>
      <trkpt lat="45.18138" lon="5.42476">
        <ele>262.25</ele>
        <time>2020-08-10T11:14:16.000Z</time>
      </trkpt>
      <trkpt lat="45.18162" lon="5.4249">
        <ele>256.88</ele>
        <time>2020-08-10T11:14:21.000Z</time>
      </trkpt>
      <trkpt lat="45.18192" lon="5.42463">
        <ele>257.64</ele>
        <time>2020-08-10T11:14:26.000Z</time>
      </trkpt>
      <trkpt lat="45.1822" lon="5.42448">
        <ele>251.62</ele>
        <time>2020-08-10T11:14:31.000Z</time>
      </trkpt>
      <trkpt lat="45.18255" lon="5.42469">
        <ele>249.16</ele>
        <time>2020-08-10T11:14:36.000Z</time>
      </trkpt>
      <trkpt lat="45.18281" lon="5.42505">
        <ele>244.17</ele>
        <time>2020-08-10T11:14:41.000Z</time>
      </trkpt>
      <trkpt lat="45.18308" lon="5.42555">
        <ele>242.89</ele>
        <time>2020-08-10T11:14:46.000Z</time>
      </trkpt>
      <trkpt lat="45.1833" lon="5.42597">
        <ele>243.74</ele>
        <time>2020-08-10T11:14:51.000Z</time>
      </trkpt>
      <trkpt lat="45.18348" lon="5.42633">
        <ele>238.97</ele>
        <time>2020-08-10T11:14:56.000Z</time>
      </trkpt>
      <trkpt lat="45.18357" lon="5.42678">
        <ele>237.79</ele>
        <time>2020-08-10T11:15:01.000Z</time>
      </trkpt>
      <trkpt lat="45.18366" lon="5.42717">
        <ele>239</ele>
        <time>2020-08-10T11:15:06.000Z</time>
      </trkpt>
      <trkpt lat="45.18373" lon="5.42749">
        <ele>238.12</ele>
        <time>2020-08-10T11:15:11.000Z</time>
      </trkpt>
      <trkpt lat="45.18367" lon="5.42785">
        <ele>227.39</ele>
        <time>2020-08-10T11:15:16.000Z</time>
      </trkpt>
      <trkpt lat="45.18377" lon="5.42815">
        <ele>227.99</ele>
        <time>2020-08-10T11:15:21.000Z</time>
      </trkpt>
      <trkpt lat="45.1838" lon="5.42851">
        <ele>226.67</ele>
        <time>2020-08-10T11:15:26.000Z</time>
      </trkpt>
      <trkpt lat="45.18391" lon="5.42886">
        <ele>227.23</ele>
        <time>2020-08-10T11:15:31.000Z</time>
      </trkpt>
      <trkpt lat="45.18403" lon="5.4292">
        <ele>229.05</ele>
        <time>2020-08-10T11:15:36.000Z</time>
      </trkpt>
      <trkpt lat="45.18415" lon="5.42954">
        <ele>230.58</ele>
        <time>2020-08-10T11:15:41.000Z</time>
      </trkpt>
      <trkpt lat="45.18428" lon="5.42991">
        <ele>231.01</ele>
        <time>2020-08-10T11:15:46.000Z</time>
      </trkpt>
      <trkpt lat="45.18446" lon="5.43023">
        <ele>235.3</ele>
        <time>2020-08-10T11:15:51.000Z</time>
      </trkpt>
      <trkpt lat="45.18458" lon="5.43061">
        <ele>233.57</ele>
        <time>2020-08-10T11:15:56.000Z</time>
      </trkpt>
      <trkpt lat="45.18465" lon="5.43092">
        <ele>231.74</ele>
        <time>2020-08-10T11:16:01.000Z</time>
      </trkpt>
      <trkpt lat="45.18486" lon="5.43124">
        <ele>234.84</ele>
        <time>2020-08-10T11:16:06.000Z</time>
      </trkpt>
      <trkpt lat="45.18505" lon="5.43158">
        <ele>228.65</ele>
        <time>2020-08-10T11:16:11.000Z</time>
      </trkpt>
      <trkpt lat="45.1853" lon="5.43187">
        <ele>228.6</ele>
        <time>2020-08-10T11:16:16.000Z</time>
      </trkpt>
      <trkpt lat="45.18547" lon="5.43214">
        <ele>227.44</ele>
        <time>2020-08-10T11:16:21.000Z</time>
      </trkpt>
      <trkpt lat="45.18567" lon="5.43243">
        <ele>229.91</ele>
        <time>2020-08-10T11:16:26.000Z</time>
      </trkpt>
      <trkpt lat="45.18588" lon="5.43274">
        <ele>230.87</ele>
        <time>2020-08-10T11:16:31.000Z</time>
      </trkpt>
      <trkpt lat="45.18597" lon="5.43305">
        <ele>231.99</ele>
        <time>2020-08-10T11:16:36.000Z</time>
      </trkpt>
      <trkpt lat="45.18599" lon="5.43342">
        <ele>236.64</ele>
        <time>2020-08-10T11:16:41.000Z</time>
      </trkpt>
      <trkpt lat="45.186" lon="5.43377">
        <ele>238.99</ele>
        <time>2020-08-10T11:16:46.000Z</time>
      </trkpt>
      <trkpt lat="45.18612" lon="5.43407">
        <ele>238.11</ele>
        <time>2020-08-10T11:16:51.000Z</time>
      </trkpt>
      <trkpt lat="45.18622" lon="5.43443">
        <ele>240.29</ele>
        <time>2020-08-10T11:16:56.000Z</time>
      </trkpt>
      <trkpt lat="45.18623" lon="5.43475">
        <ele>239.56</ele>
        <time>2020-08-10T11:17:01.000Z</time>
      </trkpt>
      <trkpt lat="45.1863" lon="5.43502">
        <ele>233.8</ele>
        <time>2020-08-10T11:17:06.000Z</time>
      </trkpt>
      <trkpt lat="45.18644" lon="5.43508">
        <ele>235.38</ele>
        <time>2020-08-10T11:17:11.000Z</time>
      </trkpt>
      <trkpt lat="45.18654" lon="5.43509">
        <ele>242.51</ele>
        <time>2020-08-10T11:17:24.000Z</time>
      </trkpt>
      <trkpt lat="45.18664" lon="5.43517">
        <ele>236.22</ele>
        <time>2020-08-10T11:17:57.000Z</time>
      </trkpt>
      <trkpt lat="45.187" lon="5.43533">
        <ele>226.95</ele>
        <time>2020-08-10T11:18:02.000Z</time>
      </trkpt>
      <trkpt lat="45.18722" lon="5.43559">
        <ele>227.83</ele>
        <time>2020-08-10T11:18:07.000Z</time>
      </trkpt>
      <trkpt lat="45.18734" lon="5.43585">
        <ele>226.95</ele>
        <time>2020-08-10T11:18:12.000Z</time>
      </trkpt>
      <trkpt lat="45.18746" lon="5.43619">
        <ele>229.26</ele>
        <time>2020-08-10T11:18:17.000Z</time>
      </trkpt>
      <trkpt lat="45.18761" lon="5.43655">
        <ele>230.58</ele>
        <time>2020-08-10T11:18:22.000Z</time>
      </trkpt>
      <trkpt lat="45.18775" lon="5.43691">
        <ele>230.59</ele>
        <time>2020-08-10T11:18:27.000Z</time>
      </trkpt>
      <trkpt lat="45.18784" lon="5.43729">
        <ele>233.36</ele>
        <time>2020-08-10T11:18:32.000Z</time>
      </trkpt>
      <trkpt lat="45.18797" lon="5.43769">
        <ele>231.15</ele>
        <time>2020-08-10T11:18:37.000Z</time>
      </trkpt>
      <trkpt lat="45.18815" lon="5.438">
        <ele>232.85</ele>
        <time>2020-08-10T11:18:42.000Z</time>
      </trkpt>
      <trkpt lat="45.18839" lon="5.43818">
        <ele>233.05</ele>
        <time>2020-08-10T11:18:47.000Z</time>
      </trkpt>
      <trkpt lat="45.18857" lon="5.43837">
        <ele>231.82</ele>
        <time>2020-08-10T11:18:52.000Z</time>
      </trkpt>
      <trkpt lat="45.1887" lon="5.43855">
        <ele>231.31</ele>
        <time>2020-08-10T11:18:57.000Z</time>
      </trkpt>
      <trkpt lat="45.18899" lon="5.43877">
        <ele>234.22</ele>
        <time>2020-08-10T11:19:02.000Z</time>
      </trkpt>
      <trkpt lat="45.18916" lon="5.43903">
        <ele>231.14</ele>
        <time>2020-08-10T11:19:07.000Z</time>
      </trkpt>
      <trkpt lat="45.18926" lon="5.43942">
        <ele>234.31</ele>
        <time>2020-08-10T11:19:12.000Z</time>
      </trkpt>
      <trkpt lat="45.18931" lon="5.43977">
        <ele>232.51</ele>
        <time>2020-08-10T11:19:17.000Z</time>
      </trkpt>
      <trkpt lat="45.18945" lon="5.44008">
        <ele>229.34</ele>
        <time>2020-08-10T11:19:22.000Z</time>
      </trkpt>
      <trkpt lat="45.18949" lon="5.44039">
        <ele>227.61</ele>
        <time>2020-08-10T11:19:27.000Z</time>
      </trkpt>
      <trkpt lat="45.18963" lon="5.4407">
        <ele>227.29</ele>
        <time>2020-08-10T11:19:32.000Z</time>
      </trkpt>
      <trkpt lat="45.18979" lon="5.44092">
        <ele>228.21</ele>
        <time>2020-08-10T11:19:37.000Z</time>
      </trkpt>
      <trkpt lat="45.19" lon="5.44115">
        <ele>229.02</ele>
        <time>2020-08-10T11:19:42.000Z</time>
      </trkpt>
      <trkpt lat="45.19023" lon="5.44146">
        <ele>230.75</ele>
        <time>2020-08-10T11:19:47.000Z</time>
      </trkpt>
      <trkpt lat="45.19044" lon="5.44156">
        <ele>226.67</ele>
        <time>2020-08-10T11:19:52.000Z</time>
      </trkpt>
      <trkpt lat="45.19064" lon="5.44176">
        <ele>228.36</ele>
        <time>2020-08-10T11:19:57.000Z</time>
      </trkpt>
      <trkpt lat="45.19069" lon="5.44205">
        <ele>225.93</ele>
        <time>2020-08-10T11:20:02.000Z</time>
      </trkpt>
      <trkpt lat="45.19094" lon="5.44237">
        <ele>229.67</ele>
        <time>2020-08-10T11:20:07.000Z</time>
      </trkpt>
      <trkpt lat="45.19128" lon="5.44266">
        <ele>232.05</ele>
        <time>2020-08-10T11:20:12.000Z</time>
      </trkpt>
      <trkpt lat="45.19153" lon="5.44303">
        <ele>232.02</ele>
        <time>2020-08-10T11:20:17.000Z</time>
      </trkpt>
      <trkpt lat="45.19172" lon="5.4435">
        <ele>233.36</ele>
        <time>2020-08-10T11:20:22.000Z</time>
      </trkpt>
      <trkpt lat="45.19177" lon="5.44397">
        <ele>233.19</ele>
        <time>2020-08-10T11:20:27.000Z</time>
      </trkpt>
      <trkpt lat="45.192" lon="5.44439">
        <ele>232.36</ele>
        <time>2020-08-10T11:20:32.000Z</time>
      </trkpt>
      <trkpt lat="45.19221" lon="5.44479">
        <ele>234.56</ele>
        <time>2020-08-10T11:20:37.000Z</time>
      </trkpt>
      <trkpt lat="45.19238" lon="5.44498">
        <ele>237.49</ele>
        <time>2020-08-10T11:20:42.000Z</time>
      </trkpt>
      <trkpt lat="45.1925" lon="5.44518">
        <ele>238.4</ele>
        <time>2020-08-10T11:20:47.000Z</time>
      </trkpt>
      <trkpt lat="45.19264" lon="5.44538">
        <ele>235.75</ele>
        <time>2020-08-10T11:20:52.000Z</time>
      </trkpt>
      <trkpt lat="45.19272" lon="5.44563">
        <ele>236.72</ele>
        <time>2020-08-10T11:20:57.000Z</time>
      </trkpt>
      <trkpt lat="45.19296" lon="5.44585">
        <ele>243.16</ele>
        <time>2020-08-10T11:21:02.000Z</time>
      </trkpt>
      <trkpt lat="45.1932" lon="5.44591">
        <ele>244.49</ele>
        <time>2020-08-10T11:21:07.000Z</time>
      </trkpt>
      <trkpt lat="45.19346" lon="5.44592">
        <ele>245.2</ele>
        <time>2020-08-10T11:21:12.000Z</time>
      </trkpt>
      <trkpt lat="45.19385" lon="5.44581">
        <ele>239.41</ele>
        <time>2020-08-10T11:21:17.000Z</time>
      </trkpt>
      <trkpt lat="45.19402" lon="5.44564">
        <ele>238.09</ele>
        <time>2020-08-10T11:21:22.000Z</time>
      </trkpt>
      <trkpt lat="45.19424" lon="5.44546">
        <ele>239.55</ele>
        <time>2020-08-10T11:21:27.000Z</time>
      </trkpt>
      <trkpt lat="45.19448" lon="5.44521">
        <ele>238.23</ele>
        <time>2020-08-10T11:21:32.000Z</time>
      </trkpt>
      <trkpt lat="45.19475" lon="5.44506">
        <ele>237.43</ele>
        <time>2020-08-10T11:21:37.000Z</time>
      </trkpt>
      <trkpt lat="45.19509" lon="5.44513">
        <ele>233.01</ele>
        <time>2020-08-10T11:21:42.000Z</time>
      </trkpt>
      <trkpt lat="45.19527" lon="5.44534">
        <ele>231.85</ele>
        <time>2020-08-10T11:21:47.000Z</time>
      </trkpt>
      <trkpt lat="45.19541" lon="5.44557">
        <ele>230.46</ele>
        <time>2020-08-10T11:21:52.000Z</time>
      </trkpt>
      <trkpt lat="45.19556" lon="5.44584">
        <ele>228.46</ele>
        <time>2020-08-10T11:21:57.000Z</time>
      </trkpt>
      <trkpt lat="45.1958" lon="5.44614">
        <ele>227.54</ele>
        <time>2020-08-10T11:22:02.000Z</time>
      </trkpt>
      <trkpt lat="45.19601" lon="5.44645">
        <ele>227.2</ele>
        <time>2020-08-10T11:22:07.000Z</time>
      </trkpt>
      <trkpt lat="45.19622" lon="5.44666">
        <ele>225.22</ele>
        <time>2020-08-10T11:22:12.000Z</time>
      </trkpt>
      <trkpt lat="45.19641" lon="5.44701">
        <ele>223.55</ele>
        <time>2020-08-10T11:22:17.000Z</time>
      </trkpt>
      <trkpt lat="45.19659" lon="5.44738">
        <ele>221.04</ele>
        <time>2020-08-10T11:22:22.000Z</time>
      </trkpt>
      <trkpt lat="45.19686" lon="5.44764">
        <ele>219.86</ele>
        <time>2020-08-10T11:22:27.000Z</time>
      </trkpt>
      <trkpt lat="45.19709" lon="5.44799">
        <ele>217.52</ele>
        <time>2020-08-10T11:22:32.000Z</time>
      </trkpt>
      <trkpt lat="45.1973" lon="5.44824">
        <ele>217.37</ele>
        <time>2020-08-10T11:22:37.000Z</time>
      </trkpt>
      <trkpt lat="45.19738" lon="5.44838">
        <ele>219.58</ele>
        <time>2020-08-10T11:22:42.000Z</time>
      </trkpt>
      <trkpt lat="45.19749" lon="5.44862">
        <ele>220.66</ele>
        <time>2020-08-10T11:22:47.000Z</time>
      </trkpt>
      <trkpt lat="45.19758" lon="5.44894">
        <ele>218.46</ele>
        <time>2020-08-10T11:22:52.000Z</time>
      </trkpt>
      <trkpt lat="45.1977" lon="5.44929">
        <ele>216.87</ele>
        <time>2020-08-10T11:22:57.000Z</time>
      </trkpt>
      <trkpt lat="45.19783" lon="5.44966">
        <ele>217.58</ele>
        <time>2020-08-10T11:23:02.000Z</time>
      </trkpt>
      <trkpt lat="45.19782" lon="5.4501">
        <ele>217.88</ele>
        <time>2020-08-10T11:23:07.000Z</time>
      </trkpt>
      <trkpt lat="45.19776" lon="5.45053">
        <ele>215.67</ele>
        <time>2020-08-10T11:23:12.000Z</time>
      </trkpt>
      <trkpt lat="45.19779" lon="5.45092">
        <ele>213.77</ele>
        <time>2020-08-10T11:23:17.000Z</time>
      </trkpt>
      <trkpt lat="45.19782" lon="5.45134">
        <ele>212.89</ele>
        <time>2020-08-10T11:23:22.000Z</time>
      </trkpt>
      <trkpt lat="45.19792" lon="5.45178">
        <ele>213.4</ele>
        <time>2020-08-10T11:23:27.000Z</time>
      </trkpt>
      <trkpt lat="45.19799" lon="5.45221">
        <ele>212.07</ele>
        <time>2020-08-10T11:23:32.000Z</time>
      </trkpt>
      <trkpt lat="45.19809" lon="5.45261">
        <ele>214.23</ele>
        <time>2020-08-10T11:23:37.000Z</time>
      </trkpt>
      <trkpt lat="45.19817" lon="5.45296">
        <ele>214.67</ele>
        <time>2020-08-10T11:23:42.000Z</time>
      </trkpt>
      <trkpt lat="45.19826" lon="5.45335">
        <ele>217.71</ele>
        <time>2020-08-10T11:23:47.000Z</time>
      </trkpt>
      <trkpt lat="45.19834" lon="5.45371">
        <ele>219.11</ele>
        <time>2020-08-10T11:23:52.000Z</time>
      </trkpt>
      <trkpt lat="45.19847" lon="5.45414">
        <ele>219.96</ele>
        <time>2020-08-10T11:23:57.000Z</time>
      </trkpt>
      <trkpt lat="45.19857" lon="5.45455">
        <ele>220.19</ele>
        <time>2020-08-10T11:24:02.000Z</time>
      </trkpt>
      <trkpt lat="45.19866" lon="5.45491">
        <ele>217.69</ele>
        <time>2020-08-10T11:24:07.000Z</time>
      </trkpt>
      <trkpt lat="45.19876" lon="5.4553">
        <ele>219.26</ele>
        <time>2020-08-10T11:24:12.000Z</time>
      </trkpt>
      <trkpt lat="45.19886" lon="5.45569">
        <ele>218.01</ele>
        <time>2020-08-10T11:24:17.000Z</time>
      </trkpt>
      <trkpt lat="45.19905" lon="5.45608">
        <ele>218.8</ele>
        <time>2020-08-10T11:24:22.000Z</time>
      </trkpt>
      <trkpt lat="45.19915" lon="5.4565">
        <ele>221.99</ele>
        <time>2020-08-10T11:24:27.000Z</time>
      </trkpt>
      <trkpt lat="45.19928" lon="5.45692">
        <ele>222.14</ele>
        <time>2020-08-10T11:24:32.000Z</time>
      </trkpt>
      <trkpt lat="45.19945" lon="5.45724">
        <ele>225.27</ele>
        <time>2020-08-10T11:24:37.000Z</time>
      </trkpt>
      <trkpt lat="45.19956" lon="5.45754">
        <ele>225.4</ele>
        <time>2020-08-10T11:24:42.000Z</time>
      </trkpt>
      <trkpt lat="45.19978" lon="5.45783">
        <ele>225.57</ele>
        <time>2020-08-10T11:24:47.000Z</time>
      </trkpt>
      <trkpt lat="45.19996" lon="5.45816">
        <ele>229.21</ele>
        <time>2020-08-10T11:24:52.000Z</time>
      </trkpt>
      <trkpt lat="45.20016" lon="5.45849">
        <ele>229.72</ele>
        <time>2020-08-10T11:24:57.000Z</time>
      </trkpt>
      <trkpt lat="45.20029" lon="5.45888">
        <ele>229.06</ele>
        <time>2020-08-10T11:25:02.000Z</time>
      </trkpt>
      <trkpt lat="45.20043" lon="5.45936">
        <ele>230.43</ele>
        <time>2020-08-10T11:25:07.000Z</time>
      </trkpt>
      <trkpt lat="45.20049" lon="5.45978">
        <ele>226.53</ele>
        <time>2020-08-10T11:25:12.000Z</time>
      </trkpt>
      <trkpt lat="45.20053" lon="5.46014">
        <ele>227.77</ele>
        <time>2020-08-10T11:25:17.000Z</time>
      </trkpt>
      <trkpt lat="45.20063" lon="5.46022">
        <ele>226.6</ele>
        <time>2020-08-10T11:25:22.000Z</time>
      </trkpt>
      <trkpt lat="45.20053" lon="5.46029">
        <ele>219.9</ele>
        <time>2020-08-10T11:30:59.000Z</time>
      </trkpt>
      <trkpt lat="45.2005" lon="5.46075">
        <ele>217.91</ele>
        <time>2020-08-10T11:31:04.000Z</time>
      </trkpt>
      <trkpt lat="45.20059" lon="5.46119">
        <ele>217.01</ele>
        <time>2020-08-10T11:31:09.000Z</time>
      </trkpt>
      <trkpt lat="45.20071" lon="5.46132">
        <ele>214.1</ele>
        <time>2020-08-10T11:31:14.000Z</time>
      </trkpt>
      <trkpt lat="45.20075" lon="5.46134">
        <ele>214.68</ele>
        <time>2020-08-10T11:31:16.000Z</time>
      </trkpt>
    </trkseg>
  </trk>
</gpx>